| time (UTC) | temp F | wind direction | speed MPH | gust MPH | rain 1hr in | rain 24hr in | rain mn in | humidity % | barometer mb |
| 20260901222829 | 87 | 218 | 0.0 | 0.0 | 0.00 | 0.01 | 0.01 | 74 | 1010.6 |
| 20260901222822 | 87 | 218 | 0.0 | 1.0 | 0.00 | 0.01 | 0.01 | 74 | 1010.7 |
| 20260901222818 | 88 | 218 | 0.0 | 1.0 | 0.00 | 0.01 | 0.01 | 73 | 1010.7 |
| 20260901222812 | 87 | 218 | 0.0 | 0.0 | 0.00 | 0.01 | 0.01 | 74 | 1010.6 |
| 20260901222657 | 87 | 218 | 0.0 | 0.0 | 0.00 | 0.01 | 0.01 | 74 | 1010.7 |
| 20260901222521 | 88 | 218 | 0.0 | 1.0 | 0.00 | 0.01 | 0.01 | 74 | 1010.7 |
| 20260901222434 | 88 | 218 | 0.0 | 2.0 | 0.00 | 0.01 | 0.01 | 74 | 1010.5 |
| 20260901222430 | 88 | 218 | 0.0 | 2.0 | 0.00 | 0.01 | 0.01 | 73 | 1010.4 |
| 20260901222426 | 88 | 218 | 0.0 | 1.0 | 0.00 | 0.01 | 0.01 | 74 | 1010.7 |
| 20260901222419 | 88 | 218 | 0.0 | 2.0 | 0.00 | 0.01 | 0.01 | 73 | 1010.4 |
| 20260901222413 | 88 | 218 | 0.0 | 1.0 | 0.00 | 0.01 | 0.01 | 73 | 1010.7 |
| 20260901222149 | 88 | 218 | 0.0 | 1.0 | 0.00 | 0.01 | 0.01 | 74 | 1010.6 |
| 20260901222021 | 88 | 218 | 0.0 | 2.0 | 0.00 | 0.01 | 0.01 | 74 | 1010.4 |
| 20260901221722 | 88 | 218 | 0.0 | 2.0 | 0.00 | 0.01 | 0.01 | 72 | 1010.4 |
| 20260901221620 | 89 | 218 | 0.0 | 2.0 | 0.00 | 0.01 | 0.01 | 72 | 1010.4 |
| 20260901221536 | 89 | 218 | 1.0 | 2.0 | 0.00 | 0.01 | 0.01 | 71 | 1010.5 |
| 20260901221520 | 89 | 218 | 0.0 | 2.0 | 0.00 | 0.01 | 0.01 | 71 | 1010.5 |
| 20260901221420 | 89 | 218 | 0.0 | 2.0 | 0.00 | 0.01 | 0.01 | 71 | 1010.6 |
| 20260901221333 | 89 | 218 | 0.0 | 2.0 | 0.00 | 0.01 | 0.01 | 70 | 1010.7 |
| 20260901221328 | 89 | 218 | 0.0 | 2.0 | 0.00 | 0.01 | 0.01 | 71 | 1010.7 |
| 20260901221119 | 89 | 218 | 0.0 | 2.0 | 0.00 | 0.01 | 0.01 | 70 | 1010.7 |
| 20260901221021 | 89 | 218 | 0.0 | 2.0 | 0.00 | 0.01 | 0.01 | 70 | 1010.6 |
| 20260901221017 | 89 | 218 | 0.0 | 1.0 | 0.00 | 0.01 | 0.01 | 70 | 1010.7 |
| 20260901220917 | 89 | 218 | 0.0 | 2.0 | 0.00 | 0.01 | 0.01 | 70 | 1010.7 |
| 20260901220817 | 89 | 218 | 0.0 | 2.0 | 0.00 | 0.01 | 0.01 | 70 | 1010.7 |
| 20260901220716 | 89 | 218 | 0.0 | 2.0 | 0.00 | 0.01 | 0.01 | 70 | 1010.6 |
| 20260901220627 | 89 | 218 | 0.0 | 2.0 | 0.00 | 0.01 | 0.01 | 70 | 1010.6 |
| 20260901220616 | 89 | 218 | 0.0 | 2.0 | 0.00 | 0.01 | 0.01 | 69 | 1010.6 |
| 20260901220551 | 89 | 218 | 0.0 | 2.0 | 0.00 | 0.01 | 0.01 | 68 | 1010.4 |
| 20260901220515 | 89 | 218 | 0.0 | 2.0 | 0.00 | 0.01 | 0.01 | 68 | 1010.5 |
| 20260901220413 | 89 | 218 | 0.0 | 2.0 | 0.00 | 0.01 | 0.01 | 68 | 1010.5 |
| 20260901220313 | 89 | 218 | 0.0 | 2.0 | 0.00 | 0.01 | 0.01 | 68 | 1010.5 |
| 20260901220212 | 89 | 218 | 0.0 | 2.0 | 0.00 | 0.01 | 0.01 | 69 | 1010.5 |
| 20260901220126 | 89 | 218 | 0.0 | 2.0 | 0.00 | 0.01 | 0.01 | 69 | 1010.5 |
| 20260901220112 | 89 | 218 | 0.0 | 2.0 | 0.00 | 0.01 | 0.01 | 68 | 1010.5 |
| 20260901220021 | 89 | 218 | 2.0 | 2.0 | 0.00 | 0.01 | 0.01 | 68 | 1010.3 |
| 20260901220012 | 89 | 218 | 0.0 | 2.0 | 0.00 | 0.01 | 0.01 | 68 | 1010.4 |
| 20260901215910 | 89 | 218 | 0.0 | 2.0 | 0.00 | 0.01 | 0.01 | 68 | 1010.4 |
| 20260901215848 | 89 | 218 | 0.0 | 2.0 | 0.00 | 0.01 | 0.01 | 69 | 1010.4 |
| 20260901215736 | 89 | 218 | 0.0 | 0.0 | 0.00 | 0.01 | 0.01 | 69 | 1010.4 |
| 20260901215731 | 89 | 218 | 0.0 | 0.0 | 0.00 | 0.01 | 0.01 | 69 | 1010.4 |
| 20260901215723 | 89 | 218 | 0.0 | 0.0 | 0.00 | 0.01 | 0.01 | 69 | 1010.4 |
| 20260901215521 | 90 | 218 | 0.0 | 0.0 | 0.00 | 0.01 | 0.01 | 69 | 1010.3 |
| 20260901215406 | 89 | 218 | 0.0 | 0.0 | 0.00 | 0.01 | 0.01 | 69 | 1010.4 |
| 20260901215306 | 89 | 218 | 0.0 | 0.0 | 0.00 | 0.01 | 0.01 | 69 | 1010.4 |
| 20260901215206 | 89 | 218 | 0.0 | 0.0 | 0.00 | 0.01 | 0.01 | 69 | 1010.4 |
| 20260901215124 | 89 | 218 | 0.0 | 0.0 | 0.00 | 0.01 | 0.01 | 69 | 1010.4 |
| 20260901215105 | 89 | 218 | 0.0 | 0.0 | 0.00 | 0.01 | 0.01 | 69 | 1010.4 |
| 20260901215021 | 89 | 218 | 0.0 | 0.0 | 0.00 | 0.01 | 0.01 | 69 | 1010.4 |
| 20260901215005 | 89 | 218 | 0.0 | 0.0 | 0.00 | 0.01 | 0.01 | 69 | 1010.5 |
| 20260901214904 | 89 | 217 | 0.0 | 0.0 | 0.00 | 0.01 | 0.01 | 69 | 1010.5 |
| 20260901214804 | 89 | 217 | 0.0 | 0.0 | 0.00 | 0.01 | 0.01 | 68 | 1010.5 |
| 20260901214704 | 89 | 217 | 0.0 | 0.0 | 0.00 | 0.01 | 0.01 | 69 | 1010.5 |
| 20260901214622 | 89 | 217 | 0.0 | 0.0 | 0.00 | 0.01 | 0.01 | 69 | 1010.5 |
| 20260901214603 | 89 | 217 | 0.0 | 0.0 | 0.00 | 0.01 | 0.01 | 69 | 1010.5 |
| 20260901214521 | 89 | 217 | 0.0 | 0.0 | 0.00 | 0.01 | 0.01 | 68 | 1010.5 |
| 20260901214503 | 89 | 217 | 0.0 | 0.0 | 0.00 | 0.01 | 0.01 | 68 | 1010.6 |
| 20260901214401 | 89 | 217 | 0.0 | 0.0 | 0.00 | 0.01 | 0.01 | 68 | 1010.6 |
| 20260901214301 | 89 | 217 | 0.0 | 0.0 | 0.00 | 0.01 | 0.01 | 68 | 1010.6 |
| 20260901214201 | 89 | 217 | 0.0 | 0.0 | 0.00 | 0.01 | 0.01 | 69 | 1010.7 |
| 20260901214120 | 89 | 217 | 0.0 | 0.0 | 0.00 | 0.01 | 0.01 | 69 | 1010.7 |
| 20260901214059 | 89 | 217 | 0.0 | 0.0 | 0.00 | 0.01 | 0.01 | 69 | 1010.7 |
| 20260901214051 | 89 | 217 | 0.0 | 0.0 | 0.00 | 0.01 | 0.01 | 69 | 1010.7 |
| 20260901213959 | 89 | 217 | 0.0 | 0.0 | 0.00 | 0.01 | 0.01 | 69 | 1010.8 |
| 20260901213859 | 89 | 217 | 0.0 | 0.0 | 0.00 | 0.01 | 0.01 | 69 | 1010.8 |
| 20260901213847 | 89 | 273 | 0.0 | 0.0 | 0.00 | 0.01 | 0.01 | 70 | 1010.8 |
| 20260901213734 | 89 | 274 | 0.0 | 0.0 | 0.00 | 0.01 | 0.01 | 69 | 1010.8 |
| 20260901213622 | 89 | 274 | 0.0 | 0.0 | 0.00 | 0.01 | 0.01 | 68 | 1010.8 |
| 20260901213615 | 89 | 274 | 0.0 | 0.0 | 0.00 | 0.01 | 0.01 | 68 | 1010.8 |
| 20260901213521 | 89 | 274 | 0.0 | 0.0 | 0.00 | 0.01 | 0.01 | 68 | 1010.8 |
| 20260901213255 | 89 | 274 | 0.0 | 0.0 | 0.00 | 0.01 | 0.01 | 68 | 1011.0 |
| 20260901213155 | 89 | 274 | 0.0 | 0.0 | 0.00 | 0.01 | 0.01 | 68 | 1011.0 |
| 20260901213118 | 89 | 274 | 0.0 | 0.0 | 0.00 | 0.01 | 0.01 | 68 | 1011.0 |
| 20260901213054 | 89 | 274 | 0.0 | 0.0 | 0.00 | 0.01 | 0.01 | 68 | 1011.0 |
| 20260901213021 | 89 | 274 | 0.0 | 0.0 | 0.00 | 0.01 | 0.01 | 67 | 1010.9 |
| 20260901212954 | 89 | 274 | 0.0 | 0.0 | 0.00 | 0.01 | 0.01 | 67 | 1011.0 |
| 20260901212854 | 89 | 329 | 0.0 | 0.0 | 0.00 | 0.01 | 0.01 | 67 | 1011.1 |
| 20260901212753 | 89 | 285 | 0.0 | 0.0 | 0.00 | 0.01 | 0.01 | 67 | 1011.0 |
| 20260901212652 | 89 | 298 | 0.0 | 0.0 | 0.00 | 0.01 | 0.01 | 67 | 1011.0 |
| 20260901212617 | 89 | 304 | 0.0 | 0.0 | 0.00 | 0.01 | 0.01 | 67 | 1011.0 |
| 20260901212549 | 90 | 269 | 0.0 | 0.0 | 0.00 | 0.01 | 0.01 | 67 | 1011.0 |
| 20260901212521 | 90 | 270 | 0.0 | 2.0 | 0.00 | 0.01 | 0.01 | 67 | 1010.9 |
| 20260901212449 | 90 | 270 | 0.0 | 3.0 | 0.00 | 0.01 | 0.01 | 67 | 1011.0 |
| 20260901212348 | 90 | 270 | 0.0 | 3.0 | 0.00 | 0.01 | 0.01 | 67 | 1011.0 |
| 20260901212248 | 90 | 270 | 1.0 | 3.0 | 0.00 | 0.01 | 0.01 | 67 | 1010.9 |
| 20260901212148 | 90 | 270 | 1.0 | 3.0 | 0.00 | 0.01 | 0.01 | 66 | 1010.9 |
| 20260901212115 | 90 | 270 | 1.0 | 4.0 | 0.00 | 0.01 | 0.01 | 66 | 1010.9 |
| 20260901212102 | 90 | 271 | 1.0 | 4.0 | 0.00 | 0.01 | 0.01 | 66 | 1010.8 |
| 20260901212057 | 90 | 273 | 1.0 | 4.0 | 0.00 | 0.01 | 0.01 | 66 | 1010.9 |
| 20260901212036 | 90 | 271 | 0.0 | 4.0 | 0.00 | 0.01 | 0.01 | 66 | 1010.7 |
| 20260901211846 | 90 | 265 | 1.0 | 4.0 | 0.00 | 0.01 | 0.01 | 66 | 1010.8 |
| 20260901211747 | 90 | 265 | 2.0 | 6.0 | 0.00 | 0.01 | 0.01 | 65 | 1010.7 |
| 20260901211647 | 90 | 265 | 2.0 | 6.0 | 0.00 | 0.01 | 0.01 | 65 | 1010.7 |
| 20260901211615 | 91 | 265 | 2.0 | 6.0 | 0.00 | 0.01 | 0.01 | 65 | 1010.7 |
| 20260901211546 | 91 | 265 | 2.0 | 6.0 | 0.00 | 0.01 | 0.01 | 65 | 1010.7 |
| 20260901211521 | 91 | 267 | 2.0 | 6.0 | 0.00 | 0.01 | 0.01 | 65 | 1010.6 |
| 20260901211446 | 91 | 267 | 2.0 | 6.0 | 0.00 | 0.01 | 0.01 | 65 | 1010.7 |
| 20260901211344 | 91 | 267 | 2.0 | 6.0 | 0.00 | 0.01 | 0.01 | 65 | 1010.7 |
| 20260901211244 | 91 | 229 | 2.0 | 6.0 | 0.00 | 0.01 | 0.01 | 65 | 1010.7 |
| 20260901211143 | 91 | 296 | 2.0 | 7.0 | 0.00 | 0.01 | 0.01 | 65 | 1010.6 |
| 20260901211115 | 91 | 269 | 2.0 | 7.0 | 0.00 | 0.01 | 0.01 | 64 | 1010.6 |
| 20260901211051 | 91 | 269 | 1.0 | 7.0 | 0.00 | 0.01 | 0.01 | 65 | 1010.6 |
| 20260901211043 | 91 | 269 | 2.0 | 7.0 | 0.00 | 0.01 | 0.01 | 65 | 1010.6 |
| 20260901210941 | 91 | 269 | 2.0 | 7.0 | 0.00 | 0.01 | 0.01 | 65 | 1010.7 |
| 20260901210841 | 91 | 311 | 2.0 | 7.0 | 0.00 | 0.01 | 0.01 | 66 | 1010.7 |
| 20260901210821 | 91 | 271 | 2.0 | 7.0 | 0.00 | 0.01 | 0.01 | 65 | 1010.7 |
| 20260901210816 | 91 | 200 | 1.0 | 7.0 | 0.00 | 0.01 | 0.01 | 66 | 1010.7 |
| 20260901210703 | 91 | 270 | 1.0 | 7.0 | 0.00 | 0.01 | 0.01 | 66 | 1010.7 |
| 20260901210655 | 91 | 271 | 1.0 | 7.0 | 0.00 | 0.01 | 0.01 | 66 | 1010.7 |
| 20260901210521 | 91 | 271 | 0.0 | 7.0 | 0.00 | 0.01 | 0.01 | 65 | 1010.6 |
| 20260901210336 | 91 | 271 | 2.0 | 7.0 | 0.00 | 0.01 | 0.01 | 65 | 1010.7 |
| 20260901210236 | 91 | 271 | 1.0 | 7.0 | 0.00 | 0.01 | 0.01 | 64 | 1010.8 |
| 20260901210113 | 91 | 234 | 1.0 | 3.0 | 0.00 | 0.01 | 0.01 | 65 | 1010.7 |
| 20260901210035 | 91 | 234 | 1.0 | 3.0 | 0.00 | 0.01 | 0.01 | 65 | 1010.7 |
| 20260901210021 | 91 | 234 | 1.0 | 4.0 | 0.00 | 0.01 | 0.01 | 65 | 1010.6 |
| 20260901205934 | 91 | 234 | 1.0 | 4.0 | 0.00 | 0.01 | 0.01 | 65 | 1010.7 |
| 20260901205832 | 91 | 234 | 1.0 | 4.0 | 0.00 | 0.01 | 0.01 | 65 | 1010.7 |
| 20260901205732 | 91 | 234 | 1.0 | 4.0 | 0.00 | 0.01 | 0.01 | 65 | 1010.8 |
| 20260901205612 | 90 | 234 | 1.0 | 4.0 | 0.00 | 0.01 | 0.01 | 65 | 1010.8 |
| 20260901205533 | 90 | 235 | 1.0 | 4.0 | 0.00 | 0.01 | 0.01 | 65 | 1010.8 |
| 20260901205524 | 90 | 225 | 1.0 | 4.0 | 0.00 | 0.01 | 0.01 | 65 | 1010.8 |
| 20260901205521 | 90 | 236 | 2.0 | 4.0 | 0.00 | 0.01 | 0.01 | 66 | 1010.7 |
| 20260901205413 | 90 | 246 | 1.0 | 4.0 | 0.00 | 0.01 | 0.01 | 65 | 1010.7 |
| 20260901205408 | 90 | 246 | 1.0 | 4.0 | 0.00 | 0.01 | 0.01 | 66 | 1010.8 |
| 20260901205402 | 90 | 245 | 1.0 | 4.0 | 0.00 | 0.01 | 0.01 | 66 | 1010.8 |
| 20260901205244 | 90 | 246 | 1.0 | 4.0 | 0.00 | 0.01 | 0.01 | 65 | 1010.7 |
| 20260901205021 | 90 | 252 | 1.0 | 3.0 | 0.00 | 0.01 | 0.01 | 66 | 1010.7 |
| 20260901204929 | 90 | 252 | 1.0 | 4.0 | 0.00 | 0.01 | 0.01 | 66 | 1010.8 |
| 20260901204836 | 90 | 251 | 2.0 | 5.0 | 0.00 | 0.01 | 0.01 | 66 | 1010.8 |
| 20260901204827 | 90 | 251 | 1.0 | 4.0 | 0.00 | 0.01 | 0.01 | 66 | 1010.8 |
| 20260901204728 | 90 | 251 | 2.0 | 5.0 | 0.00 | 0.01 | 0.01 | 66 | 1010.7 |
| 20260901204719 | 90 | 251 | 2.0 | 5.0 | 0.00 | 0.01 | 0.01 | 66 | 1010.8 |
| 20260901204523 | 90 | 252 | 2.0 | 5.0 | 0.00 | 0.01 | 0.01 | 66 | 1010.8 |
| 20260901204521 | 90 | 252 | 2.0 | 5.0 | 0.00 | 0.01 | 0.01 | 66 | 1010.8 |
| 20260901204424 | 90 | 256 | 2.0 | 5.0 | 0.00 | 0.01 | 0.01 | 66 | 1010.9 |
| 20260901204337 | 90 | 235 | 2.0 | 5.0 | 0.00 | 0.01 | 0.01 | 66 | 1010.9 |
| 20260901204332 | 90 | 259 | 2.0 | 5.0 | 0.00 | 0.01 | 0.01 | 66 | 1010.8 |
| 20260901204122 | 90 | 235 | 2.0 | 5.0 | 0.00 | 0.01 | 0.01 | 66 | 1010.9 |
| 20260901204111 | 90 | 235 | 2.0 | 5.0 | 0.00 | 0.01 | 0.01 | 66 | 1010.9 |
| 20260901204021 | 90 | 235 | 2.0 | 5.0 | 0.00 | 0.01 | 0.01 | 65 | 1010.9 |
| 20260901203920 | 90 | 230 | 2.0 | 5.0 | 0.00 | 0.01 | 0.01 | 65 | 1010.9 |
| 20260901203833 | 90 | 231 | 1.0 | 5.0 | 0.00 | 0.01 | 0.01 | 67 | 1010.8 |
| 20260901203828 | 90 | 225 | 1.0 | 5.0 | 0.00 | 0.01 | 0.01 | 67 | 1010.8 |
| 20260901203639 | 90 | 176 | 1.0 | 5.0 | 0.00 | 0.01 | 0.01 | 67 | 1010.9 |
| 20260901203627 | 90 | 199 | 1.0 | 5.0 | 0.00 | 0.01 | 0.01 | 67 | 1010.9 |
| 20260901203521 | 90 | 170 | 1.0 | 5.0 | 0.00 | 0.01 | 0.01 | 67 | 1010.8 |
| 20260901203439 | 90 | 170 | 1.0 | 5.0 | 0.00 | 0.01 | 0.01 | 67 | 1010.9 |
| 20260901203326 | 90 | 169 | 1.0 | 7.0 | 0.00 | 0.01 | 0.01 | 67 | 1010.9 |
| 20260901203109 | 90 | 169 | 1.0 | 7.0 | 0.00 | 0.01 | 0.01 | 66 | 1010.9 |
| 20260901203030 | 90 | 168 | 2.0 | 7.0 | 0.00 | 0.01 | 0.01 | 65 | 1010.8 |
| 20260901203024 | 90 | 168 | 1.0 | 7.0 | 0.00 | 0.01 | 0.01 | 66 | 1010.8 |
| 20260901203021 | 90 | 168 | 1.0 | 7.0 | 0.00 | 0.01 | 0.01 | 66 | 1010.7 |
| 20260901202856 | 91 | 228 | 2.0 | 9.0 | 0.00 | 0.01 | 0.01 | 65 | 1010.9 |
| 20260901202815 | 90 | 168 | 2.0 | 7.0 | 0.00 | 0.01 | 0.01 | 65 | 1010.9 |
| 20260901202750 | 91 | 257 | 2.0 | 7.0 | 0.00 | 0.01 | 0.01 | 66 | 1010.9 |
| 20260901202741 | 91 | 228 | 2.0 | 9.0 | 0.00 | 0.01 | 0.01 | 65 | 1010.9 |
| 20260901202522 | 91 | 228 | 2.0 | 9.0 | 0.00 | 0.01 | 0.01 | 65 | 1011.0 |
| 20260901202311 | 91 | 260 | 2.0 | 9.0 | 0.00 | 0.01 | 0.01 | 65 | 1011.0 |
| 20260901202211 | 91 | 260 | 2.0 | 9.0 | 0.00 | 0.01 | 0.01 | 65 | 1010.9 |
| 20260901202112 | 91 | 261 | 2.0 | 9.0 | 0.00 | 0.01 | 0.01 | 65 | 1010.9 |
| 20260901202051 | 91 | 188 | 3.0 | 9.0 | 0.00 | 0.01 | 0.01 | 66 | 1010.8 |
| 20260901202010 | 91 | 189 | 2.0 | 9.0 | 0.00 | 0.01 | 0.01 | 66 | 1010.9 |
| 20260901201910 | 91 | 242 | 1.0 | 9.0 | 0.00 | 0.01 | 0.01 | 66 | 1010.9 |
| 20260901201809 | 91 | 246 | 1.0 | 9.0 | 0.00 | 0.01 | 0.01 | 66 | 1010.9 |
| 20260901201709 | 90 | 229 | 1.0 | 9.0 | 0.00 | 0.01 | 0.01 | 67 | 1010.9 |
| 20260901201610 | 90 | 250 | 1.0 | 4.0 | 0.00 | 0.01 | 0.01 | 68 | 1010.9 |
| 20260901201551 | 90 | 250 | 0.0 | 4.0 | 0.00 | 0.01 | 0.01 | 67 | 1010.9 |
| 20260901201508 | 90 | 250 | 1.0 | 4.0 | 0.00 | 0.01 | 0.01 | 67 | 1010.9 |
| 20260901201407 | 90 | 250 | 1.0 | 4.0 | 0.00 | 0.01 | 0.01 | 67 | 1011.0 |
| 20260901201353 | 90 | 290 | 2.0 | 6.0 | 0.00 | 0.01 | 0.01 | 68 | 1011.0 |
| 20260901201349 | 90 | 290 | 2.0 | 7.0 | 0.00 | 0.01 | 0.01 | 68 | 1011.0 |
| 20260901201344 | 89 | 296 | 2.0 | 7.0 | 0.00 | 0.01 | 0.01 | 68 | 1011.0 |
| 20260901201338 | 90 | 275 | 2.0 | 4.0 | 0.00 | 0.01 | 0.01 | 68 | 1011.0 |
| 20260901201114 | 90 | 290 | 2.0 | 7.0 | 0.00 | 0.01 | 0.01 | 68 | 1011.0 |
| 20260901201021 | 90 | 296 | 4.0 | 7.0 | 0.00 | 0.01 | 0.01 | 68 | 1010.9 |
| 20260901200930 | 89 | 284 | 2.0 | 7.0 | 0.00 | 0.01 | 0.01 | 68 | 1010.9 |
| 20260901200905 | 89 | 257 | 2.0 | 7.0 | 0.00 | 0.01 | 0.01 | 68 | 1011.0 |
| 20260901200833 | 89 | 284 | 2.0 | 7.0 | 0.00 | 0.01 | 0.01 | 68 | 1010.9 |
| 20260901200828 | 89 | 257 | 2.0 | 7.0 | 0.00 | 0.01 | 0.01 | 67 | 1011.0 |
| 20260901200819 | 89 | 247 | 2.0 | 7.0 | 0.00 | 0.01 | 0.01 | 68 | 1010.9 |
| 20260901200521 | 89 | 284 | 2.0 | 7.0 | 0.00 | 0.01 | 0.01 | 68 | 1010.8 |
| 20260901200503 | 89 | 284 | 2.0 | 7.0 | 0.00 | 0.01 | 0.01 | 68 | 1010.9 |
| 20260901200402 | 89 | 273 | 2.0 | 9.0 | 0.00 | 0.01 | 0.01 | 68 | 1010.9 |
| 20260901200303 | 89 | 280 | 2.0 | 9.0 | 0.00 | 0.01 | 0.01 | 67 | 1010.9 |
| 20260901200202 | 89 | 288 | 2.0 | 9.0 | 0.00 | 0.01 | 0.01 | 67 | 1010.9 |
| 20260901200107 | 89 | 255 | 2.0 | 9.0 | 0.00 | 0.02 | 0.01 | 67 | 1010.9 |
| 20260901200021 | 89 | 267 | 1.0 | 9.0 | 0.00 | 0.02 | 0.01 | 67 | 1010.9 |
| 20260901200001 | 89 | 267 | 2.0 | 9.0 | 0.00 | 0.02 | 0.01 | 67 | 1010.9 |
| 20260901195902 | 89 | 278 | 2.0 | 9.0 | 0.00 | 0.02 | 0.01 | 67 | 1010.9 |
| 20260901195802 | 89 | 278 | 2.0 | 9.0 | 0.00 | 0.02 | 0.01 | 67 | 1011.0 |
| 20260901195720 | 89 | 278 | 3.0 | 9.0 | 0.00 | 0.02 | 0.01 | 68 | 1011.0 |
| 20260901195715 | 89 | 278 | 3.0 | 9.0 | 0.00 | 0.02 | 0.01 | 67 | 1011.0 |
| 20260901195707 | 89 | 278 | 3.0 | 9.0 | 0.00 | 0.02 | 0.01 | 68 | 1011.0 |
| 20260901195521 | 89 | 278 | 2.0 | 9.0 | 0.00 | 0.02 | 0.01 | 67 | 1011.0 |
| 20260901195459 | 89 | 278 | 2.0 | 9.0 | 0.00 | 0.02 | 0.01 | 67 | 1011.0 |
| 20260901195359 | 89 | 259 | 2.0 | 9.0 | 0.00 | 0.02 | 0.01 | 67 | 1011.1 |
| 20260901195312 | 89 | 269 | 2.0 | 9.0 | 0.00 | 0.02 | 0.01 | 66 | 1011.1 |
| 20260901195307 | 89 | 265 | 2.0 | 9.0 | 0.00 | 0.02 | 0.01 | 67 | 1011.1 |
| 20260901195117 | 89 | 287 | 2.0 | 8.0 | 0.00 | 0.02 | 0.01 | 67 | 1011.2 |
| 20260901195112 | 89 | 268 | 2.0 | 9.0 | 0.00 | 0.02 | 0.01 | 66 | 1011.1 |
| 20260901195106 | 89 | 268 | 2.0 | 9.0 | 0.00 | 0.02 | 0.01 | 66 | 1011.1 |
| 20260901195036 | 89 | 275 | 2.0 | 8.0 | 0.00 | 0.02 | 0.01 | 67 | 1011.1 |
| 20260901194921 | 89 | 204 | 2.0 | 8.0 | 0.00 | 0.02 | 0.01 | 66 | 1011.2 |
| 20260901194917 | 89 | 202 | 1.0 | 8.0 | 0.00 | 0.02 | 0.01 | 67 | 1011.1 |
| 20260901194911 | 89 | 290 | 2.0 | 8.0 | 0.00 | 0.02 | 0.01 | 67 | 1011.1 |
| 20260901194606 | 89 | 271 | 1.0 | 8.0 | 0.00 | 0.02 | 0.01 | 66 | 1011.1 |
| 20260901194553 | 89 | 271 | 2.0 | 8.0 | 0.00 | 0.02 | 0.01 | 66 | 1011.0 |
| 20260901194521 | 90 | 271 | 1.0 | 8.0 | 0.00 | 0.02 | 0.01 | 66 | 1010.9 |
| 20260901194452 | 90 | 271 | 2.0 | 8.0 | 0.00 | 0.02 | 0.01 | 66 | 1011.0 |
| 20260901194349 | 90 | 271 | 2.0 | 8.0 | 0.00 | 0.02 | 0.01 | 65 | 1011.0 |
| 20260901194249 | 90 | 244 | 2.0 | 8.0 | 0.00 | 0.02 | 0.01 | 66 | 1011.1 |
| 20260901194149 | 90 | 319 | 2.0 | 6.0 | 0.00 | 0.02 | 0.01 | 66 | 1011.1 |
| 20260901194105 | 90 | 245 | 2.0 | 7.0 | 0.00 | 0.02 | 0.01 | 66 | 1011.0 |
| 20260901194048 | 90 | 245 | 2.0 | 7.0 | 0.00 | 0.02 | 0.01 | 66 | 1011.0 |
| 20260901194021 | 90 | 245 | 2.0 | 7.0 | 0.00 | 0.02 | 0.01 | 66 | 1010.9 |
| 20260901193947 | 90 | 245 | 2.0 | 7.0 | 0.00 | 0.02 | 0.01 | 66 | 1011.0 |
| 20260901193847 | 90 | 245 | 2.0 | 7.0 | 0.00 | 0.02 | 0.01 | 65 | 1011.1 |
| 20260901193747 | 90 | 247 | 2.0 | 7.0 | 0.00 | 0.02 | 0.01 | 65 | 1011.1 |
| 20260901193646 | 90 | 247 | 2.0 | 7.0 | 0.00 | 0.02 | 0.01 | 64 | 1011.1 |
| 20260901193605 | 90 | 240 | 2.0 | 7.0 | 0.00 | 0.02 | 0.01 | 64 | 1011.2 |
| 20260901193545 | 90 | 240 | 2.0 | 7.0 | 0.00 | 0.02 | 0.01 | 64 | 1011.2 |
| 20260901193536 | 91 | 332 | 1.0 | 7.0 | 0.00 | 0.02 | 0.01 | 64 | 1011.1 |
| 20260901193444 | 91 | 332 | 2.0 | 7.0 | 0.00 | 0.02 | 0.01 | 64 | 1011.2 |
| 20260901193344 | 91 | 252 | 2.0 | 7.0 | 0.00 | 0.02 | 0.01 | 64 | 1011.2 |
| 20260901193243 | 91 | 246 | 2.0 | 7.0 | 0.00 | 0.02 | 0.01 | 63 | 1011.3 |
| 20260901193142 | 91 | 255 | 3.0 | 7.0 | 0.00 | 0.02 | 0.01 | 64 | 1011.3 |
| 20260901193105 | 91 | 281 | 2.0 | 7.0 | 0.00 | 0.03 | 0.01 | 64 | 1011.3 |
| 20260901193042 | 91 | 281 | 2.0 | 7.0 | 0.00 | 0.03 | 0.01 | 64 | 1011.3 |
| 20260901193021 | 91 | 257 | 1.0 | 7.0 | 0.00 | 0.03 | 0.01 | 64 | 1011.2 |
| 20260901192940 | 91 | 263 | 2.0 | 7.0 | 0.00 | 0.03 | 0.01 | 64 | 1011.3 |
| 20260901192840 | 91 | 231 | 3.0 | 7.0 | 0.00 | 0.03 | 0.01 | 64 | 1011.3 |
| 20260901192741 | 91 | 231 | 3.0 | 7.0 | 0.00 | 0.03 | 0.01 | 63 | 1011.3 |
| 20260901192700 | 92 | 244 | 3.0 | 7.0 | 0.00 | 0.03 | 0.01 | 62 | 1011.2 |
| 20260901192655 | 92 | 225 | 3.0 | 7.0 | 0.00 | 0.03 | 0.01 | 63 | 1011.3 |
| 20260901192647 | 92 | 222 | 3.0 | 7.0 | 0.00 | 0.03 | 0.01 | 63 | 1011.3 |
| 20260901192522 | 92 | 244 | 2.0 | 7.0 | 0.00 | 0.03 | 0.01 | 62 | 1011.1 |
| 20260901192439 | 92 | 255 | 3.0 | 7.0 | 0.00 | 0.03 | 0.01 | 63 | 1011.2 |
| 20260901192339 | 92 | 166 | 3.0 | 7.0 | 0.00 | 0.03 | 0.01 | 63 | 1011.2 |
| 20260901192323 | 92 | 264 | 2.0 | 6.0 | 0.00 | 0.03 | 0.01 | 64 | 1011.2 |
| 20260901192239 | 92 | 107 | 3.0 | 7.0 | 0.00 | 0.03 | 0.01 | 62 | 1011.2 |
| 20260901192212 | 92 | 263 | 2.0 | 6.0 | 0.00 | 0.03 | 0.01 | 63 | 1011.2 |
| 20260901192039 | 92 | 250 | 2.0 | 6.0 | 0.00 | 0.03 | 0.01 | 64 | 1011.2 |
| 20260901192021 | 92 | 250 | 3.0 | 6.0 | 0.00 | 0.03 | 0.01 | 64 | 1011.2 |
| 20260901191937 | 92 | 272 | 2.0 | 6.0 | 0.00 | 0.03 | 0.01 | 63 | 1011.3 |
| 20260901191837 | 92 | 270 | 2.0 | 6.0 | 0.00 | 0.03 | 0.01 | 63 | 1011.2 |
| 20260901191736 | 92 | 315 | 2.0 | 6.0 | 0.00 | 0.03 | 0.01 | 64 | 1011.2 |
| 20260901191635 | 91 | 219 | 2.0 | 6.0 | 0.00 | 0.03 | 0.01 | 64 | 1011.2 |
| 20260901191604 | 91 | 217 | 1.0 | 6.0 | 0.00 | 0.03 | 0.01 | 64 | 1011.2 |
| 20260901191534 | 91 | 217 | 1.0 | 6.0 | 0.00 | 0.03 | 0.01 | 64 | 1011.2 |
| 20260901191521 | 91 | 221 | 3.0 | 6.0 | 0.00 | 0.03 | 0.01 | 65 | 1011.1 |
| 20260901191435 | 91 | 194 | 1.0 | 6.0 | 0.00 | 0.03 | 0.01 | 64 | 1011.2 |
| 20260901191334 | 91 | 263 | 1.0 | 5.0 | 0.00 | 0.03 | 0.01 | 64 | 1011.1 |
| 20260901191231 | 91 | 227 | 1.0 | 5.0 | 0.00 | 0.03 | 0.01 | 64 | 1011.2 |
| 20260901191130 | 91 | 242 | 1.0 | 5.0 | 0.00 | 0.03 | 0.01 | 64 | 1011.2 |
| 20260901191105 | 91 | 241 | 0.0 | 5.0 | 0.00 | 0.03 | 0.01 | 64 | 1011.2 |
| 20260901191036 | 91 | 241 | 1.0 | 5.0 | 0.00 | 0.03 | 0.01 | 64 | 1011.1 |
| 20260901191029 | 91 | 241 | 0.0 | 5.0 | 0.00 | 0.03 | 0.01 | 64 | 1011.2 |
| 20260901190929 | 91 | 242 | 0.0 | 5.0 | 0.00 | 0.03 | 0.01 | 64 | 1011.2 |
| 20260901190829 | 91 | 236 | 0.0 | 3.0 | 0.00 | 0.03 | 0.01 | 65 | 1011.2 |
| 20260901190727 | 91 | 254 | 0.0 | 2.0 | 0.00 | 0.03 | 0.01 | 65 | 1011.2 |
| 20260901190627 | 91 | 238 | 0.0 | 0.0 | 0.00 | 0.03 | 0.01 | 64 | 1011.2 |
| 20260901190604 | 91 | 236 | 0.0 | 0.0 | 0.00 | 0.03 | 0.01 | 64 | 1011.2 |
| 20260901190527 | 91 | 202 | 0.0 | 0.0 | 0.00 | 0.03 | 0.01 | 64 | 1011.2 |
| 20260901190521 | 91 | 202 | 0.0 | 0.0 | 0.00 | 0.03 | 0.01 | 63 | 1011.1 |
| 20260901190426 | 91 | 202 | 0.0 | 0.0 | 0.00 | 0.03 | 0.01 | 63 | 1011.2 |
| 20260901190340 | 91 | 278 | 0.0 | 0.0 | 0.00 | 0.03 | 0.01 | 65 | 1011.2 |
| 20260901190335 | 91 | 200 | 0.0 | 0.0 | 0.00 | 0.03 | 0.01 | 63 | 1011.3 |
| 20260901190145 | 91 | 277 | 0.0 | 0.0 | 0.00 | 0.03 | 0.01 | 65 | 1011.1 |
| 20260901190133 | 91 | 277 | 0.0 | 0.0 | 0.00 | 0.03 | 0.01 | 65 | 1011.1 |
| 20260901190021 | 91 | 277 | 0.0 | 0.0 | 0.00 | 0.03 | 0.01 | 64 | 1011.0 |
| 20260901185924 | 91 | 307 | 0.0 | 0.0 | 0.00 | 0.03 | 0.01 | 64 | 1011.1 |
| 20260901185823 | 91 | 309 | 0.0 | 0.0 | 0.00 | 0.03 | 0.01 | 64 | 1011.2 |
| 20260901185734 | 90 | 235 | 0.0 | 0.0 | 0.00 | 0.03 | 0.01 | 64 | 1011.1 |
| 20260901185729 | 90 | 309 | 0.0 | 0.0 | 0.00 | 0.03 | 0.01 | 64 | 1011.2 |
| 20260901185602 | 90 | 237 | 0.0 | 0.0 | 0.00 | 0.03 | 0.01 | 64 | 1011.2 |
| 20260901185522 | 90 | 243 | 0.0 | 0.0 | 0.00 | 0.03 | 0.01 | 65 | 1011.2 |
| 20260901185421 | 90 | 243 | 0.0 | 0.0 | 0.00 | 0.03 | 0.01 | 65 | 1011.3 |
| 20260901185329 | 90 | 286 | 0.0 | 0.0 | 0.00 | 0.03 | 0.01 | 64 | 1011.2 |
| 20260901185319 | 90 | 292 | 0.0 | 0.0 | 0.00 | 0.03 | 0.01 | 65 | 1011.3 |
| 20260901185219 | 90 | 269 | 0.0 | 0.0 | 0.00 | 0.03 | 0.01 | 65 | 1011.3 |
| 20260901185209 | 90 | 287 | 0.0 | 0.0 | 0.00 | 0.03 | 0.01 | 64 | 1011.2 |
| 20260901185021 | 90 | 263 | 0.0 | 0.0 | 0.00 | 0.03 | 0.01 | 65 | 1011.1 |
| 20260901185018 | 90 | 263 | 0.0 | 0.0 | 0.00 | 0.03 | 0.01 | 65 | 1011.2 |
| 20260901184919 | 90 | 267 | 0.0 | 0.0 | 0.00 | 0.03 | 0.01 | 65 | 1011.2 |
| 20260901184819 | 90 | 262 | 0.0 | 0.0 | 0.00 | 0.03 | 0.01 | 65 | 1011.3 |
| 20260901184717 | 90 | 262 | 0.0 | 0.0 | 0.00 | 0.03 | 0.01 | 65 | 1011.3 |
| 20260901184617 | 90 | 262 | 0.0 | 0.0 | 0.00 | 0.03 | 0.01 | 65 | 1011.3 |
| 20260901184601 | 90 | 262 | 0.0 | 0.0 | 0.00 | 0.03 | 0.01 | 65 | 1011.3 |
| 20260901184521 | 90 | 263 | 0.0 | 0.0 | 0.00 | 0.03 | 0.01 | 65 | 1011.3 |
| 20260901184515 | 90 | 263 | 0.0 | 0.0 | 0.00 | 0.03 | 0.01 | 65 | 1011.3 |
| 20260901184414 | 90 | 261 | 0.0 | 0.0 | 0.00 | 0.03 | 0.01 | 65 | 1011.4 |
| 20260901184321 | 90 | 278 | 0.0 | 0.0 | 0.00 | 0.03 | 0.01 | 64 | 1011.4 |
| 20260901184314 | 90 | 261 | 0.0 | 0.0 | 0.00 | 0.03 | 0.01 | 66 | 1011.4 |
| 20260901184216 | 90 | 263 | 0.0 | 0.0 | 0.00 | 0.03 | 0.01 | 65 | 1011.4 |
| 20260901184207 | 90 | 310 | 0.0 | 0.0 | 0.00 | 0.03 | 0.01 | 64 | 1011.4 |
| 20260901184021 | 90 | 280 | 0.0 | 0.0 | 0.00 | 0.03 | 0.01 | 65 | 1011.3 |
| 20260901184012 | 90 | 280 | 0.0 | 0.0 | 0.00 | 0.03 | 0.01 | 65 | 1011.4 |
| 20260901183912 | 90 | 178 | 0.0 | 0.0 | 0.00 | 0.03 | 0.01 | 65 | 1011.4 |
| 20260901183825 | 90 | 178 | 0.0 | 0.0 | 0.00 | 0.03 | 0.01 | 64 | 1011.4 |
| 20260901183820 | 90 | 178 | 0.0 | 0.0 | 0.00 | 0.03 | 0.01 | 65 | 1011.4 |
| 20260901183609 | 90 | 178 | 0.0 | 0.0 | 0.00 | 0.03 | 0.01 | 66 | 1011.4 |
| 20260901183600 | 90 | 178 | 0.0 | 0.0 | 0.00 | 0.03 | 0.01 | 66 | 1011.5 |
| 20260901183521 | 90 | 226 | 0.0 | 0.0 | 0.00 | 0.03 | 0.01 | 67 | 1011.4 |
| 20260901183508 | 90 | 226 | 0.0 | 0.0 | 0.00 | 0.03 | 0.01 | 67 | 1011.5 |
| 20260901183407 | 90 | 217 | 0.0 | 0.0 | 0.00 | 0.03 | 0.01 | 67 | 1011.5 |
| 20260901183306 | 90 | 170 | 0.0 | 0.0 | 0.00 | 0.03 | 0.01 | 68 | 1011.5 |
| 20260901183206 | 90 | 170 | 0.0 | 0.0 | 0.00 | 0.03 | 0.01 | 67 | 1011.6 |
| 20260901183106 | 90 | 170 | 0.0 | 0.0 | 0.00 | 0.03 | 0.01 | 67 | 1011.6 |
| 20260901183057 | 90 | 170 | 0.0 | 0.0 | 0.00 | 0.03 | 0.01 | 66 | 1011.6 |
| 20260901183021 | 90 | 170 | 0.0 | 0.0 | 0.00 | 0.03 | 0.01 | 65 | 1011.4 |
| 20260901183005 | 90 | 170 | 0.0 | 0.0 | 0.00 | 0.03 | 0.01 | 65 | 1011.5 |
| 20260901182920 | 90 | 249 | 0.0 | 0.0 | 0.00 | 0.03 | 0.01 | 66 | 1011.5 |
| 20260901182915 | 90 | 259 | 0.0 | 0.0 | 0.00 | 0.03 | 0.01 | 67 | 1011.5 |
| 20260901182705 | 90 | 249 | 0.0 | 0.0 | 0.00 | 0.03 | 0.01 | 65 | 1011.5 |
| 20260901182604 | 90 | 249 | 0.0 | 0.0 | 0.00 | 0.03 | 0.01 | 66 | 1011.6 |
| 20260901182557 | 90 | 248 | 0.0 | 0.0 | 0.00 | 0.03 | 0.01 | 65 | 1011.6 |
| 20260901182521 | 90 | 248 | 0.0 | 0.0 | 0.00 | 0.03 | 0.01 | 65 | 1011.5 |
| 20260901182503 | 90 | 248 | 0.0 | 0.0 | 0.00 | 0.03 | 0.01 | 65 | 1011.6 |
| 20260901182402 | 90 | 253 | 0.0 | 0.0 | 0.00 | 0.03 | 0.01 | 65 | 1011.6 |
| 20260901182305 | 90 | 259 | 0.0 | 0.0 | 0.00 | 0.03 | 0.01 | 66 | 1011.5 |
| 20260901182202 | 90 | 259 | 0.0 | 0.0 | 0.00 | 0.03 | 0.01 | 66 | 1011.6 |
| 20260901182056 | 90 | 259 | 0.0 | 0.0 | 0.00 | 0.03 | 0.01 | 66 | 1011.6 |
| 20260901182021 | 90 | 259 | 0.0 | 0.0 | 0.00 | 0.03 | 0.01 | 66 | 1011.4 |
| 20260901182015 | 90 | 259 | 0.0 | 0.0 | 0.00 | 0.03 | 0.01 | 65 | 1011.4 |
| 20260901182009 | 90 | 259 | 0.0 | 0.0 | 0.00 | 0.03 | 0.01 | 66 | 1011.5 |
| 20260901181814 | 89 | 234 | 0.0 | 3.0 | 0.00 | 0.03 | 0.01 | 67 | 1011.4 |
| 20260901181800 | 90 | 273 | 0.0 | 0.0 | 0.00 | 0.03 | 0.01 | 65 | 1011.4 |
| 20260901181710 | 90 | 275 | 0.0 | 2.0 | 0.00 | 0.03 | 0.01 | 67 | 1011.4 |
| 20260901181701 | 89 | 234 | 0.0 | 3.0 | 0.00 | 0.03 | 0.01 | 67 | 1011.4 |
| 20260901181521 | 89 | 277 | 0.0 | 3.0 | 0.00 | 0.03 | 0.01 | 68 | 1011.3 |
| 20260901181458 | 89 | 277 | 1.0 | 3.0 | 0.00 | 0.03 | 0.01 | 68 | 1011.4 |
| 20260901181412 | 89 | 275 | 1.0 | 9.0 | 0.00 | 0.03 | 0.01 | 68 | 1011.4 |
| 20260901181408 | 89 | 276 | 1.0 | 3.0 | 0.00 | 0.03 | 0.01 | 68 | 1011.4 |
| 20260901181158 | 89 | 275 | 2.0 | 9.0 | 0.00 | 0.03 | 0.01 | 67 | 1011.4 |
| 20260901181116 | 89 | 275 | 2.0 | 9.0 | 0.00 | 0.03 | 0.01 | 67 | 1011.4 |
| 20260901181108 | 89 | 275 | 2.0 | 9.0 | 0.00 | 0.03 | 0.01 | 68 | 1011.4 |
| 20260901181021 | 89 | 275 | 0.0 | 9.0 | 0.00 | 0.03 | 0.01 | 67 | 1011.4 |
| 20260901180856 | 89 | 244 | 2.0 | 9.0 | 0.00 | 0.03 | 0.01 | 68 | 1011.4 |
| 20260901180809 | 89 | 225 | 2.0 | 9.0 | 0.00 | 0.03 | 0.01 | 67 | 1011.4 |
| 20260901180805 | 89 | 229 | 2.0 | 9.0 | 0.00 | 0.03 | 0.01 | 67 | 1011.4 |
| 20260901180557 | 89 | 296 | 2.0 | 9.0 | 0.00 | 0.03 | 0.01 | 67 | 1011.4 |
| 20260901180521 | 89 | 300 | 0.0 | 9.0 | 0.00 | 0.03 | 0.01 | 66 | 1011.5 |
| 20260901180455 | 89 | 300 | 2.0 | 9.0 | 0.00 | 0.03 | 0.01 | 66 | 1011.5 |
| 20260901180354 | 89 | 299 | 2.0 | 9.0 | 0.00 | 0.03 | 0.01 | 65 | 1011.5 |
| 20260901180253 | 89 | 239 | 2.0 | 5.0 | 0.00 | 0.03 | 0.01 | 67 | 1011.5 |
| 20260901180153 | 89 | 232 | 2.0 | 5.0 | 0.00 | 0.03 | 0.01 | 68 | 1011.5 |
| 20260901180054 | 89 | 232 | 2.0 | 5.0 | 0.00 | 0.03 | 0.01 | 68 | 1011.5 |
| 20260901180021 | 89 | 236 | 2.0 | 5.0 | 0.00 | 0.03 | 0.01 | 68 | 1011.5 |
| 20260901175952 | 89 | 236 | 2.0 | 5.0 | 0.00 | 0.03 | 0.01 | 68 | 1011.5 |
| 20260901175850 | 89 | 236 | 2.0 | 5.0 | 0.00 | 0.03 | 0.01 | 68 | 1011.5 |
| 20260901175802 | 89 | 236 | 2.0 | 5.0 | 0.00 | 0.03 | 0.01 | 67 | 1011.5 |
| 20260901175758 | 89 | 236 | 2.0 | 5.0 | 0.00 | 0.03 | 0.01 | 68 | 1011.5 |
| 20260901175548 | 89 | 236 | 1.0 | 5.0 | 0.00 | 0.03 | 0.01 | 65 | 1011.5 |
| 20260901175521 | 89 | 236 | 2.0 | 5.0 | 0.00 | 0.03 | 0.01 | 66 | 1011.6 |
| 20260901175448 | 89 | 236 | 1.0 | 5.0 | 0.00 | 0.03 | 0.01 | 66 | 1011.6 |
| 20260901175347 | 89 | 251 | 1.0 | 4.0 | 0.00 | 0.03 | 0.01 | 67 | 1011.6 |
| 20260901175247 | 89 | 195 | 1.0 | 3.0 | 0.00 | 0.03 | 0.01 | 66 | 1011.6 |
| 20260901175145 | 89 | 198 | 1.0 | 3.0 | 0.00 | 0.03 | 0.01 | 67 | 1011.7 |
| 20260901175045 | 89 | 198 | 0.0 | 3.0 | 0.00 | 0.03 | 0.01 | 66 | 1011.6 |
| 20260901175021 | 89 | 190 | 2.0 | 3.0 | 0.00 | 0.03 | 0.01 | 67 | 1011.6 |
| 20260901174945 | 89 | 190 | 0.0 | 3.0 | 0.00 | 0.03 | 0.01 | 67 | 1011.6 |
| 20260901174844 | 89 | 187 | 0.0 | 3.0 | 0.00 | 0.03 | 0.01 | 67 | 1011.6 |
| 20260901174757 | 89 | 169 | 0.0 | 0.0 | 0.00 | 0.03 | 0.01 | 67 | 1011.4 |
| 20260901174752 | 89 | 169 | 0.0 | 0.0 | 0.00 | 0.03 | 0.01 | 68 | 1011.4 |
| 20260901174601 | 89 | 228 | 0.0 | 0.0 | 0.00 | 0.03 | 0.01 | 67 | 1011.5 |
| 20260901174557 | 89 | 167 | 0.0 | 0.0 | 0.00 | 0.03 | 0.01 | 66 | 1011.5 |
| 20260901174552 | 89 | 180 | 0.0 | 0.0 | 0.00 | 0.03 | 0.01 | 68 | 1011.5 |
| 20260901174521 | 89 | 218 | 0.0 | 0.0 | 0.00 | 0.03 | 0.01 | 68 | 1011.5 |
| 20260901174341 | 89 | 229 | 0.0 | 0.0 | 0.00 | 0.03 | 0.01 | 67 | 1011.5 |
| 20260901174241 | 89 | 228 | 0.0 | 0.0 | 0.00 | 0.03 | 0.01 | 67 | 1011.6 |
| 20260901174140 | 88 | 227 | 0.0 | 0.0 | 0.00 | 0.03 | 0.01 | 67 | 1011.6 |
| 20260901174047 | 88 | 223 | 0.0 | 0.0 | 0.00 | 0.03 | 0.01 | 68 | 1011.6 |
| 20260901174040 | 88 | 219 | 0.0 | 0.0 | 0.00 | 0.03 | 0.01 | 68 | 1011.6 |
| 20260901174021 | 88 | 219 | 0.0 | 0.0 | 0.00 | 0.03 | 0.01 | 68 | 1011.6 |
| 20260901173939 | 88 | 218 | 0.0 | 0.0 | 0.00 | 0.03 | 0.01 | 68 | 1011.6 |
| 20260901173852 | 88 | 160 | 0.0 | 0.0 | 0.00 | 0.03 | 0.01 | 68 | 1011.6 |
| 20260901173848 | 88 | 246 | 0.0 | 0.0 | 0.00 | 0.03 | 0.01 | 68 | 1011.6 |
| 20260901173638 | 88 | 162 | 0.0 | 0.0 | 0.00 | 0.03 | 0.01 | 68 | 1011.6 |
| 20260901173548 | 88 | 162 | 0.0 | 0.0 | 0.00 | 0.03 | 0.01 | 68 | 1011.6 |
| 20260901173537 | 88 | 155 | 0.0 | 0.0 | 0.00 | 0.03 | 0.01 | 68 | 1011.6 |
| 20260901173521 | 88 | 147 | 0.0 | 0.0 | 0.00 | 0.03 | 0.01 | 69 | 1011.6 |
| 20260901173437 | 88 | 146 | 0.0 | 0.0 | 0.00 | 0.03 | 0.01 | 67 | 1011.6 |
| 20260901173350 | 88 | 196 | 0.0 | 0.0 | 0.00 | 0.03 | 0.01 | 69 | 1011.6 |
| 20260901173345 | 88 | 175 | 0.0 | 0.0 | 0.00 | 0.03 | 0.01 | 69 | 1011.6 |
| 20260901173135 | 87 | 181 | 0.0 | 0.0 | 0.00 | 0.03 | 0.01 | 69 | 1011.6 |
| 20260901173057 | 87 | 219 | 0.0 | 0.0 | 0.00 | 0.03 | 0.01 | 68 | 1011.5 |
| 20260901173021 | 88 | 278 | 0.0 | 0.0 | 0.00 | 0.03 | 0.01 | 68 | 1011.6 |
| 20260901172943 | 87 | 185 | 0.0 | 0.0 | 0.00 | 0.03 | 0.01 | 68 | 1011.6 |
| 20260901172733 | 88 | 182 | 0.0 | 0.0 | 0.00 | 0.03 | 0.01 | 67 | 1011.6 |
| 20260901172632 | 88 | 180 | 0.0 | 0.0 | 0.00 | 0.03 | 0.01 | 68 | 1011.6 |
| 20260901172546 | 88 | 219 | 0.0 | 0.0 | 0.00 | 0.03 | 0.01 | 69 | 1011.6 |
| 20260901172532 | 88 | 219 | 0.0 | 0.0 | 0.00 | 0.03 | 0.01 | 69 | 1011.6 |
| 20260901172521 | 88 | 219 | 0.0 | 0.0 | 0.00 | 0.03 | 0.01 | 69 | 1011.6 |
| 20260901172444 | 87 | 261 | 0.0 | 0.0 | 0.00 | 0.03 | 0.01 | 70 | 1011.6 |
| 20260901172440 | 87 | 248 | 0.0 | 0.0 | 0.00 | 0.03 | 0.01 | 69 | 1011.6 |
| 20260901172231 | 87 | 230 | 0.0 | 0.0 | 0.00 | 0.03 | 0.01 | 69 | 1011.7 |
| 20260901172130 | 87 | 230 | 0.0 | 0.0 | 0.00 | 0.03 | 0.01 | 69 | 1011.7 |
| 20260901172046 | 87 | 240 | 0.0 | 0.0 | 0.00 | 0.03 | 0.01 | 70 | 1011.7 |
| 20260901172030 | 87 | 198 | 0.0 | 0.0 | 0.00 | 0.03 | 0.01 | 70 | 1011.7 |
| 20260901172021 | 87 | 198 | 0.0 | 0.0 | 0.00 | 0.03 | 0.01 | 69 | 1011.7 |
| 20260901171942 | 87 | 231 | 0.0 | 0.0 | 0.00 | 0.03 | 0.01 | 70 | 1011.8 |
| 20260901171938 | 87 | 180 | 0.0 | 0.0 | 0.00 | 0.03 | 0.01 | 69 | 1011.7 |
| 20260901171727 | 87 | 231 | 0.0 | 0.0 | 0.00 | 0.03 | 0.01 | 72 | 1011.9 |
| 20260901171645 | 87 | 210 | 0.0 | 0.0 | 0.00 | 0.03 | 0.01 | 70 | 1011.9 |
| 20260901171641 | 87 | 210 | 0.0 | 0.0 | 0.00 | 0.03 | 0.01 | 71 | 1011.9 |
| 20260901171632 | 87 | 212 | 0.0 | 0.0 | 0.00 | 0.03 | 0.01 | 70 | 1011.9 |
| 20260901171536 | 87 | 210 | 0.0 | 0.0 | 0.00 | 0.03 | 0.01 | 71 | 1011.9 |
| 20260901171426 | 87 | 211 | 0.0 | 0.0 | 0.00 | 0.03 | 0.01 | 71 | 1011.9 |
| 20260901171326 | 87 | 316 | 0.0 | 0.0 | 0.00 | 0.03 | 0.01 | 71 | 1012.0 |
| 20260901171224 | 87 | 208 | 0.0 | 0.0 | 0.00 | 0.03 | 0.01 | 73 | 1012.0 |
| 20260901171124 | 86 | 209 | 0.0 | 0.0 | 0.00 | 0.03 | 0.01 | 73 | 1012.0 |
| 20260901171045 | 86 | 262 | 0.0 | 0.0 | 0.00 | 0.03 | 0.01 | 73 | 1012.0 |
| 20260901171023 | 86 | 235 | 0.0 | 0.0 | 0.00 | 0.03 | 0.01 | 73 | 1012.0 |
| 20260901171021 | 86 | 235 | 0.0 | 0.0 | 0.00 | 0.03 | 0.01 | 73 | 1011.9 |
| 20260901170923 | 86 | 237 | 0.0 | 0.0 | 0.00 | 0.03 | 0.01 | 73 | 1012.0 |
| 20260901170823 | 86 | 221 | 0.0 | 0.0 | 0.00 | 0.03 | 0.01 | 73 | 1012.1 |
| 20260901170736 | 85 | 165 | 0.0 | 0.0 | 0.00 | 0.03 | 0.01 | 75 | 1012.1 |
| 20260901170732 | 85 | 220 | 0.0 | 0.0 | 0.00 | 0.03 | 0.01 | 76 | 1012.1 |
| 20260901170545 | 85 | 164 | 0.0 | 0.0 | 0.00 | 0.03 | 0.01 | 75 | 1012.0 |
| 20260901170522 | 85 | 164 | 0.0 | 0.0 | 0.00 | 0.03 | 0.01 | 76 | 1012.0 |
| 20260901170421 | 85 | 164 | 0.0 | 0.0 | 0.00 | 0.03 | 0.01 | 76 | 1012.1 |
| 20260901170404 | 85 | 158 | 0.0 | 0.0 | 0.00 | 0.03 | 0.01 | 76 | 1012.2 |
| 20260901170320 | 85 | 160 | 0.0 | 0.0 | 0.00 | 0.03 | 0.01 | 76 | 1012.1 |
| 20260901170256 | 85 | 159 | 0.0 | 0.0 | 0.00 | 0.03 | 0.01 | 75 | 1012.1 |
| 20260901170247 | 85 | 159 | 0.0 | 0.0 | 0.00 | 0.03 | 0.01 | 76 | 1012.2 |
| 20260901170028 | 85 | 190 | 0.0 | 0.0 | 0.00 | 0.03 | 0.01 | 76 | 1012.2 |
| 20260901170021 | 85 | 206 | 0.0 | 0.0 | 0.00 | 0.03 | 0.01 | 76 | 1012.1 |
| 20260901165818 | 84 | 128 | 0.0 | 0.0 | 0.00 | 0.03 | 0.01 | 77 | 1012.2 |
| 20260901165717 | 84 | 254 | 0.0 | 0.0 | 0.00 | 0.03 | 0.01 | 77 | 1012.1 |
| 20260901165617 | 84 | 257 | 0.0 | 0.0 | 0.00 | 0.03 | 0.01 | 79 | 1012.2 |
| 20260901165543 | 84 | 276 | 0.0 | 0.0 | 0.00 | 0.03 | 0.01 | 79 | 1012.2 |
| 20260901165521 | 84 | 196 | 0.0 | 0.0 | 0.00 | 0.03 | 0.01 | 79 | 1012.1 |
| 20260901165515 | 84 | 196 | 0.0 | 0.0 | 0.00 | 0.03 | 0.01 | 79 | 1012.2 |
| 20260901165416 | 84 | 196 | 0.0 | 0.0 | 0.00 | 0.03 | 0.01 | 79 | 1012.2 |
| 20260901165343 | 83 | 211 | 0.0 | 0.0 | 0.00 | 0.03 | 0.01 | 82 | 1012.1 |
| 20260901165313 | 84 | 192 | 0.0 | 0.0 | 0.00 | 0.03 | 0.01 | 80 | 1012.2 |
| 20260901165244 | 83 | 213 | 0.0 | 0.0 | 0.00 | 0.03 | 0.01 | 82 | 1012.1 |
| 20260901165239 | 83 | 211 | 0.0 | 0.0 | 0.00 | 0.03 | 0.01 | 81 | 1012.2 |
| 20260901165230 | 83 | 211 | 0.0 | 0.0 | 0.00 | 0.03 | 0.01 | 81 | 1012.1 |
| 20260901165021 | 83 | 213 | 0.0 | 0.0 | 0.00 | 0.03 | 0.01 | 82 | 1011.9 |
| 20260901165008 | 82 | 211 | 0.0 | 0.0 | 0.00 | 0.03 | 0.01 | 82 | 1011.8 |
| 20260901165002 | 83 | 212 | 0.0 | 0.0 | 0.00 | 0.03 | 0.01 | 82 | 1011.9 |
| 20260901164850 | 82 | 212 | 0.0 | 0.0 | 0.00 | 0.03 | 0.01 | 83 | 1011.8 |
| 20260901164844 | 83 | 211 | 0.0 | 0.0 | 0.00 | 0.03 | 0.01 | 82 | 1011.8 |
| 20260901164725 | 82 | 211 | 0.0 | 0.0 | 0.00 | 0.03 | 0.01 | 82 | 1011.7 |
| 20260901164521 | 82 | 213 | 0.0 | 0.0 | 0.00 | 0.03 | 0.01 | 83 | 1011.8 |
| 20260901164410 | 82 | 177 | 0.0 | 0.0 | 0.00 | 0.03 | 0.01 | 84 | 1011.8 |
| 20260901164309 | 81 | 157 | 0.0 | 0.0 | 0.00 | 0.03 | 0.01 | 85 | 1011.8 |
| 20260901164210 | 81 | 157 | 0.0 | 0.0 | 0.00 | 0.03 | 0.01 | 84 | 1011.8 |
| 20260901164109 | 81 | 157 | 0.0 | 0.0 | 0.00 | 0.03 | 0.01 | 85 | 1011.9 |
| 20260901164021 | 81 | 157 | 0.0 | 0.0 | 0.00 | 0.03 | 0.01 | 85 | 1011.9 |
| 20260901164009 | 81 | 157 | 0.0 | 0.0 | 0.00 | 0.03 | 0.01 | 85 | 1011.9 |
| 20260901163909 | 81 | 157 | 0.0 | 0.0 | 0.00 | 0.03 | 0.01 | 85 | 1011.9 |
| 20260901163807 | 80 | 160 | 0.0 | 0.0 | 0.00 | 0.03 | 0.01 | 85 | 1011.9 |
| 20260901163707 | 80 | 160 | 0.0 | 0.0 | 0.00 | 0.03 | 0.01 | 86 | 1011.9 |
| 20260901163607 | 80 | 159 | 0.0 | 0.0 | 0.00 | 0.03 | 0.01 | 86 | 1011.8 |
| 20260901163535 | 80 | 159 | 0.0 | 0.0 | 0.00 | 0.03 | 0.01 | 85 | 1011.7 |
| 20260901163521 | 80 | 159 | 0.0 | 0.0 | 0.00 | 0.03 | 0.01 | 85 | 1011.7 |
| 20260901163516 | 80 | 159 | 0.0 | 0.0 | 0.00 | 0.03 | 0.01 | 85 | 1011.7 |
| 20260901163306 | 80 | 157 | 0.0 | 0.0 | 0.00 | 0.03 | 0.01 | 86 | 1012.1 |
| 20260901163206 | 80 | 155 | 0.0 | 0.0 | 0.00 | 0.03 | 0.01 | 85 | 1012.2 |
| 20260901163105 | 80 | 155 | 0.0 | 0.0 | 0.00 | 0.03 | 0.01 | 86 | 1012.3 |
| 20260901163036 | 80 | 155 | 0.0 | 0.0 | 0.00 | 0.03 | 0.01 | 86 | 1012.4 |
| 20260901163034 | 80 | 155 | 0.0 | 0.0 | 0.00 | 0.03 | 0.01 | 86 | 1012.3 |
| 20260901163005 | 80 | 155 | 0.0 | 0.0 | 0.00 | 0.03 | 0.01 | 86 | 1012.4 |
| 20260901162905 | 80 | 159 | 0.0 | 0.0 | 0.00 | 0.03 | 0.01 | 85 | 1012.3 |
| 20260901162803 | 80 | 159 | 0.0 | 0.0 | 0.00 | 0.03 | 0.01 | 85 | 1012.5 |
| 20260901162717 | 80 | 159 | 0.0 | 0.0 | 0.00 | 0.03 | 0.01 | 84 | 1012.6 |
| 20260901162712 | 80 | 159 | 0.0 | 0.0 | 0.00 | 0.03 | 0.01 | 85 | 1012.5 |
| 20260901162533 | 80 | 159 | 0.0 | 0.0 | 0.00 | 0.03 | 0.01 | 84 | 1012.6 |
| 20260901162521 | 80 | 215 | 0.0 | 0.0 | 0.00 | 0.03 | 0.01 | 84 | 1012.7 |
| 20260901162502 | 80 | 215 | 0.0 | 0.0 | 0.00 | 0.03 | 0.01 | 84 | 1012.7 |
| 20260901162401 | 80 | 215 | 0.0 | 0.0 | 0.00 | 0.03 | 0.01 | 84 | 1012.7 |
| 20260901162301 | 80 | 225 | 0.0 | 0.0 | 0.00 | 0.03 | 0.01 | 84 | 1012.7 |
| 20260901162254 | 81 | 229 | 0.0 | 0.0 | 0.00 | 0.03 | 0.01 | 84 | 1012.8 |
| 20260901162159 | 81 | 229 | 0.0 | 0.0 | 0.00 | 0.03 | 0.01 | 84 | 1012.8 |
| 20260901162141 | 81 | 229 | 0.0 | 0.0 | 0.00 | 0.03 | 0.01 | 84 | 1012.8 |
| 20260901162021 | 81 | 229 | 0.0 | 0.0 | 0.00 | 0.03 | 0.01 | 84 | 1012.9 |
| 20260901161958 | 81 | 229 | 0.0 | 0.0 | 0.00 | 0.03 | 0.01 | 84 | 1012.9 |
| 20260901161911 | 81 | 229 | 0.0 | 0.0 | 0.00 | 0.03 | 0.01 | 84 | 1013.0 |
| 20260901161907 | 81 | 229 | 0.0 | 0.0 | 0.00 | 0.03 | 0.01 | 84 | 1013.0 |
| 20260901161656 | 81 | 229 | 0.0 | 0.0 | 0.00 | 0.03 | 0.01 | 84 | 1013.0 |
| 20260901161556 | 81 | 229 | 0.0 | 0.0 | 0.00 | 0.03 | 0.01 | 84 | 1013.1 |
| 20260901161534 | 81 | 229 | 0.0 | 0.0 | 0.00 | 0.03 | 0.01 | 84 | 1013.1 |
| 20260901161521 | 81 | 229 | 0.0 | 0.0 | 0.00 | 0.03 | 0.01 | 84 | 1013.1 |
| 20260901161507 | 81 | 229 | 0.0 | 0.0 | 0.00 | 0.03 | 0.01 | 84 | 1013.1 |
| 20260901161503 | 81 | 229 | 0.0 | 0.0 | 0.00 | 0.03 | 0.01 | 84 | 1013.1 |
| 20260901161253 | 81 | 229 | 0.0 | 0.0 | 0.00 | 0.03 | 0.01 | 84 | 1013.1 |
| 20260901161153 | 81 | 229 | 0.0 | 0.0 | 0.00 | 0.03 | 0.01 | 84 | 1013.1 |
| 20260901161051 | 81 | 229 | 0.0 | 0.0 | 0.00 | 0.03 | 0.01 | 84 | 1013.1 |
| 20260901161033 | 81 | 229 | 0.0 | 0.0 | 0.00 | 0.03 | 0.01 | 84 | 1013.1 |
| 20260901160952 | 81 | 229 | 0.0 | 0.0 | 0.00 | 0.03 | 0.01 | 84 | 1013.1 |
| 20260901160852 | 81 | 229 | 0.0 | 0.0 | 0.00 | 0.03 | 0.01 | 84 | 1013.1 |
| 20260901160757 | 81 | 229 | 0.0 | 0.0 | 0.00 | 0.03 | 0.01 | 83 | 1013.1 |
| 20260901160752 | 81 | 229 | 0.0 | 0.0 | 0.00 | 0.03 | 0.01 | 84 | 1013.1 |
| 20260901160652 | 81 | 229 | 0.0 | 0.0 | 0.00 | 0.03 | 0.01 | 84 | 1013.1 |
| 20260901160640 | 81 | 229 | 0.0 | 0.0 | 0.00 | 0.03 | 0.01 | 83 | 1013.1 |
| 20260901160522 | 81 | 229 | 0.0 | 0.0 | 0.00 | 0.03 | 0.01 | 83 | 1013.1 |
| 20260901160451 | 81 | 229 | 0.0 | 0.0 | 0.00 | 0.03 | 0.01 | 83 | 1013.1 |
| 20260901160351 | 81 | 229 | 0.0 | 0.0 | 0.00 | 0.03 | 0.01 | 83 | 1013.0 |
| 20260901160250 | 81 | 229 | 0.0 | 0.0 | 0.00 | 0.03 | 0.01 | 82 | 1012.9 |
| 20260901160149 | 81 | 229 | 0.0 | 0.0 | 0.00 | 0.03 | 0.01 | 82 | 1012.9 |
| 20260901160030 | 81 | 229 | 0.0 | 0.0 | 0.00 | 0.03 | 0.01 | 82 | 1012.9 |
| 20260901160021 | 81 | 229 | 0.0 | 0.0 | 0.00 | 0.03 | 0.01 | 82 | 1013.0 |
| 20260901155948 | 81 | 229 | 0.0 | 0.0 | 0.00 | 0.03 | 0.01 | 83 | 1013.0 |
| 20260901155847 | 81 | 229 | 0.0 | 0.0 | 0.00 | 0.03 | 0.01 | 83 | 1012.9 |
| 20260901155746 | 81 | 229 | 0.0 | 0.0 | 0.00 | 0.03 | 0.01 | 83 | 1012.8 |
| 20260901155646 | 81 | 229 | 0.0 | 0.0 | 0.00 | 0.03 | 0.01 | 83 | 1012.8 |
| 20260901155545 | 81 | 229 | 0.0 | 0.0 | 0.00 | 0.03 | 0.01 | 84 | 1012.7 |
| 20260901155528 | 81 | 229 | 0.0 | 0.0 | 0.00 | 0.03 | 0.01 | 83 | 1012.7 |
| 20260901155522 | 81 | 229 | 0.0 | 0.0 | 0.00 | 0.03 | 0.01 | 83 | 1012.6 |
| 20260901155458 | 81 | 229 | 0.0 | 0.0 | 0.00 | 0.03 | 0.01 | 83 | 1012.3 |
| 20260901155454 | 81 | 229 | 0.0 | 0.0 | 0.00 | 0.03 | 0.01 | 83 | 1012.6 |
| 20260901155243 | 81 | 229 | 0.0 | 0.0 | 0.00 | 0.03 | 0.01 | 82 | 1012.5 |
| 20260901155144 | 81 | 229 | 0.0 | 0.0 | 0.00 | 0.03 | 0.01 | 83 | 1012.5 |
| 20260901155043 | 81 | 229 | 0.0 | 0.0 | 0.00 | 0.03 | 0.01 | 83 | 1012.4 |
| 20260901155030 | 81 | 229 | 0.0 | 0.0 | 0.00 | 0.03 | 0.01 | 84 | 1012.4 |
| 20260901155021 | 81 | 231 | 0.0 | 0.0 | 0.00 | 0.03 | 0.01 | 84 | 1012.5 |
| 20260901154943 | 81 | 231 | 0.0 | 0.0 | 0.00 | 0.03 | 0.01 | 84 | 1012.5 |
| 20260901154842 | 81 | 231 | 0.0 | 0.0 | 0.00 | 0.03 | 0.01 | 83 | 1012.4 |
| 20260901154741 | 80 | 231 | 0.0 | 0.0 | 0.00 | 0.03 | 0.01 | 83 | 1012.7 |
| 20260901154640 | 80 | 231 | 0.0 | 0.0 | 0.00 | 0.03 | 0.01 | 84 | 1012.8 |
| 20260901154527 | 80 | 231 | 0.0 | 0.0 | 0.00 | 0.03 | 0.01 | 84 | 1012.8 |
| 20260901154521 | 80 | 231 | 0.0 | 0.0 | 0.00 | 0.03 | 0.01 | 84 | 1012.8 |
| 20260901154440 | 80 | 231 | 0.0 | 0.0 | 0.00 | 0.03 | 0.01 | 84 | 1012.8 |
| 20260901154339 | 80 | 231 | 0.0 | 0.0 | 0.00 | 0.03 | 0.01 | 84 | 1012.9 |
| 20260901154251 | 80 | 231 | 0.0 | 0.0 | 0.00 | 0.03 | 0.01 | 84 | 1013.0 |
| 20260901154239 | 80 | 231 | 0.0 | 0.0 | 0.00 | 0.03 | 0.01 | 84 | 1012.9 |
| 20260901154143 | 80 | 231 | 0.0 | 0.0 | 0.00 | 0.03 | 0.01 | 84 | 1012.9 |
| 20260901154134 | 80 | 231 | 0.0 | 0.0 | 0.00 | 0.03 | 0.01 | 84 | 1013.0 |
| 20260901154021 | 80 | 231 | 0.0 | 0.0 | 0.00 | 0.03 | 0.01 | 84 | 1013.0 |
| 20260901154008 | 80 | 231 | 0.0 | 0.0 | 0.00 | 0.03 | 0.01 | 83 | 1013.0 |
| 20260901154004 | 80 | 231 | 0.0 | 0.0 | 0.00 | 0.03 | 0.01 | 84 | 1013.0 |
| 20260901154000 | 80 | 231 | 0.0 | 0.0 | 0.00 | 0.03 | 0.01 | 84 | 1013.0 |
| 20260901153955 | 80 | 231 | 0.0 | 0.0 | 0.00 | 0.03 | 0.01 | 84 | 1013.0 |
| 20260901153642 | 80 | 231 | 0.0 | 0.0 | 0.00 | 0.03 | 0.01 | 84 | 1012.9 |
| 20260901153633 | 80 | 231 | 0.0 | 0.0 | 0.00 | 0.03 | 0.01 | 84 | 1013.0 |
| 20260901153521 | 80 | 231 | 0.0 | 0.0 | 0.00 | 0.03 | 0.01 | 84 | 1013.0 |
| 20260901153436 | 80 | 231 | 0.0 | 0.0 | 0.00 | 0.03 | 0.01 | 84 | 1013.0 |
| 20260901153334 | 80 | 231 | 0.0 | 0.0 | 0.00 | 0.03 | 0.01 | 84 | 1013.0 |
| 20260901153247 | 80 | 231 | 0.0 | 0.0 | 0.00 | 0.03 | 0.01 | 84 | 1013.0 |
| 20260901153243 | 80 | 231 | 0.0 | 0.0 | 0.00 | 0.03 | 0.01 | 84 | 1013.0 |
| 20260901153051 | 80 | 227 | 0.0 | 0.0 | 0.00 | 0.03 | 0.01 | 85 | 1013.1 |
| 20260901153039 | 80 | 227 | 0.0 | 0.0 | 0.00 | 0.03 | 0.01 | 84 | 1013.0 |
| 20260901153021 | 80 | 227 | 0.0 | 0.0 | 0.00 | 0.03 | 0.01 | 84 | 1013.1 |
| 20260901152843 | 80 | 227 | 0.0 | 0.0 | 0.00 | 0.03 | 0.01 | 84 | 1013.1 |
| 20260901152838 | 80 | 227 | 0.0 | 0.0 | 0.00 | 0.03 | 0.01 | 85 | 1013.1 |
| 20260901152629 | 80 | 227 | 0.0 | 0.0 | 0.00 | 0.03 | 0.01 | 84 | 1013.1 |
| 20260901152600 | 80 | 209 | 0.0 | 0.0 | 0.00 | 0.03 | 0.01 | 85 | 1013.1 |
| 20260901152556 | 80 | 209 | 0.0 | 0.0 | 0.00 | 0.03 | 0.01 | 85 | 1013.0 |
| 20260901152544 | 80 | 227 | 0.0 | 0.0 | 0.00 | 0.03 | 0.01 | 85 | 1013.1 |
| 20260901152521 | 80 | 211 | 0.0 | 0.0 | 0.00 | 0.03 | 0.01 | 85 | 1013.1 |
| 20260901152227 | 80 | 209 | 0.0 | 0.0 | 0.00 | 0.03 | 0.01 | 85 | 1013.0 |
| 20260901152127 | 80 | 209 | 0.0 | 0.0 | 0.00 | 0.03 | 0.01 | 84 | 1013.1 |
| 20260901152022 | 80 | 209 | 0.0 | 0.0 | 0.00 | 0.03 | 0.01 | 84 | 1013.1 |
| 20260901151926 | 80 | 209 | 0.0 | 0.0 | 0.00 | 0.03 | 0.01 | 84 | 1013.0 |
| 20260901151825 | 80 | 209 | 0.0 | 0.0 | 0.00 | 0.03 | 0.01 | 84 | 1013.1 |
| 20260901151725 | 80 | 209 | 0.0 | 0.0 | 0.00 | 0.03 | 0.01 | 84 | 1013.0 |
| 20260901151644 | 80 | 209 | 0.0 | 0.0 | 0.00 | 0.03 | 0.01 | 85 | 1013.1 |
| 20260901151638 | 80 | 209 | 0.0 | 0.0 | 0.00 | 0.03 | 0.01 | 85 | 1013.1 |
| 20260901151525 | 80 | 209 | 0.0 | 0.0 | 0.00 | 0.03 | 0.01 | 85 | 1013.1 |
| 20260901151521 | 80 | 209 | 0.0 | 0.0 | 0.00 | 0.03 | 0.01 | 85 | 1013.1 |
| 20260901151437 | 80 | 209 | 0.0 | 0.0 | 0.00 | 0.03 | 0.01 | 85 | 1013.1 |
| 20260901151433 | 80 | 209 | 0.0 | 0.0 | 0.00 | 0.03 | 0.01 | 85 | 1013.1 |
| 20260901151317 | 80 | 209 | 0.0 | 0.0 | 0.00 | 0.03 | 0.01 | 85 | 1013.0 |
| 20260901151311 | 80 | 209 | 0.0 | 0.0 | 0.00 | 0.03 | 0.01 | 85 | 1013.1 |
| 20260901151049 | 80 | 209 | 0.0 | 0.0 | 0.00 | 0.03 | 0.01 | 86 | 1013.0 |
| 20260901151044 | 80 | 209 | 0.0 | 0.0 | 0.00 | 0.03 | 0.01 | 85 | 1013.0 |
| 20260901151038 | 80 | 209 | 0.0 | 0.0 | 0.00 | 0.03 | 0.01 | 86 | 1013.0 |
| 20260901151021 | 80 | 209 | 0.0 | 0.0 | 0.00 | 0.03 | 0.01 | 86 | 1013.0 |
| 20260901150733 | 80 | 209 | 0.0 | 0.0 | 0.00 | 0.03 | 0.01 | 86 | 1013.0 |
| 20260901150728 | 80 | 209 | 0.0 | 0.0 | 0.00 | 0.03 | 0.01 | 86 | 1013.0 |
| 20260901150521 | 80 | 209 | 0.0 | 0.0 | 0.00 | 0.03 | 0.01 | 86 | 1013.1 |
| 20260901150519 | 80 | 209 | 0.0 | 0.0 | 0.00 | 0.03 | 0.01 | 86 | 1013.1 |
| 20260901150418 | 80 | 209 | 0.0 | 0.0 | 0.00 | 0.03 | 0.01 | 86 | 1013.1 |
| 20260901150318 | 79 | 209 | 0.0 | 0.0 | 0.00 | 0.03 | 0.01 | 85 | 1013.1 |
| 20260901150217 | 79 | 209 | 0.0 | 0.0 | 0.00 | 0.03 | 0.01 | 85 | 1013.1 |
| 20260901150145 | 79 | 209 | 0.0 | 0.0 | 0.00 | 0.03 | 0.01 | 85 | 1013.1 |
| 20260901150026 | 79 | 209 | 0.0 | 0.0 | 0.00 | 0.03 | 0.01 | 85 | 1013.1 |
| 20260901150022 | 79 | 209 | 0.0 | 0.0 | 0.00 | 0.03 | 0.01 | 85 | 1013.1 |
| 20260901145837 | 79 | 209 | 0.0 | 0.0 | 0.00 | 0.03 | 0.01 | 85 | 1013.1 |
| 20260901145723 | 79 | 209 | 0.0 | 0.0 | 0.00 | 0.03 | 0.01 | 85 | 1013.1 |
| 20260901145536 | 79 | 209 | 0.0 | 0.0 | 0.00 | 0.03 | 0.01 | 85 | 1013.1 |
| 20260901145514 | 79 | 209 | 0.0 | 0.0 | 0.00 | 0.03 | 0.01 | 85 | 1013.1 |
| 20260901145413 | 79 | 209 | 0.0 | 0.0 | 0.00 | 0.03 | 0.01 | 86 | 1013.1 |
| 20260901145313 | 79 | 209 | 0.0 | 0.0 | 0.00 | 0.03 | 0.01 | 86 | 1013.1 |
| 20260901145213 | 79 | 209 | 0.0 | 0.0 | 0.00 | 0.03 | 0.01 | 86 | 1013.1 |
| 20260901145112 | 79 | 209 | 0.0 | 0.0 | 0.00 | 0.03 | 0.01 | 86 | 1013.0 |
| 20260901145021 | 79 | 209 | 0.0 | 0.0 | 0.00 | 0.03 | 0.01 | 86 | 1013.0 |
| 20260901145017 | 79 | 209 | 0.0 | 0.0 | 0.00 | 0.03 | 0.01 | 86 | 1013.0 |
| 20260901145012 | 79 | 209 | 0.0 | 0.0 | 0.00 | 0.03 | 0.01 | 86 | 1013.0 |
| 20260901144924 | 79 | 209 | 0.0 | 0.0 | 0.00 | 0.03 | 0.01 | 87 | 1012.9 |
| 20260901144920 | 79 | 209 | 0.0 | 0.0 | 0.00 | 0.03 | 0.01 | 86 | 1013.0 |
| 20260901144710 | 79 | 211 | 0.0 | 0.0 | 0.00 | 0.03 | 0.01 | 87 | 1012.9 |
| 20260901144609 | 79 | 211 | 0.0 | 0.0 | 0.00 | 0.03 | 0.01 | 87 | 1012.8 |
| 20260901144521 | 79 | 211 | 0.0 | 0.0 | 0.00 | 0.03 | 0.01 | 87 | 1011.9 |
| 20260901144508 | 79 | 211 | 0.0 | 0.0 | 0.00 | 0.03 | 0.01 | 87 | 1012.6 |
| 20260901144408 | 79 | 211 | 0.0 | 0.0 | 0.00 | 0.03 | 0.01 | 87 | 1011.9 |
| 20260901144308 | 79 | 211 | 0.0 | 0.0 | 0.00 | 0.03 | 0.01 | 87 | 1011.8 |
| 20260901144220 | 78 | 213 | 0.0 | 0.0 | 0.00 | 0.03 | 0.01 | 88 | 1012.6 |
| 20260901144216 | 79 | 212 | 0.0 | 0.0 | 0.00 | 0.03 | 0.01 | 87 | 1012.2 |
| 20260901144021 | 79 | 212 | 0.0 | 0.0 | 0.00 | 0.03 | 0.01 | 88 | 1012.6 |
| 20260901144014 | 78 | 213 | 0.0 | 0.0 | 0.00 | 0.03 | 0.01 | 88 | 1012.6 |
| 20260901144006 | 78 | 212 | 0.0 | 0.0 | 0.00 | 0.03 | 0.01 | 88 | 1012.6 |
| 20260901143906 | 78 | 213 | 0.0 | 0.0 | 0.00 | 0.03 | 0.01 | 88 | 1012.6 |
| 20260901143805 | 78 | 212 | 0.0 | 0.0 | 0.00 | 0.03 | 0.01 | 88 | 1012.7 |
| 20260901143705 | 78 | 213 | 0.0 | 0.0 | 0.00 | 0.03 | 0.01 | 88 | 1012.8 |
| 20260901143605 | 78 | 213 | 0.0 | 0.0 | 0.00 | 0.03 | 0.01 | 88 | 1012.7 |
| 20260901143521 | 78 | 212 | 0.0 | 0.0 | 0.00 | 0.03 | 0.01 | 88 | 1012.4 |
| 20260901143512 | 78 | 213 | 0.0 | 0.0 | 0.00 | 0.03 | 0.01 | 88 | 1012.7 |
| 20260901143504 | 78 | 212 | 0.0 | 0.0 | 0.00 | 0.03 | 0.01 | 88 | 1012.4 |
| 20260901143408 | 78 | 212 | 0.0 | 0.0 | 0.00 | 0.03 | 0.01 | 88 | 1012.2 |
| 20260901143404 | 78 | 212 | 0.0 | 0.0 | 0.00 | 0.03 | 0.01 | 88 | 1012.4 |
| 20260901143357 | 78 | 222 | 0.0 | 0.0 | 0.00 | 0.03 | 0.01 | 88 | 1012.2 |
| 20260901143351 | 78 | 213 | 0.0 | 0.0 | 0.00 | 0.03 | 0.01 | 88 | 1012.1 |
| 20260901143051 | 78 | 227 | 0.0 | 0.0 | 0.00 | 0.03 | 0.01 | 88 | 1012.5 |
| 20260901143017 | 78 | 227 | 0.0 | 0.0 | 0.00 | 0.03 | 0.01 | 88 | 1012.2 |
| 20260901143011 | 78 | 227 | 0.0 | 0.0 | 0.00 | 0.03 | 0.01 | 88 | 1012.5 |
| 20260901142801 | 78 | 227 | 0.0 | 0.0 | 0.00 | 0.03 | 0.01 | 88 | 1012.6 |
| 20260901142700 | 78 | 227 | 0.0 | 0.0 | 0.00 | 0.03 | 0.01 | 89 | 1012.6 |
| 20260901142600 | 78 | 227 | 0.0 | 0.0 | 0.00 | 0.03 | 0.01 | 89 | 1012.6 |
| 20260901142521 | 78 | 227 | 0.0 | 0.0 | 0.00 | 0.03 | 0.01 | 89 | 1012.8 |
| 20260901142508 | 78 | 227 | 0.0 | 0.0 | 0.00 | 0.03 | 0.01 | 89 | 1012.6 |
| 20260901142500 | 78 | 227 | 0.0 | 0.0 | 0.00 | 0.03 | 0.01 | 89 | 1012.8 |
| 20260901142359 | 78 | 227 | 0.0 | 0.0 | 0.00 | 0.03 | 0.01 | 89 | 1012.9 |
| 20260901142259 | 78 | 227 | 0.0 | 0.0 | 0.00 | 0.03 | 0.01 | 89 | 1013.0 |
| 20260901142158 | 78 | 227 | 0.0 | 0.0 | 0.00 | 0.03 | 0.01 | 89 | 1013.0 |
| 20260901142057 | 78 | 227 | 0.0 | 0.0 | 0.00 | 0.03 | 0.01 | 90 | 1013.0 |
| 20260901142036 | 78 | 227 | 0.0 | 0.0 | 0.00 | 0.03 | 0.01 | 90 | 1013.0 |
| 20260901142008 | 78 | 227 | 0.0 | 0.0 | 0.00 | 0.03 | 0.01 | 90 | 1013.0 |
| 20260901141958 | 78 | 227 | 0.0 | 0.0 | 0.00 | 0.03 | 0.01 | 90 | 1013.0 |
| 20260901141910 | 77 | 227 | 0.0 | 0.0 | 0.00 | 0.03 | 0.01 | 89 | 1013.0 |
| 20260901141906 | 77 | 227 | 0.0 | 0.0 | 0.00 | 0.03 | 0.01 | 90 | 1013.0 |
| 20260901141656 | 77 | 227 | 0.0 | 0.0 | 0.00 | 0.03 | 0.01 | 89 | 1013.1 |
| 20260901141555 | 77 | 227 | 0.0 | 0.0 | 0.00 | 0.03 | 0.01 | 90 | 1013.0 |
| 20260901141521 | 77 | 227 | 0.0 | 0.0 | 0.00 | 0.03 | 0.01 | 90 | 1013.0 |
| 20260901141508 | 77 | 227 | 0.0 | 0.0 | 0.00 | 0.03 | 0.01 | 90 | 1013.0 |
| 20260901141454 | 77 | 227 | 0.0 | 0.0 | 0.00 | 0.03 | 0.01 | 90 | 1013.0 |
| 20260901141354 | 77 | 227 | 0.0 | 0.0 | 0.00 | 0.03 | 0.01 | 90 | 1013.1 |
| 20260901141254 | 77 | 227 | 0.0 | 0.0 | 0.00 | 0.03 | 0.01 | 90 | 1013.1 |
| 20260901141153 | 77 | 227 | 0.0 | 0.0 | 0.00 | 0.03 | 0.01 | 91 | 1013.1 |
| 20260901141053 | 77 | 227 | 0.0 | 0.0 | 0.00 | 0.03 | 0.01 | 91 | 1013.0 |
| 20260901141021 | 77 | 227 | 0.0 | 0.0 | 0.00 | 0.03 | 0.01 | 91 | 1013.0 |
| 20260901141006 | 77 | 227 | 0.0 | 0.0 | 0.00 | 0.03 | 0.01 | 91 | 1013.0 |
| 20260901140952 | 77 | 227 | 0.0 | 0.0 | 0.00 | 0.03 | 0.01 | 91 | 1013.0 |
| 20260901140851 | 77 | 227 | 0.0 | 0.0 | 0.00 | 0.03 | 0.01 | 92 | 1013.0 |
| 20260901140836 | 77 | 226 | 0.0 | 0.0 | 0.00 | 0.03 | 0.01 | 92 | 1012.9 |
| 20260901140651 | 77 | 226 | 0.0 | 0.0 | 0.00 | 0.03 | 0.01 | 92 | 1012.8 |
| 20260901140615 | 77 | 226 | 0.0 | 0.0 | 0.00 | 0.03 | 0.01 | 92 | 1012.8 |
| 20260901140521 | 77 | 226 | 0.0 | 0.0 | 0.00 | 0.03 | 0.01 | 92 | 1012.8 |
| 20260901140450 | 77 | 226 | 0.0 | 0.0 | 0.00 | 0.03 | 0.01 | 92 | 1012.8 |
| 20260901140350 | 77 | 226 | 0.0 | 0.0 | 0.00 | 0.03 | 0.01 | 92 | 1012.8 |
| 20260901140322 | 77 | 223 | 0.0 | 0.0 | 0.00 | 0.03 | 0.01 | 94 | 1012.8 |
| 20260901140248 | 77 | 226 | 0.0 | 0.0 | 0.00 | 0.03 | 0.01 | 93 | 1012.8 |
| 20260901140229 | 77 | 223 | 0.0 | 0.0 | 0.00 | 0.03 | 0.01 | 94 | 1012.8 |
| 20260901140225 | 76 | 250 | 0.0 | 0.0 | 0.00 | 0.03 | 0.01 | 94 | 1012.7 |
| 20260901140219 | 77 | 223 | 0.0 | 0.0 | 0.00 | 0.03 | 0.01 | 93 | 1012.6 |
| 20260901140210 | 77 | 223 | 0.0 | 0.0 | 0.00 | 0.03 | 0.01 | 93 | 1012.7 |
| 20260901140021 | 77 | 223 | 0.0 | 0.0 | 0.00 | 0.03 | 0.01 | 94 | 1012.9 |
| 20260901135747 | 76 | 250 | 0.0 | 0.0 | 0.00 | 0.03 | 0.01 | 94 | 1010.6 |
| 20260901135646 | 76 | 250 | 0.0 | 0.0 | 0.00 | 0.03 | 0.01 | 94 | 1010.6 |
| 20260901135545 | 76 | 249 | 0.0 | 0.0 | 0.00 | 0.03 | 0.01 | 95 | 1010.8 |
| 20260901135521 | 76 | 249 | 0.0 | 0.0 | 0.00 | 0.03 | 0.01 | 95 | 1011.7 |
| 20260901135505 | 76 | 249 | 0.0 | 0.0 | 0.00 | 0.03 | 0.01 | 95 | 1011.8 |
| 20260901135445 | 76 | 249 | 0.0 | 0.0 | 0.00 | 0.03 | 0.01 | 95 | 1011.7 |
| 20260901135344 | 76 | 249 | 0.0 | 0.0 | 0.00 | 0.03 | 0.01 | 95 | 1011.7 |
| 20260901135310 | 76 | 260 | 0.0 | 0.0 | 0.00 | 0.03 | 0.01 | 95 | 1011.0 |
| 20260901135306 | 76 | 260 | 0.0 | 0.0 | 0.00 | 0.03 | 0.01 | 95 | 1010.9 |
| 20260901135021 | 76 | 260 | 0.0 | 0.0 | 0.00 | 0.03 | 0.01 | 95 | 1012.4 |
| 20260901135005 | 76 | 260 | 0.0 | 0.0 | 0.00 | 0.03 | 0.01 | 95 | 1012.4 |
| 20260901134955 | 76 | 260 | 0.0 | 0.0 | 0.00 | 0.03 | 0.01 | 95 | 1012.4 |
| 20260901134951 | 76 | 260 | 0.0 | 0.0 | 0.00 | 0.03 | 0.01 | 95 | 1012.4 |
| 20260901134753 | 76 | 260 | 0.0 | 0.0 | 0.00 | 0.03 | 0.01 | 95 | 1012.7 |
| 20260901134749 | 76 | 260 | 0.0 | 0.0 | 0.00 | 0.03 | 0.01 | 95 | 1012.5 |
| 20260901134538 | 75 | 255 | 0.0 | 0.0 | 0.00 | 0.03 | 0.01 | 95 | 1012.8 |
| 20260901134521 | 75 | 255 | 0.0 | 0.0 | 0.00 | 0.03 | 0.01 | 95 | 1013.0 |
| 20260901134511 | 75 | 257 | 0.0 | 0.0 | 0.00 | 0.03 | 0.01 | 95 | 1013.0 |
| 20260901134507 | 75 | 255 | 0.0 | 0.0 | 0.00 | 0.03 | 0.01 | 95 | 1013.0 |
| 20260901134502 | 75 | 257 | 0.0 | 0.0 | 0.00 | 0.03 | 0.01 | 95 | 1013.0 |
| 20260901134456 | 75 | 255 | 0.0 | 0.0 | 0.00 | 0.03 | 0.01 | 95 | 1013.0 |
| 20260901134137 | 75 | 257 | 0.0 | 0.0 | 0.00 | 0.03 | 0.01 | 95 | 1013.0 |
| 20260901134057 | 75 | 257 | 0.0 | 0.0 | 0.00 | 0.03 | 0.01 | 95 | 1013.1 |
| 20260901134052 | 75 | 257 | 0.0 | 0.0 | 0.00 | 0.03 | 0.01 | 95 | 1013.2 |
| 20260901134044 | 75 | 257 | 0.0 | 0.0 | 0.00 | 0.03 | 0.01 | 95 | 1013.1 |
| 20260901134021 | 75 | 257 | 0.0 | 0.0 | 0.00 | 0.03 | 0.01 | 95 | 1013.1 |
| 20260901133843 | 75 | 256 | 0.0 | 0.0 | 0.00 | 0.03 | 0.01 | 96 | 1013.1 |
| 20260901133834 | 75 | 256 | 0.0 | 0.0 | 0.00 | 0.03 | 0.01 | 96 | 1013.0 |
| 20260901133635 | 75 | 255 | 0.0 | 0.0 | 0.00 | 0.03 | 0.01 | 96 | 1012.7 |
| 20260901133612 | 75 | 261 | 0.0 | 0.0 | 0.00 | 0.03 | 0.01 | 96 | 1012.6 |
| 20260901133536 | 75 | 261 | 0.0 | 0.0 | 0.00 | 0.03 | 0.01 | 96 | 1012.4 |
| 20260901133432 | 75 | 261 | 0.0 | 0.0 | 0.00 | 0.03 | 0.01 | 96 | 1012.4 |
| 20260901133344 | 75 | 261 | 0.0 | 0.0 | 0.00 | 0.03 | 0.01 | 96 | 1012.4 |
| 20260901133231 | 75 | 261 | 0.0 | 0.0 | 0.00 | 0.03 | 0.01 | 96 | 1012.8 |
| 20260901133131 | 75 | 261 | 0.0 | 0.0 | 0.00 | 0.03 | 0.01 | 96 | 1012.9 |
| 20260901133111 | 75 | 261 | 0.0 | 0.0 | 0.00 | 0.03 | 0.01 | 96 | 1013.0 |
| 20260901133021 | 75 | 261 | 0.0 | 0.0 | 0.00 | 0.03 | 0.01 | 96 | 1013.1 |
| 20260901132930 | 75 | 261 | 0.0 | 0.0 | 0.00 | 0.03 | 0.01 | 96 | 1013.1 |
| 20260901132830 | 75 | 261 | 0.0 | 0.0 | 0.00 | 0.03 | 0.01 | 96 | 1013.1 |
| 20260901132729 | 75 | 261 | 0.0 | 0.0 | 0.00 | 0.03 | 0.01 | 96 | 1013.2 |
| 20260901132628 | 75 | 261 | 0.0 | 0.0 | 0.00 | 0.03 | 0.01 | 96 | 1013.1 |
| 20260901132527 | 75 | 261 | 0.0 | 0.0 | 0.00 | 0.03 | 0.01 | 96 | 1013.1 |
| 20260901132521 | 75 | 261 | 0.0 | 0.0 | 0.00 | 0.03 | 0.01 | 96 | 1013.2 |
| 20260901132503 | 75 | 261 | 0.0 | 0.0 | 0.00 | 0.03 | 0.01 | 96 | 1013.2 |
| 20260901132427 | 75 | 261 | 0.0 | 0.0 | 0.00 | 0.03 | 0.01 | 96 | 1013.2 |
| 20260901132327 | 75 | 261 | 0.0 | 0.0 | 0.00 | 0.03 | 0.01 | 96 | 1013.3 |
| 20260901132226 | 75 | 261 | 0.0 | 0.0 | 0.00 | 0.03 | 0.01 | 96 | 1013.2 |
| 20260901132126 | 75 | 261 | 0.0 | 0.0 | 0.00 | 0.03 | 0.01 | 96 | 1013.2 |
| 20260901132021 | 75 | 261 | 0.0 | 0.0 | 0.00 | 0.03 | 0.01 | 96 | 1013.2 |
| 20260901132002 | 75 | 261 | 0.0 | 0.0 | 0.00 | 0.03 | 0.01 | 96 | 1013.2 |
| 20260901131925 | 75 | 261 | 0.0 | 0.0 | 0.00 | 0.03 | 0.01 | 96 | 1013.2 |
| 20260901131823 | 75 | 261 | 0.0 | 0.0 | 0.00 | 0.03 | 0.01 | 96 | 1013.1 |
| 20260901131723 | 75 | 261 | 0.0 | 0.0 | 0.00 | 0.03 | 0.01 | 96 | 1013.2 |
| 20260901131623 | 75 | 261 | 0.0 | 0.0 | 0.00 | 0.03 | 0.01 | 97 | 1013.2 |
| 20260901131521 | 75 | 261 | 0.0 | 0.0 | 0.00 | 0.03 | 0.01 | 97 | 1013.3 |
| 20260901131503 | 75 | 261 | 0.0 | 0.0 | 0.00 | 0.03 | 0.01 | 97 | 1013.3 |
| 20260901131436 | 75 | 261 | 0.0 | 0.0 | 0.00 | 0.03 | 0.01 | 97 | 1013.2 |
| 20260901131430 | 75 | 261 | 0.0 | 0.0 | 0.00 | 0.03 | 0.01 | 97 | 1013.3 |
| 20260901131242 | 75 | 261 | 0.0 | 0.0 | 0.00 | 0.03 | 0.01 | 97 | 1013.2 |
| 20260901131129 | 75 | 261 | 0.0 | 0.0 | 0.00 | 0.03 | 0.01 | 97 | 1013.2 |
| 20260901131021 | 75 | 261 | 0.0 | 0.0 | 0.00 | 0.03 | 0.01 | 97 | 1013.2 |
| 20260901131001 | 75 | 261 | 0.0 | 0.0 | 0.00 | 0.03 | 0.01 | 97 | 1013.2 |
| 20260901130919 | 75 | 261 | 0.0 | 0.0 | 0.00 | 0.03 | 0.01 | 97 | 1013.2 |
| 20260901130817 | 75 | 261 | 0.0 | 0.0 | 0.00 | 0.03 | 0.01 | 97 | 1013.2 |
| 20260901130716 | 75 | 261 | 0.0 | 0.0 | 0.00 | 0.03 | 0.01 | 97 | 1013.1 |
| 20260901130615 | 75 | 261 | 0.0 | 0.0 | 0.00 | 0.03 | 0.01 | 97 | 1013.0 |
| 20260901130521 | 75 | 261 | 0.0 | 0.0 | 0.00 | 0.03 | 0.01 | 97 | 1013.1 |
| 20260901130515 | 75 | 261 | 0.0 | 0.0 | 0.00 | 0.03 | 0.01 | 97 | 1013.0 |
| 20260901130502 | 75 | 261 | 0.0 | 0.0 | 0.00 | 0.03 | 0.01 | 97 | 1013.1 |
| 20260901130429 | 74 | 261 | 0.0 | 0.0 | 0.00 | 0.03 | 0.01 | 97 | 1013.1 |
| 20260901130423 | 74 | 261 | 0.0 | 0.0 | 0.00 | 0.03 | 0.01 | 97 | 1013.1 |
| 20260901130234 | 74 | 261 | 0.0 | 0.0 | 0.00 | 0.03 | 0.01 | 97 | 1013.2 |
| 20260901130230 | 74 | 261 | 0.0 | 0.0 | 0.00 | 0.03 | 0.01 | 97 | 1013.3 |
| 20260901130224 | 74 | 261 | 0.0 | 0.0 | 0.00 | 0.03 | 0.01 | 97 | 1013.2 |
| 20260901130106 | 74 | 261 | 0.0 | 0.0 | 0.00 | 0.03 | 0.01 | 97 | 1013.3 |
| 20260901130021 | 74 | 261 | 0.0 | 0.0 | 0.00 | 0.03 | 0.01 | 97 | 1013.3 |
| 20260901125913 | 74 | 261 | 0.0 | 0.0 | 0.00 | 0.03 | 0.01 | 97 | 1013.3 |
| 20260901125825 | 74 | 261 | 0.0 | 0.0 | 0.00 | 0.03 | 0.01 | 97 | 1013.4 |
| 20260901125820 | 74 | 261 | 0.0 | 0.0 | 0.00 | 0.03 | 0.01 | 97 | 1013.4 |
| 20260901125610 | 74 | 261 | 0.0 | 0.0 | 0.00 | 0.03 | 0.01 | 97 | 1013.4 |
| 20260901125521 | 74 | 261 | 0.0 | 0.0 | 0.00 | 0.03 | 0.01 | 97 | 1013.4 |
| 20260901125509 | 74 | 261 | 0.0 | 0.0 | 0.00 | 0.03 | 0.01 | 97 | 1013.4 |
| 20260901125459 | 74 | 261 | 0.0 | 0.0 | 0.00 | 0.03 | 0.01 | 97 | 1013.4 |
| 20260901125408 | 74 | 261 | 0.0 | 0.0 | 0.00 | 0.03 | 0.01 | 97 | 1013.4 |
| 20260901125309 | 74 | 261 | 0.0 | 0.0 | 0.00 | 0.03 | 0.01 | 97 | 1013.4 |
| 20260901125208 | 74 | 261 | 0.0 | 0.0 | 0.00 | 0.03 | 0.01 | 97 | 1013.5 |
| 20260901125107 | 74 | 261 | 0.0 | 0.0 | 0.00 | 0.03 | 0.01 | 97 | 1013.4 |
| 20260901125021 | 74 | 261 | 0.0 | 0.0 | 0.00 | 0.03 | 0.01 | 97 | 1013.5 |
| 20260901125008 | 74 | 261 | 0.0 | 0.0 | 0.00 | 0.03 | 0.01 | 97 | 1013.5 |
| 20260901125001 | 74 | 261 | 0.0 | 0.0 | 0.00 | 0.03 | 0.01 | 97 | 1013.4 |
| 20260901124957 | 74 | 261 | 0.0 | 0.0 | 0.00 | 0.03 | 0.01 | 97 | 1013.5 |
| 20260901124951 | 74 | 261 | 0.0 | 0.0 | 0.00 | 0.03 | 0.01 | 97 | 1013.4 |
| 20260901124944 | 74 | 261 | 0.0 | 0.0 | 0.00 | 0.03 | 0.01 | 97 | 1013.5 |
| 20260901124605 | 74 | 261 | 0.0 | 0.0 | 0.00 | 0.03 | 0.01 | 97 | 1013.3 |
| 20260901124524 | 74 | 261 | 0.0 | 0.0 | 0.00 | 0.03 | 0.01 | 97 | 1013.3 |
| 20260901124522 | 74 | 261 | 0.0 | 0.0 | 0.00 | 0.03 | 0.01 | 97 | 1013.3 |
| 20260901124519 | 74 | 261 | 0.0 | 0.0 | 0.00 | 0.03 | 0.01 | 97 | 1013.3 |
| 20260901124512 | 74 | 261 | 0.0 | 0.0 | 0.00 | 0.03 | 0.01 | 97 | 1013.3 |
| 20260901124304 | 74 | 261 | 0.0 | 0.0 | 0.00 | 0.03 | 0.01 | 97 | 1013.3 |
| 20260901124209 | 74 | 261 | 0.0 | 0.0 | 0.00 | 0.03 | 0.01 | 97 | 1013.2 |
| 20260901124205 | 74 | 261 | 0.0 | 0.0 | 0.00 | 0.03 | 0.01 | 97 | 1013.3 |
| 20260901124158 | 74 | 261 | 0.0 | 0.0 | 0.00 | 0.03 | 0.01 | 97 | 1013.1 |
| 20260901124151 | 74 | 261 | 0.0 | 0.0 | 0.00 | 0.03 | 0.01 | 97 | 1013.2 |
| 20260901124051 | 74 | 261 | 0.0 | 0.0 | 0.00 | 0.03 | 0.01 | 97 | 1013.2 |
| 20260901124035 | 74 | 261 | 0.0 | 0.0 | 0.00 | 0.03 | 0.01 | 97 | 1013.2 |
| 20260901123924 | 74 | 261 | 0.0 | 0.0 | 0.00 | 0.03 | 0.01 | 98 | 1012.8 |
| 20260901123919 | 74 | 261 | 0.0 | 0.0 | 0.00 | 0.03 | 0.01 | 97 | 1013.1 |
| 20260901123612 | 74 | 261 | 0.0 | 0.0 | 0.00 | 0.03 | 0.01 | 97 | 1012.9 |
| 20260901123603 | 74 | 261 | 0.0 | 0.0 | 0.00 | 0.03 | 0.01 | 98 | 1012.8 |
| 20260901123521 | 74 | 261 | 0.0 | 0.0 | 0.00 | 0.03 | 0.01 | 98 | 1012.8 |
| 20260901123426 | 74 | 261 | 0.0 | 0.0 | 0.00 | 0.03 | 0.01 | 97 | 1012.8 |
| 20260901123421 | 74 | 261 | 0.0 | 0.0 | 0.00 | 0.03 | 0.01 | 97 | 1012.8 |
| 20260901123416 | 74 | 261 | 0.0 | 0.0 | 0.00 | 0.03 | 0.01 | 98 | 1012.7 |
| 20260901123114 | 73 | 261 | 0.0 | 0.0 | 0.00 | 0.03 | 0.01 | 97 | 1013.0 |
| 20260901123108 | 74 | 261 | 0.0 | 0.0 | 0.00 | 0.03 | 0.01 | 97 | 1012.9 |
| 20260901123021 | 73 | 261 | 0.0 | 0.0 | 0.00 | 0.03 | 0.01 | 97 | 1013.0 |
| 20260901122952 | 73 | 261 | 0.0 | 0.0 | 0.00 | 0.03 | 0.01 | 97 | 1013.0 |
| 20260901122857 | 73 | 261 | 0.0 | 0.0 | 0.00 | 0.03 | 0.01 | 97 | 1013.0 |
| 20260901122756 | 73 | 261 | 0.0 | 0.0 | 0.00 | 0.03 | 0.01 | 97 | 1013.1 |
| 20260901122655 | 73 | 261 | 0.0 | 0.0 | 0.00 | 0.03 | 0.01 | 97 | 1013.1 |
| 20260901122554 | 73 | 261 | 0.0 | 0.0 | 0.00 | 0.03 | 0.01 | 97 | 1013.0 |
| 20260901122521 | 73 | 261 | 0.0 | 0.0 | 0.00 | 0.03 | 0.01 | 97 | 1013.1 |
| 20260901122450 | 73 | 261 | 0.0 | 0.0 | 0.00 | 0.03 | 0.01 | 97 | 1013.1 |
| 20260901122353 | 73 | 261 | 0.0 | 0.0 | 0.00 | 0.03 | 0.01 | 97 | 1013.1 |
| 20260901122252 | 73 | 261 | 0.0 | 0.0 | 0.00 | 0.03 | 0.01 | 97 | 1013.1 |
| 20260901122222 | 73 | 261 | 0.0 | 0.0 | 0.00 | 0.03 | 0.01 | 97 | 1013.0 |
| 20260901122108 | 73 | 261 | 0.0 | 0.0 | 0.00 | 0.03 | 0.01 | 97 | 1012.9 |
| 20260901122059 | 72 | 261 | 0.0 | 0.0 | 0.00 | 0.03 | 0.01 | 97 | 1012.9 |
| 20260901122036 | 72 | 261 | 0.0 | 0.0 | 0.00 | 0.03 | 0.01 | 97 | 1012.9 |
| 20260901121947 | 72 | 261 | 0.0 | 0.0 | 0.00 | 0.03 | 0.01 | 97 | 1012.8 |
| 20260901121940 | 72 | 261 | 0.0 | 0.0 | 0.00 | 0.03 | 0.01 | 97 | 1012.9 |
| 20260901121828 | 72 | 261 | 0.0 | 0.0 | 0.00 | 0.03 | 0.01 | 97 | 1012.9 |
| 20260901121823 | 72 | 261 | 0.0 | 0.0 | 0.00 | 0.03 | 0.01 | 97 | 1012.9 |
| 20260901121522 | 72 | 261 | 0.0 | 0.0 | 0.00 | 0.03 | 0.01 | 97 | 1012.9 |
| 20260901121450 | 72 | 261 | 0.0 | 0.0 | 0.00 | 0.03 | 0.01 | 97 | 1012.9 |
| 20260901121348 | 71 | 261 | 0.0 | 0.0 | 0.00 | 0.03 | 0.01 | 97 | 1013.1 |
| 20260901121248 | 71 | 261 | 0.0 | 0.0 | 0.00 | 0.03 | 0.01 | 97 | 1013.1 |
| 20260901121146 | 71 | 261 | 0.0 | 0.0 | 0.00 | 0.03 | 0.01 | 97 | 1013.1 |
| 20260901121100 | 71 | 261 | 0.0 | 0.0 | 0.00 | 0.03 | 0.01 | 97 | 1013.2 |
| 20260901121051 | 71 | 261 | 0.0 | 0.0 | 0.00 | 0.03 | 0.01 | 97 | 1013.2 |
| 20260901121022 | 71 | 261 | 0.0 | 0.0 | 0.00 | 0.03 | 0.01 | 97 | 1013.2 |
| 20260901120845 | 71 | 261 | 0.0 | 0.0 | 0.00 | 0.03 | 0.01 | 97 | 1013.2 |
| 20260901120744 | 71 | 261 | 0.0 | 0.0 | 0.00 | 0.03 | 0.01 | 97 | 1013.2 |
| 20260901120644 | 71 | 261 | 0.0 | 0.0 | 0.00 | 0.03 | 0.01 | 97 | 1013.2 |
| 20260901120544 | 71 | 261 | 0.0 | 0.0 | 0.00 | 0.03 | 0.01 | 97 | 1013.1 |
| 20260901120521 | 71 | 261 | 0.0 | 0.0 | 0.00 | 0.03 | 0.01 | 97 | 1013.1 |
| 20260901120444 | 71 | 261 | 0.0 | 0.0 | 0.00 | 0.03 | 0.01 | 97 | 1013.1 |
| 20260901120343 | 71 | 261 | 0.0 | 0.0 | 0.00 | 0.03 | 0.01 | 97 | 1013.2 |
| 20260901120243 | 71 | 261 | 0.0 | 0.0 | 0.00 | 0.03 | 0.01 | 97 | 1013.1 |
| 20260901120143 | 71 | 261 | 0.0 | 0.0 | 0.00 | 0.03 | 0.01 | 97 | 1013.1 |
| 20260901120042 | 71 | 261 | 0.0 | 0.0 | 0.00 | 0.03 | 0.01 | 97 | 1013.2 |
| 20260901120021 | 71 | 261 | 0.0 | 0.0 | 0.00 | 0.03 | 0.01 | 97 | 1013.2 |
| 20260901115946 | 71 | 261 | 0.0 | 0.0 | 0.00 | 0.03 | 0.01 | 97 | 1013.2 |
| 20260901115939 | 71 | 261 | 0.0 | 0.0 | 0.00 | 0.03 | 0.01 | 97 | 1013.1 |
| 20260901115840 | 71 | 261 | 0.0 | 0.0 | 0.00 | 0.03 | 0.01 | 97 | 1013.1 |
| 20260901115739 | 71 | 261 | 0.0 | 0.0 | 0.00 | 0.03 | 0.01 | 97 | 1012.9 |
| 20260901115638 | 71 | 261 | 0.0 | 0.0 | 0.00 | 0.03 | 0.01 | 97 | 1012.9 |
| 20260901115538 | 71 | 261 | 0.0 | 0.0 | 0.00 | 0.03 | 0.01 | 97 | 1013.0 |
| 20260901115521 | 71 | 261 | 0.0 | 0.0 | 0.00 | 0.03 | 0.01 | 97 | 1013.1 |
| 20260901115436 | 70 | 261 | 0.0 | 0.0 | 0.00 | 0.03 | 0.01 | 97 | 1013.0 |
| 20260901115335 | 70 | 261 | 0.0 | 0.0 | 0.00 | 0.03 | 0.01 | 97 | 1013.0 |
| 20260901115233 | 70 | 261 | 0.0 | 0.0 | 0.00 | 0.03 | 0.01 | 97 | 1013.0 |
| 20260901115133 | 70 | 261 | 0.0 | 0.0 | 0.00 | 0.03 | 0.01 | 97 | 1013.0 |
| 20260901115036 | 70 | 261 | 0.0 | 0.0 | 0.00 | 0.03 | 0.01 | 97 | 1013.3 |
| 20260901115033 | 70 | 261 | 0.0 | 0.0 | 0.00 | 0.03 | 0.01 | 97 | 1013.1 |
| 20260901114931 | 70 | 261 | 0.0 | 0.0 | 0.00 | 0.03 | 0.01 | 97 | 1013.2 |
| 20260901114831 | 70 | 261 | 0.0 | 0.0 | 0.00 | 0.03 | 0.01 | 97 | 1013.1 |
| 20260901114751 | 70 | 261 | 0.0 | 0.0 | 0.00 | 0.03 | 0.01 | 97 | 1013.1 |
| 20260901114638 | 70 | 261 | 0.0 | 0.0 | 0.00 | 0.03 | 0.01 | 97 | 1013.2 |
| 20260901114521 | 70 | 261 | 0.0 | 0.0 | 0.00 | 0.03 | 0.01 | 97 | 1013.3 |
| 20260901114428 | 70 | 261 | 0.0 | 0.0 | 0.00 | 0.03 | 0.01 | 97 | 1013.2 |
| 20260901114341 | 70 | 261 | 0.0 | 0.0 | 0.00 | 0.03 | 0.01 | 97 | 1013.3 |
| 20260901114337 | 70 | 261 | 0.0 | 0.0 | 0.00 | 0.03 | 0.01 | 97 | 1013.3 |
| 20260901114128 | 70 | 261 | 0.0 | 0.0 | 0.00 | 0.03 | 0.01 | 97 | 1013.4 |
| 20260901114042 | 70 | 261 | 0.0 | 0.0 | 0.00 | 0.03 | 0.01 | 97 | 1013.4 |
| 20260901114034 | 70 | 261 | 0.0 | 0.0 | 0.00 | 0.03 | 0.01 | 97 | 1013.4 |
| 20260901114021 | 70 | 261 | 0.0 | 0.0 | 0.00 | 0.03 | 0.01 | 97 | 1013.5 |
| 20260901113826 | 70 | 261 | 0.0 | 0.0 | 0.00 | 0.03 | 0.01 | 97 | 1013.4 |
| 20260901113725 | 70 | 261 | 0.0 | 0.0 | 0.00 | 0.03 | 0.01 | 97 | 1013.5 |
| 20260901113625 | 70 | 261 | 0.0 | 0.0 | 0.00 | 0.03 | 0.01 | 97 | 1013.4 |
| 20260901113525 | 70 | 261 | 0.0 | 0.0 | 0.00 | 0.03 | 0.01 | 97 | 1013.5 |
| 20260901113521 | 70 | 261 | 0.0 | 0.0 | 0.00 | 0.03 | 0.01 | 97 | 1013.5 |
| 20260901113445 | 70 | 261 | 0.0 | 0.0 | 0.00 | 0.03 | 0.01 | 97 | 1013.4 |
| 20260901113438 | 70 | 261 | 0.0 | 0.0 | 0.00 | 0.03 | 0.01 | 97 | 1013.5 |
| 20260901113434 | 70 | 261 | 0.0 | 0.0 | 0.00 | 0.03 | 0.01 | 97 | 1013.4 |
| 20260901113237 | 70 | 261 | 0.0 | 0.0 | 0.00 | 0.03 | 0.01 | 97 | 1013.5 |
| 20260901113233 | 70 | 261 | 0.0 | 0.0 | 0.00 | 0.03 | 0.01 | 97 | 1013.5 |
| 20260901113023 | 70 | 261 | 0.0 | 0.0 | 0.00 | 0.03 | 0.01 | 97 | 1013.5 |
| 20260901113021 | 70 | 261 | 0.0 | 0.0 | 0.00 | 0.03 | 0.01 | 97 | 1013.6 |
| 20260901112940 | 70 | 261 | 0.0 | 0.0 | 0.00 | 0.03 | 0.01 | 97 | 1013.5 |
| 20260901112923 | 70 | 261 | 0.0 | 0.0 | 0.00 | 0.03 | 0.01 | 97 | 1013.5 |
| 20260901112822 | 70 | 261 | 0.0 | 0.0 | 0.00 | 0.03 | 0.01 | 97 | 1013.5 |
| 20260901112721 | 70 | 261 | 0.0 | 0.0 | 0.00 | 0.03 | 0.01 | 97 | 1013.6 |
| 20260901112634 | 70 | 261 | 0.0 | 0.0 | 0.00 | 0.03 | 0.01 | 97 | 1013.5 |
| 20260901112630 | 70 | 261 | 0.0 | 0.0 | 0.00 | 0.03 | 0.01 | 97 | 1013.6 |
| 20260901112523 | 70 | 261 | 0.0 | 0.0 | 0.00 | 0.03 | 0.01 | 97 | 1013.6 |
| 20260901112438 | 70 | 261 | 0.0 | 0.0 | 0.00 | 0.03 | 0.01 | 97 | 1013.5 |
| 20260901112420 | 70 | 261 | 0.0 | 0.0 | 0.00 | 0.03 | 0.01 | 97 | 1013.5 |
| 20260901112320 | 70 | 261 | 0.0 | 0.0 | 0.00 | 0.03 | 0.01 | 97 | 1013.6 |
| 20260901112219 | 70 | 261 | 0.0 | 0.0 | 0.00 | 0.03 | 0.01 | 97 | 1013.6 |
| 20260901112146 | 70 | 261 | 0.0 | 0.0 | 0.00 | 0.03 | 0.01 | 97 | 1013.5 |
| 20260901112032 | 70 | 261 | 0.0 | 0.0 | 0.00 | 0.03 | 0.01 | 97 | 1013.5 |
| 20260901112025 | 69 | 261 | 0.0 | 0.0 | 0.00 | 0.03 | 0.01 | 97 | 1013.5 |
| 20260901112021 | 70 | 261 | 0.0 | 0.0 | 0.00 | 0.03 | 0.01 | 97 | 1013.6 |
| 20260901111817 | 69 | 261 | 0.0 | 0.0 | 0.00 | 0.03 | 0.01 | 97 | 1013.5 |
| 20260901111717 | 69 | 261 | 0.0 | 0.0 | 0.00 | 0.03 | 0.01 | 97 | 1013.5 |
| 20260901111617 | 69 | 261 | 0.0 | 0.0 | 0.00 | 0.03 | 0.01 | 97 | 1013.5 |
| 20260901111604 | 69 | 261 | 0.0 | 0.0 | 0.00 | 0.03 | 0.01 | 97 | 1013.5 |
| 20260901111521 | 69 | 261 | 0.0 | 0.0 | 0.00 | 0.03 | 0.01 | 97 | 1013.6 |
| 20260901111445 | 69 | 261 | 0.0 | 0.0 | 0.00 | 0.03 | 0.01 | 97 | 1013.5 |
| 20260901111332 | 69 | 261 | 0.0 | 0.0 | 0.00 | 0.03 | 0.01 | 97 | 1013.5 |
| 20260901111028 | 69 | 261 | 0.0 | 0.0 | 0.00 | 0.03 | 0.01 | 97 | 1013.4 |
| 20260901111021 | 69 | 261 | 0.0 | 0.0 | 0.00 | 0.03 | 0.01 | 97 | 1013.5 |
| 20260901110812 | 69 | 261 | 0.0 | 0.0 | 0.00 | 0.03 | 0.01 | 97 | 1013.4 |
| 20260901110712 | 69 | 261 | 0.0 | 0.0 | 0.00 | 0.03 | 0.01 | 97 | 1013.4 |
| 20260901110611 | 69 | 261 | 0.0 | 0.0 | 0.00 | 0.03 | 0.01 | 97 | 1013.4 |
| 20260901110521 | 69 | 261 | 0.0 | 0.0 | 0.00 | 0.03 | 0.01 | 97 | 1013.5 |
| 20260901110511 | 69 | 261 | 0.0 | 0.0 | 0.00 | 0.03 | 0.01 | 97 | 1013.4 |
| 20260901110410 | 69 | 261 | 0.0 | 0.0 | 0.00 | 0.03 | 0.01 | 97 | 1013.4 |
| 20260901110308 | 69 | 261 | 0.0 | 0.0 | 0.00 | 0.03 | 0.01 | 97 | 1013.4 |
| 20260901110208 | 69 | 261 | 0.0 | 0.0 | 0.00 | 0.03 | 0.01 | 97 | 1013.4 |
| 20260901110107 | 69 | 261 | 0.0 | 0.0 | 0.00 | 0.03 | 0.01 | 97 | 1013.4 |
| 20260901110036 | 69 | 261 | 0.0 | 0.0 | 0.00 | 0.03 | 0.01 | 97 | 1013.5 |
| 20260901110020 | 69 | 261 | 0.0 | 0.0 | 0.00 | 0.03 | 0.01 | 97 | 1013.4 |
| 20260901110012 | 69 | 261 | 0.0 | 0.0 | 0.00 | 0.03 | 0.01 | 97 | 1013.4 |
| 20260901105806 | 69 | 261 | 0.0 | 0.0 | 0.00 | 0.03 | 0.01 | 97 | 1013.4 |
| 20260901105706 | 69 | 261 | 0.0 | 0.0 | 0.00 | 0.03 | 0.01 | 97 | 1013.3 |
| 20260901105606 | 69 | 261 | 0.0 | 0.0 | 0.00 | 0.03 | 0.01 | 97 | 1013.3 |
| 20260901105521 | 69 | 261 | 0.0 | 0.0 | 0.00 | 0.03 | 0.01 | 97 | 1013.5 |
| 20260901105505 | 69 | 261 | 0.0 | 0.0 | 0.00 | 0.03 | 0.01 | 97 | 1013.4 |
| 20260901105406 | 69 | 261 | 0.0 | 0.0 | 0.00 | 0.03 | 0.01 | 97 | 1013.4 |
| 20260901105318 | 69 | 261 | 0.0 | 0.0 | 0.00 | 0.03 | 0.01 | 97 | 1013.4 |
| 20260901105313 | 69 | 261 | 0.0 | 0.0 | 0.00 | 0.03 | 0.01 | 97 | 1013.4 |
| 20260901105131 | 69 | 261 | 0.0 | 0.0 | 0.00 | 0.03 | 0.01 | 97 | 1013.4 |
| 20260901105021 | 69 | 261 | 0.0 | 0.0 | 0.00 | 0.03 | 0.01 | 97 | 1013.5 |
| 20260901105009 | 69 | 261 | 0.0 | 0.0 | 0.00 | 0.03 | 0.01 | 97 | 1013.4 |
| 20260901104802 | 69 | 261 | 0.0 | 0.0 | 0.00 | 0.03 | 0.01 | 97 | 1013.4 |
| 20260901104702 | 69 | 261 | 0.0 | 0.0 | 0.00 | 0.03 | 0.01 | 97 | 1013.5 |
| 20260901104628 | 69 | 261 | 0.0 | 0.0 | 0.00 | 0.03 | 0.01 | 97 | 1013.5 |
| 20260901104522 | 69 | 261 | 0.0 | 0.0 | 0.00 | 0.03 | 0.01 | 97 | 1013.6 |
| 20260901104507 | 69 | 261 | 0.0 | 0.0 | 0.00 | 0.03 | 0.01 | 97 | 1013.5 |
| 20260901104300 | 69 | 261 | 0.0 | 0.0 | 0.00 | 0.03 | 0.01 | 97 | 1013.6 |
| 20260901104200 | 69 | 261 | 0.0 | 0.0 | 0.00 | 0.03 | 0.01 | 97 | 1013.5 |
| 20260901104058 | 69 | 261 | 0.0 | 0.0 | 0.00 | 0.03 | 0.01 | 97 | 1013.6 |
| 20260901104021 | 69 | 261 | 0.0 | 0.0 | 0.00 | 0.03 | 0.01 | 97 | 1013.6 |
| 20260901103930 | 69 | 261 | 0.0 | 0.0 | 0.00 | 0.03 | 0.01 | 97 | 1013.5 |
| 20260901103857 | 69 | 261 | 0.0 | 0.0 | 0.00 | 0.03 | 0.01 | 97 | 1013.5 |
| 20260901103811 | 69 | 261 | 0.0 | 0.0 | 0.00 | 0.03 | 0.01 | 97 | 1013.5 |
| 20260901103806 | 69 | 261 | 0.0 | 0.0 | 0.00 | 0.03 | 0.01 | 97 | 1013.5 |
| 20260901103556 | 69 | 261 | 0.0 | 0.0 | 0.00 | 0.03 | 0.01 | 97 | 1013.5 |
| 20260901103521 | 69 | 261 | 0.0 | 0.0 | 0.00 | 0.03 | 0.01 | 97 | 1013.6 |
| 20260901103430 | 69 | 261 | 0.0 | 0.0 | 0.00 | 0.03 | 0.01 | 97 | 1013.5 |
| 20260901103355 | 69 | 261 | 0.0 | 0.0 | 0.00 | 0.03 | 0.01 | 97 | 1013.5 |
| 20260901103255 | 69 | 261 | 0.0 | 0.0 | 0.00 | 0.03 | 0.01 | 97 | 1013.5 |
| 20260901103153 | 69 | 261 | 0.0 | 0.0 | 0.00 | 0.03 | 0.01 | 97 | 1013.5 |
| 20260901103054 | 69 | 261 | 0.0 | 0.0 | 0.00 | 0.03 | 0.01 | 97 | 1013.5 |
| 20260901103021 | 69 | 261 | 0.0 | 0.0 | 0.00 | 0.03 | 0.01 | 97 | 1013.6 |
| 20260901102928 | 69 | 261 | 0.0 | 0.0 | 0.00 | 0.03 | 0.01 | 97 | 1013.5 |
| 20260901102852 | 69 | 261 | 0.0 | 0.0 | 0.00 | 0.03 | 0.01 | 97 | 1013.5 |
| 20260901102828 | 69 | 261 | 0.0 | 0.0 | 0.00 | 0.03 | 0.01 | 97 | 1013.5 |
| 20260901102823 | 69 | 261 | 0.0 | 0.0 | 0.00 | 0.03 | 0.01 | 97 | 1013.5 |
| 20260901102600 | 69 | 261 | 0.0 | 0.0 | 0.00 | 0.03 | 0.01 | 97 | 1013.5 |
| 20260901102521 | 69 | 261 | 0.0 | 0.0 | 0.00 | 0.03 | 0.01 | 97 | 1013.6 |
| 20260901102428 | 69 | 261 | 0.0 | 0.0 | 0.00 | 0.03 | 0.01 | 97 | 1013.5 |
| 20260901102350 | 69 | 261 | 0.0 | 0.0 | 0.00 | 0.03 | 0.01 | 97 | 1013.5 |
| 20260901102249 | 69 | 261 | 0.0 | 0.0 | 0.00 | 0.03 | 0.01 | 97 | 1013.5 |
| 20260901102149 | 69 | 261 | 0.0 | 0.0 | 0.00 | 0.03 | 0.01 | 97 | 1013.4 |
| 20260901102121 | 69 | 261 | 0.0 | 0.0 | 0.00 | 0.03 | 0.01 | 97 | 1013.5 |
| 20260901102048 | 69 | 261 | 0.0 | 0.0 | 0.00 | 0.03 | 0.01 | 97 | 1013.4 |
| 20260901102007 | 69 | 261 | 0.0 | 0.0 | 0.00 | 0.03 | 0.01 | 97 | 1013.5 |
| 20260901101955 | 69 | 261 | 0.0 | 0.0 | 0.00 | 0.03 | 0.01 | 97 | 1013.4 |
| 20260901101747 | 69 | 261 | 0.0 | 0.0 | 0.00 | 0.03 | 0.01 | 97 | 1013.5 |
| 20260901101646 | 69 | 261 | 0.0 | 0.0 | 0.00 | 0.03 | 0.01 | 97 | 1013.5 |
| 20260901101557 | 69 | 261 | 0.0 | 0.0 | 0.00 | 0.03 | 0.01 | 96 | 1013.5 |
| 20260901101552 | 69 | 261 | 0.0 | 0.0 | 0.00 | 0.03 | 0.01 | 96 | 1013.5 |
| 20260901101536 | 69 | 261 | 0.0 | 0.0 | 0.00 | 0.03 | 0.01 | 97 | 1013.6 |
| 20260901101427 | 69 | 261 | 0.0 | 0.0 | 0.00 | 0.03 | 0.01 | 96 | 1013.5 |
| 20260901101343 | 69 | 261 | 0.0 | 0.0 | 0.00 | 0.03 | 0.01 | 96 | 1013.5 |
| 20260901101240 | 69 | 261 | 0.0 | 0.0 | 0.00 | 0.03 | 0.01 | 96 | 1013.4 |
| 20260901101140 | 69 | 261 | 0.0 | 0.0 | 0.00 | 0.03 | 0.01 | 96 | 1013.4 |
| 20260901101051 | 69 | 261 | 0.0 | 0.0 | 0.00 | 0.03 | 0.01 | 96 | 1013.5 |
| 20260901101039 | 69 | 261 | 0.0 | 0.0 | 0.00 | 0.03 | 0.01 | 96 | 1013.4 |
| 20260901100925 | 69 | 261 | 0.0 | 0.0 | 0.00 | 0.03 | 0.01 | 96 | 1013.4 |
| 20260901100837 | 69 | 261 | 0.0 | 0.0 | 0.00 | 0.03 | 0.01 | 96 | 1013.5 |
| 20260901100737 | 69 | 261 | 0.0 | 0.0 | 0.00 | 0.03 | 0.01 | 96 | 1013.4 |
| 20260901100634 | 69 | 261 | 0.0 | 0.0 | 0.00 | 0.03 | 0.01 | 96 | 1013.5 |
| 20260901100534 | 69 | 261 | 0.0 | 0.0 | 0.00 | 0.03 | 0.01 | 96 | 1013.5 |
| 20260901100521 | 69 | 261 | 0.0 | 0.0 | 0.00 | 0.03 | 0.01 | 96 | 1013.5 |
| 20260901100424 | 69 | 261 | 0.0 | 0.0 | 0.00 | 0.03 | 0.01 | 97 | 1013.4 |
| 20260901100332 | 69 | 261 | 0.0 | 0.0 | 0.00 | 0.03 | 0.01 | 97 | 1013.5 |
| 20260901100246 | 69 | 261 | 0.0 | 0.0 | 0.00 | 0.03 | 0.01 | 97 | 1013.4 |
| 20260901100241 | 69 | 261 | 0.0 | 0.0 | 0.00 | 0.03 | 0.01 | 97 | 1013.4 |
| 20260901100058 | 69 | 261 | 0.0 | 0.0 | 0.00 | 0.03 | 0.01 | 96 | 1013.4 |
| 20260901100053 | 69 | 261 | 0.0 | 0.0 | 0.00 | 0.03 | 0.01 | 97 | 1013.4 |
| 20260901100022 | 70 | 261 | 0.0 | 0.0 | 0.00 | 0.03 | 0.01 | 97 | 1013.5 |
| 20260901095937 | 69 | 261 | 0.0 | 0.0 | 0.00 | 0.03 | 0.01 | 97 | 1013.4 |
| 20260901095729 | 69 | 261 | 0.0 | 0.0 | 0.00 | 0.03 | 0.01 | 96 | 1013.4 |
| 20260901095628 | 69 | 261 | 0.0 | 0.0 | 0.00 | 0.03 | 0.01 | 96 | 1013.4 |
| 20260901095527 | 69 | 261 | 0.0 | 0.0 | 0.00 | 0.03 | 0.01 | 96 | 1013.4 |
| 20260901095521 | 69 | 261 | 0.0 | 0.0 | 0.00 | 0.03 | 0.01 | 96 | 1013.5 |
| 20260901095422 | 69 | 261 | 0.0 | 0.0 | 0.00 | 0.03 | 0.01 | 96 | 1013.4 |
| 20260901095326 | 69 | 261 | 0.0 | 0.0 | 0.00 | 0.03 | 0.01 | 96 | 1013.4 |
| 20260901095226 | 69 | 261 | 0.0 | 0.0 | 0.00 | 0.03 | 0.01 | 96 | 1013.3 |
| 20260901095125 | 69 | 261 | 0.0 | 0.0 | 0.00 | 0.03 | 0.01 | 96 | 1013.4 |
| 20260901095044 | 69 | 261 | 0.0 | 0.0 | 0.00 | 0.03 | 0.01 | 96 | 1013.5 |
| 20260901095039 | 69 | 261 | 0.0 | 0.0 | 0.00 | 0.03 | 0.01 | 96 | 1013.4 |
| 20260901095021 | 69 | 261 | 0.0 | 0.0 | 0.00 | 0.03 | 0.01 | 96 | 1013.6 |
| 20260901094926 | 69 | 261 | 0.0 | 0.0 | 0.00 | 0.03 | 0.01 | 96 | 1013.5 |
| 20260901094824 | 69 | 261 | 0.0 | 0.0 | 0.00 | 0.03 | 0.01 | 96 | 1013.4 |
| 20260901094723 | 69 | 261 | 0.0 | 0.0 | 0.00 | 0.03 | 0.01 | 96 | 1013.5 |
| 20260901094623 | 69 | 261 | 0.0 | 0.0 | 0.00 | 0.03 | 0.01 | 96 | 1013.5 |
| 20260901094542 | 69 | 261 | 0.0 | 0.0 | 0.00 | 0.03 | 0.01 | 96 | 1013.4 |
| 20260901094537 | 69 | 261 | 0.0 | 0.0 | 0.00 | 0.03 | 0.01 | 96 | 1013.5 |
| 20260901094521 | 70 | 261 | 0.0 | 0.0 | 0.00 | 0.03 | 0.01 | 96 | 1013.5 |
| 20260901094423 | 69 | 261 | 0.0 | 0.0 | 0.00 | 0.03 | 0.01 | 96 | 1013.4 |
| 20260901094321 | 69 | 261 | 0.0 | 0.0 | 0.00 | 0.03 | 0.01 | 96 | 1013.5 |
| 20260901094221 | 69 | 261 | 0.0 | 0.0 | 0.00 | 0.03 | 0.01 | 96 | 1013.5 |
| 20260901094119 | 69 | 261 | 0.0 | 0.0 | 0.00 | 0.03 | 0.01 | 96 | 1013.5 |
| 20260901094021 | 70 | 261 | 0.0 | 0.0 | 0.00 | 0.03 | 0.01 | 96 | 1013.6 |
| 20260901094019 | 69 | 261 | 0.0 | 0.0 | 0.00 | 0.03 | 0.01 | 96 | 1013.5 |
| 20260901093918 | 69 | 261 | 0.0 | 0.0 | 0.00 | 0.03 | 0.01 | 96 | 1013.5 |
| 20260901093818 | 69 | 261 | 0.0 | 0.0 | 0.00 | 0.03 | 0.01 | 96 | 1013.5 |
| 20260901093719 | 69 | 261 | 0.0 | 0.0 | 0.00 | 0.03 | 0.01 | 96 | 1013.5 |
| 20260901093617 | 69 | 261 | 0.0 | 0.0 | 0.00 | 0.03 | 0.01 | 96 | 1013.5 |
| 20260901093521 | 70 | 261 | 0.0 | 0.0 | 0.00 | 0.03 | 0.01 | 96 | 1013.5 |
| 20260901093518 | 69 | 261 | 0.0 | 0.0 | 0.00 | 0.03 | 0.01 | 96 | 1013.5 |
| 20260901093437 | 69 | 261 | 0.0 | 0.0 | 0.00 | 0.03 | 0.01 | 96 | 1013.4 |
| 20260901093426 | 69 | 261 | 0.0 | 0.0 | 0.00 | 0.03 | 0.01 | 96 | 1013.4 |
| 20260901093216 | 69 | 261 | 0.0 | 0.0 | 0.00 | 0.03 | 0.01 | 96 | 1013.5 |
| 20260901093115 | 69 | 261 | 0.0 | 0.0 | 0.00 | 0.03 | 0.01 | 96 | 1013.5 |
| 20260901093021 | 70 | 261 | 0.0 | 0.0 | 0.00 | 0.03 | 0.01 | 96 | 1013.5 |
| 20260901093015 | 69 | 261 | 0.0 | 0.0 | 0.00 | 0.03 | 0.01 | 96 | 1013.4 |
| 20260901092914 | 69 | 261 | 0.0 | 0.0 | 0.00 | 0.03 | 0.01 | 96 | 1013.4 |
| 20260901092814 | 69 | 261 | 0.0 | 0.0 | 0.00 | 0.03 | 0.01 | 96 | 1013.5 |
| 20260901092713 | 69 | 261 | 0.0 | 0.0 | 0.00 | 0.03 | 0.01 | 96 | 1013.5 |
| 20260901092613 | 69 | 261 | 0.0 | 0.0 | 0.00 | 0.03 | 0.01 | 96 | 1013.5 |
| 20260901092536 | 69 | 261 | 0.0 | 0.0 | 0.00 | 0.03 | 0.01 | 96 | 1013.6 |
| 20260901092513 | 69 | 261 | 0.0 | 0.0 | 0.00 | 0.03 | 0.01 | 96 | 1013.5 |
| 20260901092412 | 69 | 261 | 0.0 | 0.0 | 0.00 | 0.03 | 0.01 | 96 | 1013.5 |
| 20260901092312 | 69 | 261 | 0.0 | 0.0 | 0.00 | 0.03 | 0.01 | 96 | 1013.5 |
| 20260901092211 | 69 | 261 | 0.0 | 0.0 | 0.00 | 0.03 | 0.01 | 96 | 1013.5 |
| 20260901092110 | 69 | 261 | 0.0 | 0.0 | 0.00 | 0.03 | 0.01 | 96 | 1013.5 |
| 20260901092106 | 69 | 261 | 0.0 | 0.0 | 0.00 | 0.03 | 0.01 | 96 | 1013.6 |
| 20260901092009 | 69 | 261 | 0.0 | 0.0 | 0.00 | 0.03 | 0.01 | 96 | 1013.5 |
| 20260901091909 | 69 | 261 | 0.0 | 0.0 | 0.00 | 0.03 | 0.01 | 96 | 1013.5 |
| 20260901091808 | 69 | 261 | 0.0 | 0.0 | 0.00 | 0.03 | 0.01 | 96 | 1013.4 |
| 20260901091708 | 69 | 261 | 0.0 | 0.0 | 0.00 | 0.03 | 0.01 | 96 | 1013.4 |
| 20260901091608 | 69 | 261 | 0.0 | 0.0 | 0.00 | 0.03 | 0.01 | 96 | 1013.4 |
| 20260901091523 | 70 | 261 | 0.0 | 0.0 | 0.00 | 0.03 | 0.01 | 96 | 1013.5 |
| 20260901091507 | 69 | 261 | 0.0 | 0.0 | 0.00 | 0.03 | 0.01 | 96 | 1013.4 |
| 20260901091407 | 69 | 261 | 0.0 | 0.0 | 0.00 | 0.03 | 0.01 | 96 | 1013.4 |
| 20260901091307 | 69 | 261 | 0.0 | 0.0 | 0.00 | 0.03 | 0.01 | 96 | 1013.4 |
| 20260901091206 | 69 | 261 | 0.0 | 0.0 | 0.00 | 0.03 | 0.01 | 96 | 1013.3 |
| 20260901091106 | 69 | 261 | 0.0 | 0.0 | 0.00 | 0.03 | 0.01 | 96 | 1013.3 |
| 20260901091021 | 70 | 261 | 0.0 | 0.0 | 0.00 | 0.03 | 0.01 | 96 | 1013.5 |
| 20260901091005 | 69 | 261 | 0.0 | 0.0 | 0.00 | 0.03 | 0.01 | 96 | 1013.4 |
| 20260901090905 | 69 | 261 | 0.0 | 0.0 | 0.00 | 0.03 | 0.01 | 96 | 1013.4 |
| 20260901090804 | 69 | 261 | 0.0 | 0.0 | 0.00 | 0.03 | 0.01 | 96 | 1013.4 |
| 20260901090704 | 69 | 261 | 0.0 | 0.0 | 0.00 | 0.03 | 0.01 | 96 | 1013.5 |
| 20260901090604 | 69 | 261 | 0.0 | 0.0 | 0.00 | 0.03 | 0.01 | 96 | 1013.5 |
| 20260901090521 | 69 | 261 | 0.0 | 0.0 | 0.00 | 0.03 | 0.01 | 96 | 1013.6 |
| 20260901090503 | 69 | 261 | 0.0 | 0.0 | 0.00 | 0.03 | 0.01 | 96 | 1013.5 |
| 20260901090413 | 69 | 261 | 0.0 | 0.0 | 0.00 | 0.03 | 0.01 | 96 | 1013.5 |
| 20260901090402 | 69 | 261 | 0.0 | 0.0 | 0.00 | 0.03 | 0.01 | 96 | 1013.5 |
| 20260901090303 | 69 | 261 | 0.0 | 0.0 | 0.00 | 0.03 | 0.01 | 96 | 1013.6 |
| 20260901090203 | 69 | 261 | 0.0 | 0.0 | 0.00 | 0.03 | 0.01 | 96 | 1013.6 |
| 20260901090043 | 69 | 261 | 0.0 | 0.0 | 0.00 | 0.03 | 0.01 | 96 | 1013.5 |
| 20260901090029 | 69 | 261 | 0.0 | 0.0 | 0.00 | 0.03 | 0.01 | 96 | 1013.5 |
| 20260901090021 | 69 | 261 | 0.0 | 0.0 | 0.00 | 0.03 | 0.01 | 96 | 1013.6 |
| 20260901085809 | 69 | 261 | 0.0 | 0.0 | 0.00 | 0.03 | 0.01 | 96 | 1013.6 |
| 20260901085600 | 69 | 261 | 0.0 | 0.0 | 0.00 | 0.03 | 0.01 | 96 | 1013.6 |
| 20260901085536 | 70 | 261 | 0.0 | 0.0 | 0.00 | 0.03 | 0.01 | 96 | 1013.7 |
| 20260901085459 | 69 | 261 | 0.0 | 0.0 | 0.00 | 0.03 | 0.01 | 96 | 1013.6 |
| 20260901085412 | 69 | 261 | 0.0 | 0.0 | 0.00 | 0.03 | 0.01 | 96 | 1013.6 |
| 20260901085358 | 69 | 261 | 0.0 | 0.0 | 0.00 | 0.03 | 0.01 | 96 | 1013.6 |
| 20260901085258 | 69 | 261 | 0.0 | 0.0 | 0.00 | 0.03 | 0.01 | 96 | 1013.6 |
| 20260901085157 | 69 | 261 | 0.0 | 0.0 | 0.00 | 0.03 | 0.01 | 96 | 1013.6 |
| 20260901085058 | 69 | 261 | 0.0 | 0.0 | 0.00 | 0.03 | 0.01 | 96 | 1013.7 |
| 20260901085022 | 69 | 261 | 0.0 | 0.0 | 0.00 | 0.03 | 0.01 | 96 | 1013.6 |
| 20260901085004 | 69 | 261 | 0.0 | 0.0 | 0.00 | 0.03 | 0.01 | 96 | 1013.6 |
| 20260901084756 | 69 | 261 | 0.0 | 0.0 | 0.00 | 0.03 | 0.01 | 96 | 1013.7 |
| 20260901084656 | 70 | 261 | 0.0 | 0.0 | 0.00 | 0.03 | 0.01 | 96 | 1013.6 |
| 20260901084557 | 70 | 261 | 0.0 | 0.0 | 0.00 | 0.03 | 0.01 | 96 | 1013.7 |
| 20260901084521 | 70 | 261 | 0.0 | 0.0 | 0.00 | 0.03 | 0.01 | 96 | 1013.9 |
| 20260901084455 | 70 | 261 | 0.0 | 0.0 | 0.00 | 0.03 | 0.01 | 96 | 1013.8 |
| 20260901084409 | 70 | 261 | 0.0 | 0.0 | 0.00 | 0.03 | 0.01 | 96 | 1013.8 |
| 20260901084354 | 69 | 261 | 0.0 | 0.0 | 0.00 | 0.03 | 0.01 | 96 | 1013.8 |
| 20260901084254 | 70 | 261 | 0.0 | 0.0 | 0.00 | 0.03 | 0.01 | 96 | 1013.8 |
| 20260901084155 | 70 | 261 | 0.0 | 0.0 | 0.00 | 0.03 | 0.01 | 96 | 1013.8 |
| 20260901084128 | 70 | 261 | 0.0 | 0.0 | 0.00 | 0.03 | 0.01 | 96 | 1013.9 |
| 20260901084122 | 70 | 261 | 0.0 | 0.0 | 0.00 | 0.03 | 0.01 | 96 | 1013.9 |
| 20260901084117 | 70 | 261 | 0.0 | 0.0 | 0.00 | 0.03 | 0.01 | 96 | 1013.8 |
| 20260901084022 | 70 | 261 | 0.0 | 0.0 | 0.00 | 0.03 | 0.01 | 96 | 1014.0 |
| 20260901084000 | 70 | 261 | 0.0 | 0.0 | 0.00 | 0.03 | 0.01 | 96 | 1013.9 |
| 20260901083753 | 70 | 261 | 0.0 | 0.0 | 0.00 | 0.03 | 0.01 | 96 | 1013.9 |
| 20260901083651 | 70 | 261 | 0.0 | 0.0 | 0.00 | 0.03 | 0.01 | 96 | 1013.9 |
| 20260901083551 | 70 | 261 | 0.0 | 0.0 | 0.00 | 0.03 | 0.01 | 96 | 1014.0 |
| 20260901083522 | 70 | 261 | 0.0 | 0.0 | 0.00 | 0.03 | 0.01 | 96 | 1014.1 |
| 20260901083451 | 70 | 261 | 0.0 | 0.0 | 0.00 | 0.03 | 0.01 | 96 | 1014.0 |
| 20260901083408 | 70 | 261 | 0.0 | 0.0 | 0.00 | 0.03 | 0.01 | 96 | 1014.0 |
| 20260901083350 | 70 | 261 | 0.0 | 0.0 | 0.00 | 0.03 | 0.01 | 96 | 1014.0 |
| 20260901083250 | 70 | 261 | 0.0 | 0.0 | 0.00 | 0.03 | 0.01 | 96 | 1014.0 |
| 20260901083149 | 70 | 261 | 0.0 | 0.0 | 0.00 | 0.03 | 0.01 | 96 | 1014.0 |
| 20260901083103 | 70 | 261 | 0.0 | 0.0 | 0.00 | 0.03 | 0.01 | 96 | 1014.0 |
| 20260901083058 | 70 | 261 | 0.0 | 0.0 | 0.00 | 0.03 | 0.01 | 96 | 1014.0 |
| 20260901083036 | 70 | 261 | 0.0 | 0.0 | 0.00 | 0.03 | 0.01 | 96 | 1014.1 |
| 20260901082904 | 70 | 261 | 0.0 | 0.0 | 0.00 | 0.03 | 0.01 | 96 | 1014.0 |
| 20260901082848 | 70 | 261 | 0.0 | 0.0 | 0.00 | 0.03 | 0.01 | 96 | 1014.0 |
| 20260901082802 | 70 | 261 | 0.0 | 0.0 | 0.00 | 0.03 | 0.01 | 96 | 1014.0 |
| 20260901082756 | 70 | 261 | 0.0 | 0.0 | 0.00 | 0.03 | 0.01 | 96 | 1014.0 |
| 20260901082600 | 70 | 261 | 0.0 | 0.0 | 0.00 | 0.03 | 0.01 | 96 | 1013.9 |
| 20260901082555 | 70 | 261 | 0.0 | 0.0 | 0.00 | 0.03 | 0.01 | 96 | 1013.9 |
| 20260901082546 | 70 | 261 | 0.0 | 0.0 | 0.00 | 0.03 | 0.01 | 96 | 1013.9 |
| 20260901082539 | 70 | 261 | 0.0 | 0.0 | 0.00 | 0.03 | 0.01 | 96 | 1013.9 |
| 20260901082524 | 70 | 261 | 0.0 | 0.0 | 0.00 | 0.03 | 0.01 | 96 | 1013.9 |
| 20260901082521 | 70 | 261 | 0.0 | 0.0 | 0.00 | 0.03 | 0.01 | 96 | 1014.0 |
| 20260901082155 | 70 | 261 | 0.0 | 0.0 | 0.00 | 0.03 | 0.01 | 96 | 1013.9 |
| 20260901082146 | 70 | 261 | 0.0 | 0.0 | 0.00 | 0.03 | 0.01 | 96 | 1013.8 |
| 20260901082036 | 70 | 261 | 0.0 | 0.0 | 0.00 | 0.03 | 0.01 | 96 | 1014.0 |
| 20260901081922 | 70 | 261 | 0.0 | 0.0 | 0.00 | 0.03 | 0.01 | 96 | 1013.9 |
| 20260901081701 | 70 | 261 | 0.0 | 0.0 | 0.00 | 0.03 | 0.01 | 96 | 1014.0 |
| 20260901081656 | 70 | 261 | 0.0 | 0.0 | 0.00 | 0.03 | 0.01 | 96 | 1013.9 |
| 20260901081521 | 70 | 261 | 0.0 | 0.0 | 0.00 | 0.03 | 0.01 | 96 | 1014.1 |
| 20260901081406 | 70 | 261 | 0.0 | 0.0 | 0.00 | 0.03 | 0.01 | 96 | 1014.0 |
| 20260901081339 | 70 | 261 | 0.0 | 0.0 | 0.00 | 0.03 | 0.01 | 96 | 1013.9 |
| 20260901081239 | 70 | 261 | 0.0 | 0.0 | 0.00 | 0.03 | 0.01 | 96 | 1013.9 |
| 20260901081138 | 70 | 261 | 0.0 | 0.0 | 0.00 | 0.03 | 0.01 | 96 | 1013.9 |
| 20260901081037 | 70 | 261 | 0.0 | 0.0 | 0.00 | 0.03 | 0.01 | 96 | 1013.9 |
| 20260901081021 | 70 | 261 | 0.0 | 0.0 | 0.00 | 0.03 | 0.01 | 96 | 1014.0 |
| 20260901080936 | 70 | 261 | 0.0 | 0.0 | 0.00 | 0.03 | 0.01 | 96 | 1013.9 |
| 20260901080905 | 70 | 261 | 0.0 | 0.0 | 0.00 | 0.03 | 0.01 | 96 | 1013.9 |
| 20260901080848 | 70 | 261 | 0.0 | 0.0 | 0.00 | 0.03 | 0.01 | 96 | 1013.9 |
| 20260901080844 | 70 | 261 | 0.0 | 0.0 | 0.00 | 0.03 | 0.01 | 96 | 1013.9 |
| 20260901080635 | 70 | 261 | 0.0 | 0.0 | 0.00 | 0.03 | 0.01 | 96 | 1013.9 |
| 20260901080536 | 70 | 261 | 0.0 | 0.0 | 0.00 | 0.03 | 0.01 | 96 | 1014.0 |
| 20260901080534 | 70 | 261 | 0.0 | 0.0 | 0.00 | 0.03 | 0.01 | 96 | 1013.9 |
| 20260901080404 | 70 | 261 | 0.0 | 0.0 | 0.00 | 0.03 | 0.01 | 96 | 1013.9 |
| 20260901080333 | 70 | 261 | 0.0 | 0.0 | 0.00 | 0.03 | 0.01 | 96 | 1013.9 |
| 20260901080233 | 70 | 261 | 0.0 | 0.0 | 0.00 | 0.03 | 0.01 | 96 | 1013.8 |
| 20260901080145 | 70 | 261 | 0.0 | 0.0 | 0.00 | 0.03 | 0.01 | 96 | 1013.8 |
| 20260901080141 | 70 | 261 | 0.0 | 0.0 | 0.00 | 0.03 | 0.01 | 96 | 1013.8 |
| 20260901080021 | 70 | 261 | 0.0 | 0.0 | 0.00 | 0.03 | 0.01 | 96 | 1013.9 |
| 20260901075904 | 70 | 261 | 0.0 | 0.0 | 0.00 | 0.03 | 0.01 | 96 | 1013.8 |
| 20260901075830 | 70 | 261 | 0.0 | 0.0 | 0.00 | 0.03 | 0.01 | 96 | 1013.8 |
| 20260901075740 | 70 | 261 | 0.0 | 0.0 | 0.00 | 0.03 | 0.01 | 96 | 1013.7 |
| 20260901075731 | 70 | 261 | 0.0 | 0.0 | 0.00 | 0.03 | 0.01 | 96 | 1013.7 |
| 20260901075528 | 70 | 261 | 0.0 | 0.0 | 0.00 | 0.03 | 0.01 | 96 | 1013.7 |
| 20260901075521 | 70 | 261 | 0.0 | 0.0 | 0.00 | 0.03 | 0.01 | 96 | 1013.8 |
| 20260901075511 | 70 | 261 | 0.0 | 0.0 | 0.00 | 0.03 | 0.01 | 96 | 1013.7 |
| 20260901075328 | 70 | 261 | 0.0 | 0.0 | 0.00 | 0.03 | 0.01 | 96 | 1013.7 |
| 20260901075227 | 70 | 261 | 0.0 | 0.0 | 0.00 | 0.03 | 0.01 | 96 | 1013.6 |
| 20260901075126 | 70 | 261 | 0.0 | 0.0 | 0.00 | 0.03 | 0.01 | 96 | 1013.6 |
| 20260901075026 | 70 | 261 | 0.0 | 0.0 | 0.00 | 0.03 | 0.01 | 96 | 1013.8 |
| 20260901075021 | 70 | 261 | 0.0 | 0.0 | 0.00 | 0.03 | 0.01 | 96 | 1013.8 |
| 20260901074903 | 70 | 261 | 0.0 | 0.0 | 0.00 | 0.03 | 0.01 | 96 | 1013.7 |
| 20260901074825 | 70 | 261 | 0.0 | 0.0 | 0.00 | 0.03 | 0.01 | 96 | 1013.8 |
| 20260901074725 | 70 | 261 | 0.0 | 0.0 | 0.00 | 0.03 | 0.01 | 96 | 1013.7 |
| 20260901074624 | 70 | 261 | 0.0 | 0.0 | 0.00 | 0.03 | 0.01 | 96 | 1013.8 |
| 20260901074524 | 70 | 261 | 0.0 | 0.0 | 0.00 | 0.03 | 0.01 | 96 | 1013.8 |
| 20260901074521 | 70 | 261 | 0.0 | 0.0 | 0.00 | 0.03 | 0.01 | 96 | 1013.9 |
| 20260901074442 | 70 | 261 | 0.0 | 0.0 | 0.00 | 0.03 | 0.01 | 96 | 1013.8 |
| 20260901074430 | 70 | 261 | 0.0 | 0.0 | 0.00 | 0.03 | 0.01 | 96 | 1013.8 |
| 20260901074221 | 70 | 261 | 0.0 | 0.0 | 0.00 | 0.03 | 0.01 | 96 | 1013.8 |
| 20260901074121 | 70 | 261 | 0.0 | 0.0 | 0.00 | 0.03 | 0.01 | 96 | 1013.8 |
| 20260901074021 | 70 | 261 | 0.0 | 0.0 | 0.00 | 0.03 | 0.01 | 96 | 1013.9 |
| 20260901073903 | 70 | 261 | 0.0 | 0.0 | 0.00 | 0.03 | 0.01 | 96 | 1013.8 |
| 20260901073820 | 70 | 261 | 0.0 | 0.0 | 0.00 | 0.03 | 0.01 | 96 | 1013.8 |
| 20260901073731 | 70 | 261 | 0.0 | 0.0 | 0.00 | 0.03 | 0.01 | 96 | 1013.8 |
| 20260901073618 | 70 | 261 | 0.0 | 0.0 | 0.00 | 0.03 | 0.01 | 96 | 1013.8 |
| 20260901073536 | 70 | 261 | 0.0 | 0.0 | 0.00 | 0.03 | 0.01 | 96 | 1013.9 |
| 20260901073519 | 70 | 261 | 0.0 | 0.0 | 0.00 | 0.03 | 0.01 | 96 | 1013.8 |
| 20260901073510 | 70 | 261 | 0.0 | 0.0 | 0.00 | 0.03 | 0.01 | 96 | 1013.8 |
| 20260901073316 | 70 | 261 | 0.0 | 0.0 | 0.00 | 0.03 | 0.01 | 96 | 1013.8 |
| 20260901073216 | 70 | 261 | 0.0 | 0.0 | 0.00 | 0.03 | 0.01 | 96 | 1013.7 |
| 20260901073122 | 70 | 261 | 0.0 | 0.0 | 0.00 | 0.03 | 0.01 | 96 | 1013.8 |
| 20260901073114 | 70 | 261 | 0.0 | 0.0 | 0.00 | 0.03 | 0.01 | 96 | 1013.8 |
| 20260901073021 | 70 | 261 | 0.0 | 0.0 | 0.00 | 0.03 | 0.01 | 96 | 1013.9 |
| 20260901073010 | 70 | 261 | 0.0 | 0.0 | 0.00 | 0.03 | 0.01 | 96 | 1013.8 |
| 20260901072812 | 70 | 261 | 0.0 | 0.0 | 0.00 | 0.03 | 0.01 | 96 | 1013.8 |
| 20260901072712 | 70 | 261 | 0.0 | 0.0 | 0.00 | 0.03 | 0.01 | 96 | 1013.8 |
| 20260901072612 | 70 | 261 | 0.0 | 0.0 | 0.00 | 0.03 | 0.01 | 96 | 1013.8 |
| 20260901072523 | 70 | 261 | 0.0 | 0.0 | 0.00 | 0.03 | 0.01 | 96 | 1013.8 |
| 20260901072519 | 70 | 261 | 0.0 | 0.0 | 0.00 | 0.03 | 0.01 | 96 | 1013.7 |
| 20260901072403 | 70 | 261 | 0.0 | 0.0 | 0.00 | 0.03 | 0.01 | 96 | 1013.8 |
| 20260901072309 | 70 | 261 | 0.0 | 0.0 | 0.00 | 0.03 | 0.01 | 96 | 1013.8 |
| 20260901072222 | 70 | 261 | 0.0 | 0.0 | 0.00 | 0.03 | 0.01 | 96 | 1013.8 |
| 20260901072217 | 70 | 261 | 0.0 | 0.0 | 0.00 | 0.03 | 0.01 | 96 | 1013.9 |
| 20260901072021 | 70 | 261 | 0.0 | 0.0 | 0.00 | 0.03 | 0.01 | 96 | 1014.0 |
| 20260901072008 | 70 | 261 | 0.0 | 0.0 | 0.00 | 0.03 | 0.01 | 96 | 1013.9 |
| 20260901071902 | 70 | 261 | 0.0 | 0.0 | 0.00 | 0.03 | 0.01 | 96 | 1013.9 |
| 20260901071806 | 70 | 261 | 0.0 | 0.0 | 0.00 | 0.03 | 0.01 | 96 | 1013.9 |
| 20260901071706 | 70 | 261 | 0.0 | 0.0 | 0.00 | 0.03 | 0.01 | 96 | 1013.9 |
| 20260901071606 | 70 | 261 | 0.0 | 0.0 | 0.00 | 0.03 | 0.01 | 96 | 1013.9 |
| 20260901071521 | 70 | 261 | 0.0 | 0.0 | 0.00 | 0.03 | 0.01 | 96 | 1014.0 |
| 20260901071505 | 70 | 261 | 0.0 | 0.0 | 0.00 | 0.03 | 0.01 | 96 | 1013.9 |
| 20260901071408 | 70 | 261 | 0.0 | 0.0 | 0.00 | 0.03 | 0.01 | 96 | 1013.9 |
| 20260901071401 | 70 | 261 | 0.0 | 0.0 | 0.00 | 0.03 | 0.01 | 96 | 1013.9 |
| 20260901071303 | 70 | 261 | 0.0 | 0.0 | 0.00 | 0.03 | 0.01 | 96 | 1013.8 |
| 20260901071203 | 70 | 261 | 0.0 | 0.0 | 0.00 | 0.03 | 0.01 | 96 | 1013.9 |
| 20260901071103 | 70 | 261 | 0.0 | 0.0 | 0.00 | 0.03 | 0.01 | 96 | 1013.9 |
| 20260901071042 | 70 | 261 | 0.0 | 0.0 | 0.00 | 0.03 | 0.01 | 96 | 1013.9 |
| 20260901071037 | 70 | 261 | 0.0 | 0.0 | 0.00 | 0.03 | 0.01 | 96 | 1013.9 |
| 20260901070918 | 70 | 261 | 0.0 | 0.0 | 0.00 | 0.03 | 0.01 | 96 | 1013.9 |
| 20260901070625 | 70 | 261 | 0.0 | 0.0 | 0.00 | 0.03 | 0.01 | 96 | 1013.9 |
| 20260901070600 | 70 | 261 | 0.0 | 0.0 | 0.00 | 0.03 | 0.01 | 96 | 1013.9 |
| 20260901070522 | 70 | 261 | 0.0 | 0.0 | 0.00 | 0.03 | 0.01 | 96 | 1014.0 |
| 20260901070514 | 70 | 261 | 0.0 | 0.0 | 0.00 | 0.03 | 0.01 | 96 | 1013.9 |
| 20260901070400 | 70 | 261 | 0.0 | 0.0 | 0.00 | 0.03 | 0.01 | 96 | 1013.9 |
| 20260901070259 | 70 | 261 | 0.0 | 0.0 | 0.00 | 0.03 | 0.01 | 96 | 1013.9 |
| 20260901070159 | 70 | 261 | 0.0 | 0.0 | 0.00 | 0.03 | 0.01 | 96 | 1014.0 |
| 20260901070059 | 70 | 261 | 0.0 | 0.0 | 0.00 | 0.03 | 0.01 | 96 | 1014.0 |
| 20260901070021 | 70 | 261 | 0.0 | 0.0 | 0.00 | 0.03 | 0.01 | 96 | 1014.1 |
| 20260901065957 | 70 | 261 | 0.0 | 0.0 | 0.00 | 0.03 | 0.01 | 96 | 1014.0 |
| 20260901065918 | 70 | 261 | 0.0 | 0.0 | 0.00 | 0.03 | 0.01 | 96 | 1013.9 |
| 20260901065805 | 70 | 261 | 0.0 | 0.0 | 0.00 | 0.03 | 0.01 | 96 | 1014.0 |
| 20260901065609 | 70 | 261 | 0.0 | 0.0 | 0.00 | 0.03 | 0.01 | 96 | 1014.1 |
| 20260901065605 | 70 | 261 | 0.0 | 0.0 | 0.00 | 0.03 | 0.01 | 96 | 1014.0 |
| 20260901065521 | 70 | 261 | 0.0 | 0.0 | 0.00 | 0.03 | 0.01 | 96 | 1014.3 |
| 20260901065355 | 70 | 261 | 0.0 | 0.0 | 0.00 | 0.03 | 0.01 | 96 | 1014.1 |
| 20260901065255 | 70 | 261 | 0.0 | 0.0 | 0.00 | 0.03 | 0.01 | 96 | 1014.1 |
| 20260901065154 | 70 | 261 | 0.0 | 0.0 | 0.00 | 0.03 | 0.01 | 96 | 1014.1 |
| 20260901065054 | 70 | 261 | 0.0 | 0.0 | 0.00 | 0.03 | 0.01 | 96 | 1014.1 |
| 20260901065036 | 70 | 261 | 0.0 | 0.0 | 0.00 | 0.03 | 0.01 | 96 | 1014.4 |
| 20260901064952 | 70 | 261 | 0.0 | 0.0 | 0.00 | 0.03 | 0.01 | 96 | 1014.2 |
| 20260901064911 | 70 | 261 | 0.0 | 0.0 | 0.00 | 0.03 | 0.01 | 96 | 1014.1 |
| 20260901064902 | 70 | 261 | 0.0 | 0.0 | 0.00 | 0.03 | 0.01 | 96 | 1014.1 |
| 20260901064653 | 70 | 261 | 0.0 | 0.0 | 0.00 | 0.03 | 0.01 | 96 | 1014.1 |
| 20260901064606 | 70 | 261 | 0.0 | 0.0 | 0.00 | 0.03 | 0.01 | 96 | 1014.1 |
| 20260901064601 | 70 | 261 | 0.0 | 0.0 | 0.00 | 0.03 | 0.01 | 96 | 1014.2 |
| 20260901064521 | 71 | 261 | 0.0 | 0.0 | 0.00 | 0.03 | 0.01 | 96 | 1014.3 |
| 20260901064359 | 71 | 261 | 0.0 | 0.0 | 0.00 | 0.03 | 0.01 | 96 | 1014.1 |
| 20260901064352 | 70 | 261 | 0.0 | 0.0 | 0.00 | 0.03 | 0.01 | 96 | 1014.1 |
| 20260901064323 | 71 | 261 | 0.0 | 0.0 | 0.00 | 0.03 | 0.01 | 96 | 1014.1 |
| 20260901064319 | 71 | 261 | 0.0 | 0.0 | 0.00 | 0.03 | 0.01 | 96 | 1014.2 |
| 20260901064315 | 71 | 261 | 0.0 | 0.0 | 0.00 | 0.03 | 0.01 | 96 | 1014.1 |
| 20260901064310 | 71 | 261 | 0.0 | 0.0 | 0.00 | 0.03 | 0.01 | 96 | 1014.2 |
| 20260901064026 | 71 | 261 | 0.0 | 0.0 | 0.00 | 0.03 | 0.01 | 96 | 1014.1 |
| 20260901064021 | 71 | 261 | 0.0 | 0.0 | 0.00 | 0.03 | 0.01 | 96 | 1014.3 |
| 20260901063911 | 71 | 261 | 0.0 | 0.0 | 0.00 | 0.03 | 0.01 | 96 | 1014.1 |
| 20260901063758 | 71 | 261 | 0.0 | 0.0 | 0.00 | 0.03 | 0.01 | 96 | 1014.1 |
| 20260901063548 | 71 | 261 | 0.0 | 0.0 | 0.00 | 0.03 | 0.01 | 96 | 1014.2 |
| 20260901063521 | 71 | 261 | 0.0 | 0.0 | 0.00 | 0.03 | 0.01 | 96 | 1014.4 |
| 20260901063447 | 71 | 261 | 0.0 | 0.0 | 0.00 | 0.03 | 0.01 | 96 | 1014.2 |
| 20260901063347 | 71 | 261 | 0.0 | 0.0 | 0.00 | 0.03 | 0.01 | 96 | 1014.2 |
| 20260901063246 | 71 | 261 | 0.0 | 0.0 | 0.00 | 0.03 | 0.01 | 96 | 1014.2 |
| 20260901063228 | 71 | 261 | 0.0 | 0.0 | 0.00 | 0.03 | 0.01 | 96 | 1014.2 |
| 20260901063046 | 71 | 261 | 0.0 | 0.0 | 0.00 | 0.03 | 0.01 | 96 | 1014.2 |
| 20260901063022 | 71 | 261 | 0.0 | 0.0 | 0.00 | 0.03 | 0.01 | 96 | 1014.4 |
| 20260901063004 | 71 | 261 | 0.0 | 0.0 | 0.00 | 0.03 | 0.01 | 96 | 1014.2 |
| 20260901062847 | 71 | 261 | 0.0 | 0.0 | 0.00 | 0.03 | 0.01 | 96 | 1014.2 |
| 20260901062745 | 71 | 261 | 0.0 | 0.0 | 0.00 | 0.03 | 0.01 | 96 | 1014.2 |
| 20260901062645 | 71 | 261 | 0.0 | 0.0 | 0.00 | 0.03 | 0.01 | 96 | 1014.3 |
| 20260901062613 | 71 | 261 | 0.0 | 0.0 | 0.00 | 0.03 | 0.01 | 96 | 1014.3 |
| 20260901062545 | 71 | 261 | 0.0 | 0.0 | 0.00 | 0.03 | 0.01 | 96 | 1014.3 |
| 20260901062521 | 71 | 261 | 0.0 | 0.0 | 0.00 | 0.03 | 0.01 | 96 | 1014.5 |
| 20260901062444 | 71 | 261 | 0.0 | 0.0 | 0.00 | 0.03 | 0.01 | 96 | 1014.3 |
| 20260901062344 | 71 | 261 | 0.0 | 0.0 | 0.00 | 0.03 | 0.01 | 96 | 1014.3 |
| 20260901062244 | 71 | 261 | 0.0 | 0.0 | 0.00 | 0.03 | 0.01 | 96 | 1014.3 |
| 20260901062143 | 71 | 261 | 0.0 | 0.0 | 0.00 | 0.03 | 0.01 | 96 | 1014.3 |
| 20260901062043 | 71 | 261 | 0.0 | 0.0 | 0.00 | 0.03 | 0.01 | 96 | 1014.4 |
| 20260901062021 | 71 | 261 | 0.0 | 0.0 | 0.00 | 0.03 | 0.01 | 96 | 1014.6 |
| 20260901061943 | 71 | 261 | 0.0 | 0.0 | 0.00 | 0.03 | 0.01 | 96 | 1014.4 |
| 20260901061842 | 71 | 261 | 0.0 | 0.0 | 0.00 | 0.03 | 0.01 | 96 | 1014.4 |
| 20260901061742 | 71 | 261 | 0.0 | 0.0 | 0.00 | 0.03 | 0.01 | 96 | 1014.4 |
| 20260901061641 | 71 | 261 | 0.0 | 0.0 | 0.00 | 0.03 | 0.01 | 96 | 1014.4 |
| 20260901061541 | 71 | 261 | 0.0 | 0.0 | 0.00 | 0.03 | 0.01 | 96 | 1014.4 |
| 20260901061521 | 71 | 261 | 0.0 | 0.0 | 0.00 | 0.03 | 0.01 | 96 | 1014.6 |
| 20260901061440 | 71 | 261 | 0.0 | 0.0 | 0.00 | 0.03 | 0.01 | 96 | 1014.4 |
| 20260901061339 | 71 | 261 | 0.0 | 0.0 | 0.00 | 0.03 | 0.01 | 96 | 1014.4 |
| 20260901061239 | 71 | 261 | 0.0 | 0.0 | 0.00 | 0.03 | 0.01 | 96 | 1014.5 |
| 20260901061138 | 71 | 261 | 0.0 | 0.0 | 0.00 | 0.03 | 0.01 | 96 | 1014.5 |
| 20260901061037 | 71 | 261 | 0.0 | 0.0 | 0.00 | 0.03 | 0.01 | 96 | 1014.5 |
| 20260901061022 | 71 | 261 | 0.0 | 0.0 | 0.00 | 0.03 | 0.01 | 96 | 1014.7 |
| 20260901060952 | 71 | 261 | 0.0 | 0.0 | 0.00 | 0.03 | 0.01 | 96 | 1014.5 |
| 20260901060944 | 71 | 261 | 0.0 | 0.0 | 0.00 | 0.03 | 0.01 | 96 | 1014.5 |
| 20260901060751 | 71 | 261 | 0.0 | 0.0 | 0.00 | 0.03 | 0.01 | 96 | 1014.5 |
| 20260901060745 | 71 | 261 | 0.0 | 0.0 | 0.00 | 0.03 | 0.01 | 96 | 1014.5 |
| 20260901060609 | 71 | 261 | 0.0 | 0.0 | 0.00 | 0.03 | 0.01 | 96 | 1014.5 |
| 20260901060535 | 71 | 261 | 0.0 | 0.0 | 0.00 | 0.03 | 0.01 | 96 | 1014.5 |
| 20260901060521 | 71 | 261 | 0.0 | 0.0 | 0.00 | 0.03 | 0.01 | 96 | 1014.6 |
| 20260901060456 | 71 | 261 | 0.0 | 0.0 | 0.00 | 0.03 | 0.01 | 96 | 1014.4 |
| 20260901060335 | 71 | 261 | 0.0 | 0.0 | 0.00 | 0.03 | 0.01 | 96 | 1014.5 |
| 20260901060248 | 71 | 261 | 0.0 | 0.0 | 0.00 | 0.03 | 0.01 | 96 | 1014.5 |
| 20260901060243 | 71 | 261 | 0.0 | 0.0 | 0.00 | 0.03 | 0.01 | 96 | 1014.4 |
| 20260901060033 | 71 | 261 | 0.0 | 0.0 | 0.00 | 0.03 | 0.01 | 96 | 1014.4 |
| 20260901060021 | 71 | 261 | 0.0 | 0.0 | 0.00 | 0.03 | 0.01 | 96 | 1014.7 |
| 20260901055931 | 71 | 261 | 0.0 | 0.0 | 0.00 | 0.03 | 0.01 | 96 | 1014.5 |
| 20260901055831 | 71 | 261 | 0.0 | 0.0 | 0.00 | 0.03 | 0.01 | 96 | 1014.5 |
| 20260901055730 | 71 | 261 | 0.0 | 0.0 | 0.00 | 0.03 | 0.01 | 96 | 1014.5 |
| 20260901055722 | 71 | 261 | 0.0 | 0.0 | 0.00 | 0.03 | 0.01 | 96 | 1014.5 |
| 20260901055716 | 71 | 261 | 0.0 | 0.0 | 0.00 | 0.03 | 0.01 | 96 | 1014.5 |
| 20260901055603 | 71 | 261 | 0.0 | 0.0 | 0.00 | 0.03 | 0.01 | 96 | 1014.5 |
| 20260901055521 | 71 | 261 | 0.0 | 0.0 | 0.00 | 0.03 | 0.01 | 96 | 1014.7 |
| 20260901055329 | 71 | 261 | 0.0 | 0.0 | 0.00 | 0.03 | 0.01 | 96 | 1014.5 |
| 20260901055227 | 71 | 261 | 0.0 | 0.0 | 0.00 | 0.03 | 0.01 | 96 | 1014.5 |
| 20260901055127 | 71 | 261 | 0.0 | 0.0 | 0.00 | 0.03 | 0.01 | 96 | 1014.5 |
| 20260901055028 | 71 | 261 | 0.0 | 0.0 | 0.00 | 0.03 | 0.01 | 96 | 1014.5 |
| 20260901055021 | 71 | 261 | 0.0 | 0.0 | 0.00 | 0.03 | 0.01 | 96 | 1014.7 |
| 20260901054927 | 71 | 261 | 0.0 | 0.0 | 0.00 | 0.03 | 0.01 | 96 | 1014.5 |
| 20260901054826 | 71 | 261 | 0.0 | 0.0 | 0.00 | 0.03 | 0.01 | 96 | 1014.6 |
| 20260901054726 | 71 | 261 | 0.0 | 0.0 | 0.00 | 0.03 | 0.01 | 96 | 1014.6 |
| 20260901054625 | 71 | 261 | 0.0 | 0.0 | 0.00 | 0.03 | 0.01 | 96 | 1014.6 |
| 20260901054602 | 71 | 261 | 0.0 | 0.0 | 0.00 | 0.03 | 0.01 | 96 | 1014.6 |
| 20260901054525 | 71 | 261 | 0.0 | 0.0 | 0.00 | 0.03 | 0.01 | 96 | 1014.6 |
| 20260901054521 | 71 | 261 | 0.0 | 0.0 | 0.00 | 0.03 | 0.01 | 96 | 1014.8 |
| 20260901054452 | 71 | 261 | 0.0 | 0.0 | 0.00 | 0.03 | 0.01 | 96 | 1014.6 |
| 20260901054324 | 71 | 261 | 0.0 | 0.0 | 0.00 | 0.03 | 0.01 | 96 | 1014.6 |
| 20260901054222 | 71 | 261 | 0.0 | 0.0 | 0.00 | 0.03 | 0.01 | 96 | 1014.6 |
| 20260901054122 | 71 | 261 | 0.0 | 0.0 | 0.00 | 0.03 | 0.01 | 96 | 1014.6 |
| 20260901054037 | 71 | 261 | 0.0 | 0.0 | 0.00 | 0.03 | 0.01 | 96 | 1014.6 |
| 20260901054031 | 71 | 261 | 0.0 | 0.0 | 0.00 | 0.03 | 0.01 | 96 | 1014.6 |
| 20260901054023 | 71 | 261 | 0.0 | 0.0 | 0.00 | 0.03 | 0.01 | 96 | 1014.8 |
| 20260901053836 | 71 | 261 | 0.0 | 0.0 | 0.00 | 0.03 | 0.01 | 96 | 1014.6 |
| 20260901053830 | 71 | 261 | 0.0 | 0.0 | 0.00 | 0.03 | 0.01 | 96 | 1014.7 |
| 20260901053621 | 71 | 261 | 0.0 | 0.0 | 0.00 | 0.03 | 0.01 | 96 | 1014.6 |
| 20260901053521 | 71 | 261 | 0.0 | 0.0 | 0.00 | 0.03 | 0.01 | 96 | 1014.8 |
| 20260901053420 | 71 | 261 | 0.0 | 0.0 | 0.00 | 0.03 | 0.01 | 96 | 1014.6 |
| 20260901053320 | 71 | 261 | 0.0 | 0.0 | 0.00 | 0.03 | 0.01 | 96 | 1014.5 |
| 20260901053219 | 71 | 261 | 0.0 | 0.0 | 0.00 | 0.03 | 0.01 | 96 | 1014.5 |
| 20260901053119 | 71 | 261 | 0.0 | 0.0 | 0.00 | 0.03 | 0.01 | 96 | 1014.6 |
| 20260901053021 | 71 | 261 | 0.0 | 0.0 | 0.01 | 0.03 | 0.01 | 96 | 1014.7 |
| 20260901053018 | 71 | 261 | 0.0 | 0.0 | 0.01 | 0.03 | 0.01 | 96 | 1014.5 |
| 20260901052918 | 71 | 261 | 0.0 | 0.0 | 0.01 | 0.03 | 0.01 | 96 | 1014.5 |
| 20260901052818 | 71 | 261 | 0.0 | 0.0 | 0.01 | 0.03 | 0.01 | 96 | 1014.5 |
| 20260901052717 | 71 | 261 | 0.0 | 0.0 | 0.01 | 0.03 | 0.01 | 96 | 1014.6 |
| 20260901052617 | 71 | 261 | 0.0 | 0.0 | 0.01 | 0.03 | 0.01 | 96 | 1014.5 |
| 20260901052554 | 71 | 261 | 0.0 | 0.0 | 0.01 | 0.03 | 0.01 | 96 | 1014.5 |
| 20260901052537 | 71 | 261 | 0.0 | 0.0 | 0.01 | 0.03 | 0.01 | 96 | 1014.7 |
| 20260901052516 | 71 | 261 | 0.0 | 0.0 | 0.01 | 0.03 | 0.01 | 96 | 1014.5 |
| 20260901052443 | 71 | 261 | 0.0 | 0.0 | 0.01 | 0.03 | 0.01 | 96 | 1014.5 |
| 20260901052329 | 71 | 261 | 0.0 | 0.0 | 0.01 | 0.03 | 0.01 | 96 | 1014.5 |
| 20260901052324 | 71 | 261 | 0.0 | 0.0 | 0.01 | 0.03 | 0.01 | 96 | 1014.5 |
| 20260901052114 | 71 | 261 | 0.0 | 0.0 | 0.01 | 0.03 | 0.01 | 96 | 1014.5 |
| 20260901052021 | 71 | 261 | 0.0 | 0.0 | 0.01 | 0.03 | 0.01 | 96 | 1014.6 |
| 20260901052014 | 71 | 261 | 0.0 | 0.0 | 0.01 | 0.03 | 0.01 | 96 | 1014.5 |
| 20260901051912 | 71 | 261 | 0.0 | 0.0 | 0.01 | 0.03 | 0.01 | 96 | 1014.4 |
| 20260901051813 | 71 | 261 | 0.0 | 0.0 | 0.01 | 0.03 | 0.01 | 96 | 1014.4 |
| 20260901051727 | 71 | 261 | 0.0 | 0.0 | 0.01 | 0.03 | 0.01 | 96 | 1014.4 |
| 20260901051721 | 71 | 261 | 0.0 | 0.0 | 0.01 | 0.03 | 0.01 | 96 | 1014.4 |
| 20260901051603 | 71 | 261 | 0.0 | 0.0 | 0.01 | 0.03 | 0.01 | 96 | 1014.3 |
| 20260901051557 | 71 | 261 | 0.0 | 0.0 | 0.01 | 0.03 | 0.01 | 96 | 1014.4 |
| 20260901051550 | 71 | 261 | 0.0 | 0.0 | 0.01 | 0.03 | 0.01 | 96 | 1014.4 |
| 20260901051521 | 71 | 261 | 0.0 | 0.0 | 0.01 | 0.03 | 0.01 | 96 | 1014.6 |
| 20260901051311 | 71 | 262 | 0.0 | 0.0 | 0.01 | 0.03 | 0.01 | 96 | 1014.3 |
| 20260901051210 | 71 | 262 | 0.0 | 0.0 | 0.01 | 0.03 | 0.01 | 96 | 1014.4 |
| 20260901051109 | 71 | 262 | 0.0 | 0.0 | 0.01 | 0.03 | 0.01 | 96 | 1014.4 |
| 20260901051021 | 71 | 262 | 0.0 | 0.0 | 0.01 | 0.03 | 0.01 | 96 | 1014.6 |
| 20260901051009 | 71 | 262 | 0.0 | 0.0 | 0.01 | 0.03 | 0.01 | 96 | 1014.4 |
| 20260901050908 | 71 | 262 | 0.0 | 0.0 | 0.01 | 0.03 | 0.01 | 96 | 1014.4 |
| 20260901050808 | 71 | 262 | 0.0 | 0.0 | 0.01 | 0.03 | 0.01 | 96 | 1014.4 |
| 20260901050707 | 71 | 262 | 0.0 | 0.0 | 0.01 | 0.03 | 0.01 | 96 | 1014.4 |
| 20260901050608 | 71 | 262 | 0.0 | 0.0 | 0.01 | 0.03 | 0.01 | 96 | 1014.5 |
| 20260901050522 | 71 | 262 | 0.0 | 0.0 | 0.01 | 0.03 | 0.01 | 96 | 1014.8 |
| 20260901050506 | 71 | 262 | 0.0 | 0.0 | 0.01 | 0.03 | 0.01 | 96 | 1014.5 |
| 20260901050405 | 70 | 262 | 0.0 | 0.0 | 0.01 | 0.03 | 0.01 | 96 | 1014.6 |
| 20260901050305 | 70 | 262 | 0.0 | 0.0 | 0.01 | 0.03 | 0.01 | 96 | 1014.6 |
| 20260901050204 | 70 | 262 | 0.0 | 0.0 | 0.01 | 0.03 | 0.01 | 96 | 1014.7 |
| 20260901050104 | 70 | 262 | 0.0 | 0.0 | 0.01 | 0.03 | 0.01 | 96 | 1014.7 |
| 20260901050022 | 70 | 262 | 0.0 | 0.0 | 0.01 | 0.03 | 0.01 | 96 | 1015.0 |
| 20260901050004 | 70 | 262 | 0.0 | 0.0 | 0.01 | 0.03 | 0.01 | 96 | 1014.8 |
| 20260901045919 | 70 | 262 | 0.0 | 0.0 | 0.01 | 0.03 | 0.01 | 96 | 1014.8 |
| 20260901045911 | 70 | 262 | 0.0 | 0.0 | 0.01 | 0.03 | 0.01 | 96 | 1014.8 |
| 20260901045712 | 70 | 262 | 0.0 | 0.0 | 0.01 | 0.03 | 0.01 | 96 | 1014.8 |
| 20260901045703 | 70 | 262 | 0.0 | 0.0 | 0.01 | 0.03 | 0.01 | 96 | 1014.8 |
| 20260901045521 | 70 | 262 | 0.0 | 0.0 | 0.01 | 0.03 | 0.01 | 96 | 1015.0 |
| 20260901045502 | 70 | 262 | 0.0 | 0.0 | 0.01 | 0.03 | 0.01 | 96 | 1014.8 |
| 20260901045440 | 70 | 261 | 0.0 | 0.0 | 0.01 | 0.03 | 0.01 | 96 | 1014.7 |
| 20260901045306 | 70 | 261 | 0.0 | 0.0 | 0.01 | 0.03 | 0.01 | 96 | 1014.7 |
| 20260901045226 | 70 | 261 | 0.0 | 0.0 | 0.01 | 0.03 | 0.01 | 96 | 1014.7 |
| 20260901045222 | 70 | 261 | 0.0 | 0.0 | 0.01 | 0.03 | 0.01 | 96 | 1014.7 |
| 20260901045217 | 70 | 261 | 0.0 | 0.0 | 0.01 | 0.03 | 0.01 | 96 | 1014.7 |
| 20260901045021 | 70 | 261 | 0.0 | 0.0 | 0.01 | 0.03 | 0.01 | 96 | 1014.9 |
| 20260901044831 | 70 | 261 | 0.0 | 0.0 | 0.01 | 0.03 | 0.01 | 96 | 1014.6 |
| 20260901044758 | 70 | 269 | 0.0 | 0.0 | 0.01 | 0.03 | 0.01 | 96 | 1014.7 |
| 20260901044657 | 70 | 269 | 0.0 | 0.0 | 0.01 | 0.03 | 0.01 | 96 | 1014.7 |
| 20260901044556 | 70 | 269 | 0.0 | 0.0 | 0.01 | 0.03 | 0.01 | 96 | 1014.7 |
| 20260901044521 | 70 | 182 | 0.0 | 0.0 | 0.01 | 0.03 | 0.01 | 96 | 1014.9 |
| 20260901044456 | 70 | 182 | 0.0 | 0.0 | 0.01 | 0.03 | 0.01 | 96 | 1014.7 |
| 20260901044333 | 70 | 182 | 0.0 | 0.0 | 0.01 | 0.03 | 0.01 | 96 | 1014.7 |
| 20260901044255 | 70 | 182 | 0.0 | 0.0 | 0.01 | 0.03 | 0.01 | 96 | 1014.7 |
| 20260901044154 | 70 | 182 | 0.0 | 0.0 | 0.01 | 0.03 | 0.01 | 96 | 1014.6 |
| 20260901044053 | 70 | 182 | 0.0 | 0.0 | 0.01 | 0.03 | 0.01 | 96 | 1014.6 |
| 20260901044021 | 70 | 182 | 0.0 | 0.0 | 0.01 | 0.03 | 0.01 | 96 | 1014.8 |
| 20260901043953 | 70 | 182 | 0.0 | 0.0 | 0.01 | 0.03 | 0.01 | 96 | 1014.6 |
| 20260901043853 | 70 | 182 | 0.0 | 0.0 | 0.01 | 0.03 | 0.01 | 96 | 1014.6 |
| 20260901043830 | 70 | 173 | 0.0 | 0.0 | 0.01 | 0.03 | 0.01 | 96 | 1014.6 |
| 20260901043752 | 70 | 171 | 0.0 | 0.0 | 0.01 | 0.03 | 0.01 | 96 | 1014.6 |
| 20260901043652 | 70 | 173 | 0.0 | 0.0 | 0.01 | 0.03 | 0.01 | 96 | 1014.6 |
| 20260901043550 | 70 | 173 | 0.0 | 0.0 | 0.01 | 0.03 | 0.01 | 96 | 1014.6 |
| 20260901043521 | 70 | 173 | 0.0 | 0.0 | 0.01 | 0.03 | 0.01 | 96 | 1014.8 |
| 20260901043504 | 69 | 139 | 0.0 | 0.0 | 0.01 | 0.03 | 0.01 | 96 | 1014.6 |
| 20260901043459 | 69 | 198 | 0.0 | 0.0 | 0.01 | 0.03 | 0.01 | 96 | 1014.6 |
| 20260901043329 | 69 | 146 | 0.0 | 0.0 | 0.01 | 0.03 | 0.01 | 96 | 1014.6 |
| 20260901043249 | 69 | 167 | 0.0 | 0.0 | 0.01 | 0.03 | 0.01 | 96 | 1014.6 |
| 20260901043149 | 69 | 169 | 0.0 | 0.0 | 0.01 | 0.03 | 0.01 | 96 | 1014.7 |
| 20260901043102 | 69 | 150 | 0.0 | 0.0 | 0.00 | 0.02 | 0.00 | 96 | 1014.7 |
| 20260901043057 | 69 | 165 | 0.0 | 0.0 | 0.01 | 0.03 | 0.01 | 96 | 1014.7 |
| 20260901043021 | 69 | 147 | 0.0 | 0.0 | 0.00 | 0.02 | 0.00 | 96 | 1014.9 |
| 20260901042848 | 69 | 167 | 0.0 | 0.0 | 0.00 | 0.02 | 0.00 | 95 | 1014.8 |
| 20260901042827 | 69 | 151 | 0.0 | 0.0 | 0.00 | 0.02 | 0.00 | 95 | 1014.8 |
| 20260901042801 | 69 | 183 | 0.0 | 0.0 | 0.00 | 0.02 | 0.00 | 95 | 1014.9 |
| 20260901042756 | 69 | 161 | 0.0 | 0.0 | 0.00 | 0.02 | 0.00 | 95 | 1014.9 |
| 20260901042546 | 69 | 224 | 0.0 | 0.0 | 0.00 | 0.02 | 0.00 | 95 | 1015.0 |
| 20260901042522 | 69 | 224 | 0.0 | 0.0 | 0.00 | 0.02 | 0.00 | 95 | 1015.3 |
| 20260901042446 | 69 | 226 | 0.0 | 0.0 | 0.00 | 0.02 | 0.00 | 95 | 1015.1 |
| 20260901042327 | 69 | 228 | 0.0 | 0.0 | 0.00 | 0.02 | 0.00 | 95 | 1015.1 |
| 20260901042245 | 69 | 228 | 0.0 | 0.0 | 0.00 | 0.02 | 0.00 | 95 | 1015.1 |
| 20260901042144 | 69 | 228 | 0.0 | 0.0 | 0.00 | 0.02 | 0.00 | 96 | 1015.2 |
| 20260901042044 | 69 | 228 | 0.0 | 0.0 | 0.00 | 0.02 | 0.00 | 96 | 1015.3 |
| 20260901042022 | 69 | 228 | 0.0 | 0.0 | 0.00 | 0.02 | 0.00 | 96 | 1015.5 |
| 20260901041944 | 69 | 228 | 0.0 | 0.0 | 0.00 | 0.02 | 0.00 | 96 | 1015.3 |
| 20260901041902 | 69 | 228 | 0.0 | 0.0 | 0.00 | 0.02 | 0.00 | 96 | 1015.4 |
| 20260901041850 | 69 | 228 | 0.0 | 0.0 | 0.00 | 0.02 | 0.00 | 96 | 1015.3 |
| 20260901041642 | 69 | 228 | 0.0 | 0.0 | 0.00 | 0.02 | 0.00 | 95 | 1015.4 |
| 20260901041542 | 69 | 228 | 0.0 | 0.0 | 0.00 | 0.02 | 0.00 | 95 | 1015.4 |
| 20260901041521 | 69 | 228 | 0.0 | 0.0 | 0.00 | 0.02 | 0.00 | 96 | 1015.6 |
| 20260901041455 | 69 | 228 | 0.0 | 0.0 | 0.00 | 0.02 | 0.00 | 96 | 1015.4 |
| 20260901041450 | 69 | 228 | 0.0 | 0.0 | 0.00 | 0.02 | 0.00 | 96 | 1015.4 |
| 20260901041323 | 69 | 228 | 0.0 | 0.0 | 0.00 | 0.02 | 0.00 | 96 | 1015.4 |
| 20260901041240 | 69 | 228 | 0.0 | 0.0 | 0.00 | 0.02 | 0.00 | 96 | 1015.4 |
| 20260901041140 | 69 | 228 | 0.0 | 0.0 | 0.00 | 0.02 | 0.00 | 96 | 1015.4 |
| 20260901041040 | 69 | 228 | 0.0 | 0.0 | 0.00 | 0.02 | 0.00 | 96 | 1015.4 |
| 20260901041021 | 69 | 228 | 0.0 | 0.0 | 0.00 | 0.02 | 0.00 | 96 | 1015.6 |
| 20260901040939 | 69 | 228 | 0.0 | 0.0 | 0.00 | 0.02 | 0.00 | 96 | 1015.4 |
| 20260901040821 | 69 | 228 | 0.0 | 0.0 | 0.00 | 0.02 | 0.00 | 96 | 1015.4 |
| 20260901040739 | 69 | 228 | 0.0 | 0.0 | 0.00 | 0.02 | 0.00 | 96 | 1015.5 |
| 20260901040639 | 69 | 228 | 0.0 | 0.0 | 0.00 | 0.02 | 0.00 | 96 | 1015.4 |
| 20260901040538 | 69 | 228 | 0.0 | 0.0 | 0.00 | 0.02 | 0.00 | 96 | 1015.4 |
| 20260901040522 | 69 | 228 | 0.0 | 0.0 | 0.00 | 0.02 | 0.00 | 96 | 1015.6 |
| 20260901040437 | 69 | 228 | 0.0 | 0.0 | 0.00 | 0.02 | 0.00 | 96 | 1015.4 |
| 20260901040321 | 69 | 228 | 0.0 | 0.0 | 0.00 | 0.02 | 0.00 | 96 | 1015.5 |
| 20260901040236 | 69 | 228 | 0.0 | 0.0 | 0.00 | 0.02 | 0.00 | 96 | 1015.4 |
| 20260901040136 | 69 | 228 | 0.0 | 0.0 | 0.00 | 0.02 | 0.00 | 96 | 1015.5 |
| 20260901040035 | 69 | 228 | 0.0 | 0.0 | 0.00 | 0.02 | 0.00 | 96 | 1015.4 |
| 20260901040021 | 69 | 228 | 0.0 | 0.0 | 0.00 | 0.02 | 0.00 | 96 | 1015.6 |
| 20260901035935 | 69 | 228 | 0.0 | 0.0 | 0.00 | 0.02 | 0.02 | 96 | 1015.4 |
| 20260901035820 | 69 | 228 | 0.0 | 0.0 | 0.00 | 0.02 | 0.02 | 96 | 1015.4 |
| 20260901035733 | 69 | 228 | 0.0 | 0.0 | 0.00 | 0.02 | 0.02 | 96 | 1015.4 |
| 20260901035633 | 69 | 228 | 0.0 | 0.0 | 0.00 | 0.02 | 0.02 | 95 | 1015.4 |
| 20260901035617 | 69 | 228 | 0.0 | 0.0 | 0.00 | 0.02 | 0.02 | 96 | 1015.4 |
| 20260901035613 | 69 | 228 | 0.0 | 0.0 | 0.00 | 0.02 | 0.02 | 95 | 1015.4 |
| 20260901035609 | 69 | 228 | 0.0 | 0.0 | 0.00 | 0.02 | 0.02 | 95 | 1015.4 |
| 20260901035604 | 69 | 228 | 0.0 | 0.0 | 0.00 | 0.02 | 0.02 | 96 | 1015.3 |
| 20260901035521 | 69 | 228 | 0.0 | 0.0 | 0.00 | 0.02 | 0.02 | 96 | 1015.5 |
| 20260901035337 | 69 | 228 | 0.0 | 0.0 | 0.00 | 0.02 | 0.02 | 95 | 1015.4 |
| 20260901035131 | 69 | 228 | 0.0 | 0.0 | 0.00 | 0.02 | 0.02 | 95 | 1015.4 |
| 20260901035042 | 69 | 228 | 0.0 | 0.0 | 0.00 | 0.02 | 0.02 | 95 | 1015.4 |
| 20260901035038 | 69 | 228 | 0.0 | 0.0 | 0.00 | 0.02 | 0.02 | 95 | 1015.4 |
| 20260901035022 | 69 | 228 | 0.0 | 0.0 | 0.00 | 0.02 | 0.02 | 95 | 1015.5 |
| 20260901034818 | 69 | 228 | 0.0 | 0.0 | 0.00 | 0.02 | 0.02 | 95 | 1015.3 |
| 20260901034728 | 69 | 228 | 0.0 | 0.0 | 0.00 | 0.02 | 0.02 | 95 | 1015.3 |
| 20260901034627 | 69 | 228 | 0.0 | 0.0 | 0.00 | 0.02 | 0.02 | 95 | 1015.3 |
| 20260901034527 | 69 | 228 | 0.0 | 0.0 | 0.00 | 0.02 | 0.02 | 95 | 1015.3 |
| 20260901034521 | 69 | 228 | 0.0 | 0.0 | 0.00 | 0.02 | 0.02 | 95 | 1015.4 |
| 20260901034428 | 69 | 228 | 0.0 | 0.0 | 0.00 | 0.02 | 0.02 | 95 | 1015.3 |
| 20260901034317 | 69 | 228 | 0.0 | 0.0 | 0.00 | 0.02 | 0.02 | 95 | 1015.4 |
| 20260901034226 | 69 | 228 | 0.0 | 0.0 | 0.00 | 0.02 | 0.02 | 95 | 1015.3 |
| 20260901034126 | 69 | 228 | 0.0 | 0.0 | 0.00 | 0.02 | 0.02 | 95 | 1015.4 |
| 20260901034041 | 69 | 228 | 0.0 | 0.0 | 0.00 | 0.02 | 0.02 | 95 | 1015.3 |
| 20260901034026 | 69 | 228 | 0.0 | 0.0 | 0.00 | 0.02 | 0.02 | 95 | 1015.3 |
| 20260901034022 | 69 | 228 | 0.0 | 0.0 | 0.00 | 0.02 | 0.02 | 95 | 1015.5 |
| 20260901033935 | 69 | 228 | 0.0 | 0.0 | 0.00 | 0.02 | 0.02 | 95 | 1015.4 |
| 20260901033926 | 69 | 228 | 0.0 | 0.0 | 0.00 | 0.02 | 0.02 | 95 | 1015.3 |
| 20260901033724 | 69 | 228 | 0.0 | 0.0 | 0.00 | 0.02 | 0.02 | 95 | 1015.4 |
| 20260901033622 | 69 | 228 | 0.0 | 0.0 | 0.00 | 0.02 | 0.02 | 95 | 1015.4 |
| 20260901033522 | 69 | 228 | 0.0 | 0.0 | 0.00 | 0.02 | 0.02 | 95 | 1015.5 |
| 20260901033439 | 69 | 228 | 0.0 | 0.0 | 0.00 | 0.02 | 0.02 | 95 | 1015.4 |
| 20260901033435 | 69 | 228 | 0.0 | 0.0 | 0.00 | 0.02 | 0.02 | 95 | 1015.4 |
| 20260901033320 | 69 | 228 | 0.0 | 0.0 | 0.00 | 0.02 | 0.02 | 95 | 1015.4 |
| 20260901033220 | 69 | 228 | 0.0 | 0.0 | 0.00 | 0.02 | 0.02 | 95 | 1015.3 |
| 20260901033120 | 69 | 228 | 0.0 | 0.0 | 0.00 | 0.02 | 0.02 | 95 | 1015.3 |
| 20260901033100 | 69 | 228 | 0.0 | 0.0 | 0.00 | 0.02 | 0.02 | 95 | 1015.4 |
| 20260901033054 | 69 | 228 | 0.0 | 0.0 | 0.00 | 0.02 | 0.02 | 95 | 1015.4 |
| 20260901033036 | 69 | 228 | 0.0 | 0.0 | 0.00 | 0.02 | 0.02 | 95 | 1015.5 |
| 20260901032941 | 69 | 228 | 0.0 | 0.0 | 0.00 | 0.02 | 0.02 | 95 | 1015.4 |
| 20260901032827 | 69 | 228 | 0.0 | 0.0 | 0.00 | 0.02 | 0.02 | 95 | 1015.4 |
| 20260901032615 | 69 | 228 | 0.0 | 0.0 | 0.00 | 0.02 | 0.02 | 95 | 1015.4 |
| 20260901032521 | 69 | 228 | 0.0 | 0.0 | 0.00 | 0.02 | 0.02 | 95 | 1015.5 |
| 20260901032514 | 69 | 228 | 0.0 | 0.0 | 0.00 | 0.02 | 0.02 | 95 | 1015.5 |
| 20260901032413 | 69 | 228 | 0.0 | 0.0 | 0.00 | 0.02 | 0.02 | 95 | 1015.4 |
| 20260901032314 | 69 | 228 | 0.0 | 0.0 | 0.00 | 0.02 | 0.02 | 95 | 1015.5 |
| 20260901032212 | 69 | 228 | 0.0 | 0.0 | 0.00 | 0.02 | 0.02 | 95 | 1015.5 |
| 20260901032112 | 69 | 228 | 0.0 | 0.0 | 0.00 | 0.02 | 0.02 | 95 | 1015.5 |
| 20260901032021 | 69 | 228 | 0.0 | 0.0 | 0.00 | 0.02 | 0.02 | 95 | 1015.6 |
| 20260901032012 | 69 | 228 | 0.0 | 0.0 | 0.00 | 0.02 | 0.02 | 95 | 1015.5 |
| 20260901031911 | 69 | 228 | 0.0 | 0.0 | 0.00 | 0.02 | 0.02 | 95 | 1015.5 |
| 20260901031811 | 69 | 228 | 0.0 | 0.0 | 0.00 | 0.02 | 0.02 | 95 | 1015.5 |
| 20260901031711 | 69 | 228 | 0.0 | 0.0 | 0.00 | 0.02 | 0.02 | 95 | 1015.5 |
| 20260901031624 | 69 | 228 | 0.0 | 0.0 | 0.00 | 0.02 | 0.02 | 95 | 1015.5 |
| 20260901031620 | 69 | 228 | 0.0 | 0.0 | 0.00 | 0.02 | 0.02 | 95 | 1015.6 |
| 20260901031521 | 69 | 228 | 0.0 | 0.0 | 0.00 | 0.02 | 0.02 | 95 | 1015.7 |
| 20260901031410 | 69 | 228 | 0.0 | 0.0 | 0.00 | 0.02 | 0.02 | 95 | 1015.6 |
| 20260901031309 | 69 | 228 | 0.0 | 0.0 | 0.00 | 0.02 | 0.02 | 95 | 1015.6 |
| 20260901031209 | 69 | 228 | 0.0 | 0.0 | 0.00 | 0.02 | 0.02 | 95 | 1015.7 |
| 20260901031108 | 69 | 228 | 0.0 | 0.0 | 0.00 | 0.02 | 0.02 | 95 | 1015.7 |
| 20260901031022 | 69 | 228 | 0.0 | 0.0 | 0.00 | 0.02 | 0.02 | 95 | 1015.7 |
| 20260901031008 | 69 | 228 | 0.0 | 0.0 | 0.00 | 0.02 | 0.02 | 95 | 1015.7 |
| 20260901030908 | 69 | 228 | 0.0 | 0.0 | 0.00 | 0.02 | 0.02 | 95 | 1015.6 |
| 20260901030813 | 69 | 228 | 0.0 | 0.0 | 0.00 | 0.02 | 0.02 | 95 | 1015.7 |
| 20260901030807 | 69 | 228 | 0.0 | 0.0 | 0.00 | 0.02 | 0.02 | 95 | 1015.6 |
| 20260901030706 | 69 | 228 | 0.0 | 0.0 | 0.00 | 0.02 | 0.02 | 95 | 1015.6 |
| 20260901030605 | 69 | 228 | 0.0 | 0.0 | 0.00 | 0.02 | 0.02 | 95 | 1015.5 |
| 20260901030522 | 69 | 228 | 0.0 | 0.0 | 0.00 | 0.02 | 0.02 | 95 | 1015.6 |
| 20260901030505 | 69 | 228 | 0.0 | 0.0 | 0.00 | 0.02 | 0.02 | 95 | 1015.5 |
| 20260901030404 | 69 | 228 | 0.0 | 0.0 | 0.00 | 0.02 | 0.02 | 95 | 1015.5 |
| 20260901030304 | 69 | 228 | 0.0 | 0.0 | 0.00 | 0.02 | 0.02 | 95 | 1015.5 |
| 20260901030203 | 69 | 228 | 0.0 | 0.0 | 0.00 | 0.02 | 0.02 | 95 | 1015.5 |
| 20260901030028 | 69 | 228 | 0.0 | 0.0 | 0.00 | 0.02 | 0.02 | 95 | 1015.5 |
| 20260901030022 | 69 | 228 | 0.0 | 0.0 | 0.00 | 0.02 | 0.02 | 95 | 1015.6 |
| 20260901025906 | 69 | 228 | 0.0 | 0.0 | 0.00 | 0.02 | 0.02 | 95 | 1015.6 |
| 20260901025700 | 69 | 228 | 0.0 | 0.0 | 0.00 | 0.02 | 0.02 | 95 | 1015.6 |
| 20260901025600 | 69 | 228 | 0.0 | 0.0 | 0.00 | 0.02 | 0.02 | 95 | 1015.5 |
| 20260901025533 | 69 | 228 | 0.0 | 0.0 | 0.00 | 0.02 | 0.02 | 95 | 1015.5 |
| 20260901025528 | 69 | 228 | 0.0 | 0.0 | 0.00 | 0.02 | 0.02 | 95 | 1015.5 |
| 20260901025523 | 69 | 228 | 0.0 | 0.0 | 0.00 | 0.02 | 0.02 | 95 | 1015.5 |
| 20260901025521 | 69 | 228 | 0.0 | 0.0 | 0.00 | 0.02 | 0.02 | 95 | 1015.6 |
| 20260901025405 | 69 | 228 | 0.0 | 0.0 | 0.00 | 0.02 | 0.02 | 95 | 1015.5 |
| 20260901025157 | 69 | 228 | 0.0 | 0.0 | 0.00 | 0.02 | 0.02 | 95 | 1015.5 |
| 20260901025057 | 69 | 228 | 0.0 | 0.0 | 0.00 | 0.02 | 0.02 | 95 | 1015.5 |
| 20260901025021 | 69 | 228 | 0.0 | 0.0 | 0.00 | 0.02 | 0.02 | 95 | 1015.6 |
| 20260901024957 | 69 | 228 | 0.0 | 0.0 | 0.00 | 0.02 | 0.02 | 95 | 1015.5 |
| 20260901024929 | 69 | 228 | 0.0 | 0.0 | 0.00 | 0.02 | 0.02 | 95 | 1015.4 |
| 20260901024925 | 69 | 228 | 0.0 | 0.0 | 0.00 | 0.02 | 0.02 | 95 | 1015.5 |
| 20260901024911 | 69 | 228 | 0.0 | 0.0 | 0.00 | 0.02 | 0.02 | 95 | 1015.4 |
| 20260901024555 | 69 | 228 | 0.0 | 0.0 | 0.00 | 0.02 | 0.02 | 95 | 1015.5 |
| 20260901024522 | 69 | 228 | 0.0 | 0.0 | 0.00 | 0.02 | 0.02 | 95 | 1015.6 |
| 20260901024455 | 69 | 228 | 0.0 | 0.0 | 0.00 | 0.02 | 0.02 | 95 | 1015.5 |
| 20260901024354 | 69 | 228 | 0.0 | 0.0 | 0.00 | 0.02 | 0.02 | 95 | 1015.5 |
| 20260901024309 | 69 | 228 | 0.0 | 0.0 | 0.00 | 0.02 | 0.02 | 95 | 1015.5 |
| 20260901024254 | 69 | 228 | 0.0 | 0.0 | 0.00 | 0.02 | 0.02 | 95 | 1015.5 |
| 20260901024153 | 69 | 228 | 0.0 | 0.0 | 0.00 | 0.02 | 0.02 | 95 | 1015.5 |
| 20260901024052 | 69 | 228 | 0.0 | 0.0 | 0.00 | 0.02 | 0.02 | 95 | 1015.4 |
| 20260901024022 | 69 | 228 | 0.0 | 0.0 | 0.00 | 0.02 | 0.02 | 95 | 1015.6 |
| 20260901023952 | 69 | 228 | 0.0 | 0.0 | 0.00 | 0.02 | 0.02 | 95 | 1015.5 |
| 20260901023851 | 69 | 228 | 0.0 | 0.0 | 0.00 | 0.02 | 0.02 | 94 | 1015.5 |
| 20260901023809 | 69 | 228 | 0.0 | 0.0 | 0.00 | 0.02 | 0.02 | 94 | 1015.5 |
| 20260901023751 | 69 | 228 | 0.0 | 0.0 | 0.00 | 0.02 | 0.02 | 94 | 1015.5 |
| 20260901023713 | 69 | 228 | 0.0 | 0.0 | 0.00 | 0.02 | 0.02 | 94 | 1015.5 |
| 20260901023559 | 69 | 228 | 0.0 | 0.0 | 0.00 | 0.02 | 0.02 | 95 | 1015.6 |
| 20260901023537 | 69 | 228 | 0.0 | 0.0 | 0.00 | 0.02 | 0.02 | 95 | 1015.7 |
| 20260901023350 | 69 | 228 | 0.0 | 0.0 | 0.00 | 0.02 | 0.02 | 95 | 1015.5 |
| 20260901023308 | 69 | 228 | 0.0 | 0.0 | 0.00 | 0.02 | 0.02 | 95 | 1015.5 |
| 20260901023302 | 69 | 228 | 0.0 | 0.0 | 0.00 | 0.02 | 0.02 | 95 | 1015.6 |
| 20260901023258 | 69 | 228 | 0.0 | 0.0 | 0.00 | 0.02 | 0.02 | 95 | 1015.5 |
| 20260901023049 | 69 | 228 | 0.0 | 0.0 | 0.00 | 0.02 | 0.02 | 95 | 1015.6 |
| 20260901023022 | 69 | 228 | 0.0 | 0.0 | 0.00 | 0.02 | 0.02 | 95 | 1015.7 |
| 20260901022947 | 69 | 228 | 0.0 | 0.0 | 0.00 | 0.02 | 0.02 | 95 | 1015.6 |
| 20260901022847 | 69 | 228 | 0.0 | 0.0 | 0.00 | 0.02 | 0.02 | 95 | 1015.6 |
| 20260901022809 | 69 | 228 | 0.0 | 0.0 | 0.00 | 0.02 | 0.02 | 95 | 1015.6 |
| 20260901022746 | 69 | 228 | 0.0 | 0.0 | 0.00 | 0.02 | 0.02 | 95 | 1015.6 |
| 20260901022659 | 69 | 228 | 0.0 | 0.0 | 0.00 | 0.02 | 0.02 | 95 | 1015.6 |
| 20260901022655 | 69 | 228 | 0.0 | 0.0 | 0.00 | 0.02 | 0.02 | 95 | 1015.6 |
| 20260901022522 | 69 | 228 | 0.0 | 0.0 | 0.00 | 0.02 | 0.02 | 95 | 1015.7 |
| 20260901022445 | 69 | 228 | 0.0 | 0.0 | 0.00 | 0.02 | 0.02 | 95 | 1015.6 |
| 20260901022345 | 69 | 228 | 0.0 | 0.0 | 0.00 | 0.02 | 0.02 | 95 | 1015.6 |
| 20260901022306 | 69 | 228 | 0.0 | 0.0 | 0.00 | 0.02 | 0.02 | 95 | 1015.6 |
| 20260901022245 | 69 | 228 | 0.0 | 0.0 | 0.00 | 0.02 | 0.02 | 95 | 1015.6 |
| 20260901022144 | 69 | 228 | 0.0 | 0.0 | 0.00 | 0.02 | 0.02 | 94 | 1015.7 |
| 20260901022044 | 69 | 228 | 0.0 | 0.0 | 0.00 | 0.03 | 0.02 | 94 | 1015.7 |
| 20260901022022 | 69 | 228 | 0.0 | 0.0 | 0.00 | 0.03 | 0.02 | 94 | 1015.8 |
| 20260901021943 | 69 | 228 | 0.0 | 0.0 | 0.00 | 0.03 | 0.02 | 94 | 1015.7 |
| 20260901021843 | 69 | 228 | 0.0 | 0.0 | 0.00 | 0.03 | 0.02 | 94 | 1015.6 |
| 20260901021806 | 69 | 228 | 0.0 | 0.0 | 0.00 | 0.03 | 0.02 | 94 | 1015.6 |
| 20260901021743 | 69 | 228 | 0.0 | 0.0 | 0.00 | 0.05 | 0.02 | 94 | 1015.7 |
| 20260901021642 | 69 | 228 | 0.0 | 0.0 | 0.00 | 0.05 | 0.02 | 94 | 1015.7 |
| 20260901021542 | 69 | 228 | 0.0 | 0.0 | 0.00 | 0.06 | 0.02 | 94 | 1015.6 |
| 20260901021522 | 69 | 228 | 0.0 | 0.0 | 0.00 | 0.09 | 0.02 | 94 | 1015.7 |
| 20260901021441 | 69 | 228 | 0.0 | 0.0 | 0.00 | 0.10 | 0.02 | 94 | 1015.6 |
| 20260901021341 | 69 | 228 | 0.0 | 0.0 | 0.00 | 0.14 | 0.02 | 94 | 1015.6 |
| 20260901021306 | 69 | 228 | 0.0 | 0.0 | 0.00 | 0.15 | 0.02 | 94 | 1015.6 |
| 20260901021241 | 69 | 228 | 0.0 | 0.0 | 0.00 | 0.15 | 0.02 | 94 | 1015.6 |
| 20260901021139 | 69 | 228 | 0.0 | 0.0 | 0.00 | 0.16 | 0.02 | 94 | 1015.6 |
| 20260901021039 | 69 | 228 | 0.0 | 0.0 | 0.00 | 0.20 | 0.02 | 94 | 1015.6 |
| 20260901021022 | 69 | 228 | 0.0 | 0.0 | 0.00 | 0.21 | 0.02 | 94 | 1015.7 |
| 20260901020938 | 69 | 228 | 0.0 | 0.0 | 0.00 | 0.25 | 0.02 | 94 | 1015.6 |
| 20260901020837 | 69 | 228 | 0.0 | 0.0 | 0.00 | 0.32 | 0.02 | 94 | 1015.6 |
| 20260901020806 | 69 | 228 | 0.0 | 0.0 | 0.00 | 0.32 | 0.02 | 94 | 1015.6 |
| 20260901020737 | 69 | 228 | 0.0 | 0.0 | 0.00 | 0.34 | 0.02 | 94 | 1015.7 |
| 20260901020637 | 69 | 228 | 0.0 | 0.0 | 0.00 | 0.36 | 0.02 | 94 | 1015.6 |
| 20260901020536 | 69 | 228 | 0.0 | 0.0 | 0.00 | 0.39 | 0.02 | 94 | 1015.6 |
| 20260901020521 | 69 | 228 | 0.0 | 0.0 | 0.00 | 0.38 | 0.02 | 94 | 1015.8 |
| 20260901020435 | 69 | 228 | 0.0 | 0.0 | 0.00 | 0.41 | 0.02 | 94 | 1015.7 |
| 20260901020306 | 69 | 228 | 0.0 | 0.0 | 0.00 | 0.44 | 0.02 | 94 | 1015.6 |
| 20260901020234 | 69 | 228 | 0.0 | 0.0 | 0.00 | 0.46 | 0.02 | 94 | 1015.6 |
| 20260901020134 | 69 | 228 | 0.0 | 0.0 | 0.00 | 0.48 | 0.02 | 94 | 1015.6 |
| 20260901020033 | 69 | 228 | 0.0 | 0.0 | 0.00 | 0.50 | 0.02 | 94 | 1015.6 |
| 20260901020022 | 69 | 228 | 0.0 | 0.0 | 0.00 | 0.49 | 0.02 | 94 | 1015.8 |
| 20260901015932 | 69 | 228 | 0.0 | 0.0 | 0.00 | 0.52 | 0.02 | 94 | 1015.7 |
| 20260901015832 | 69 | 228 | 0.0 | 0.0 | 0.00 | 0.52 | 0.02 | 94 | 1015.6 |
| 20260901015806 | 69 | 228 | 0.0 | 0.0 | 0.00 | 0.54 | 0.02 | 94 | 1015.7 |
| 20260901015731 | 69 | 228 | 0.0 | 0.0 | 0.00 | 0.54 | 0.02 | 94 | 1015.7 |
| 20260901015630 | 69 | 228 | 0.0 | 0.0 | 0.00 | 0.54 | 0.02 | 94 | 1015.6 |
| 20260901015536 | 69 | 228 | 0.0 | 0.0 | 0.00 | 0.58 | 0.02 | 93 | 1015.6 |
| 20260901015530 | 69 | 228 | 0.0 | 0.0 | 0.00 | 0.55 | 0.02 | 94 | 1015.6 |
| 20260901015522 | 69 | 228 | 0.0 | 0.0 | 0.00 | 0.54 | 0.02 | 94 | 1015.7 |
| 20260901015429 | 69 | 228 | 0.0 | 0.0 | 0.00 | 0.56 | 0.02 | 94 | 1015.6 |
| 20260901015414 | 69 | 228 | 0.0 | 0.0 | 0.00 | 0.56 | 0.02 | 93 | 1015.6 |
| 20260901015229 | 69 | 228 | 0.0 | 0.0 | 0.00 | 0.58 | 0.02 | 93 | 1015.5 |
| 20260901015128 | 69 | 228 | 0.0 | 0.0 | 0.00 | 0.59 | 0.02 | 93 | 1015.5 |
| 20260901015028 | 69 | 228 | 0.0 | 0.0 | 0.00 | 0.61 | 0.02 | 93 | 1015.5 |
| 20260901015021 | 69 | 228 | 0.0 | 0.0 | 0.00 | 0.61 | 0.02 | 93 | 1015.6 |
| 20260901014928 | 69 | 228 | 0.0 | 0.0 | 0.00 | 0.64 | 0.02 | 93 | 1015.5 |
| 20260901014827 | 69 | 228 | 0.0 | 0.0 | 0.00 | 0.65 | 0.02 | 93 | 1015.5 |
| 20260901014806 | 69 | 228 | 0.0 | 0.0 | 0.00 | 0.65 | 0.02 | 93 | 1015.4 |
| 20260901014727 | 69 | 228 | 0.0 | 0.0 | 0.00 | 0.65 | 0.02 | 93 | 1015.4 |
| 20260901014640 | 69 | 228 | 0.0 | 0.0 | 0.00 | 0.66 | 0.02 | 93 | 1015.5 |
| 20260901014526 | 69 | 228 | 0.0 | 0.0 | 0.00 | 0.66 | 0.02 | 93 | 1015.4 |
| 20260901014522 | 69 | 228 | 0.0 | 0.0 | 0.00 | 0.66 | 0.02 | 93 | 1015.5 |
| 20260901014425 | 69 | 228 | 0.0 | 0.0 | 0.00 | 0.66 | 0.02 | 93 | 1015.4 |
| 20260901014414 | 69 | 228 | 0.0 | 0.0 | 0.00 | 0.66 | 0.02 | 93 | 1015.4 |
| 20260901014222 | 69 | 228 | 0.0 | 0.0 | 0.00 | 0.66 | 0.02 | 93 | 1015.4 |
| 20260901014121 | 69 | 228 | 0.0 | 0.0 | 0.00 | 0.66 | 0.02 | 93 | 1015.5 |
| 20260901014022 | 70 | 228 | 0.0 | 0.0 | 0.00 | 0.66 | 0.02 | 93 | 1015.6 |
| 20260901013920 | 69 | 228 | 0.0 | 0.0 | 0.00 | 0.66 | 0.02 | 93 | 1015.5 |
| 20260901013806 | 69 | 228 | 0.0 | 0.0 | 0.00 | 0.67 | 0.02 | 93 | 1015.4 |
| 20260901013719 | 69 | 228 | 0.0 | 0.0 | 0.00 | 0.67 | 0.02 | 93 | 1015.4 |
| 20260901013618 | 70 | 228 | 0.0 | 0.0 | 0.00 | 0.67 | 0.02 | 93 | 1015.5 |
| 20260901013522 | 70 | 228 | 0.0 | 0.0 | 0.00 | 0.67 | 0.02 | 93 | 1015.6 |
| 20260901013518 | 70 | 228 | 0.0 | 0.0 | 0.00 | 0.67 | 0.02 | 93 | 1015.5 |
| 20260901013417 | 70 | 228 | 0.0 | 0.0 | 0.00 | 0.67 | 0.02 | 93 | 1015.5 |
| 20260901013305 | 70 | 228 | 0.0 | 0.0 | 0.00 | 0.67 | 0.02 | 93 | 1015.5 |
| 20260901013216 | 70 | 228 | 0.0 | 0.0 | 0.00 | 0.67 | 0.02 | 93 | 1015.5 |
| 20260901013116 | 70 | 228 | 0.0 | 0.0 | 0.00 | 0.67 | 0.02 | 93 | 1015.5 |
| 20260901013028 | 70 | 228 | 0.0 | 0.0 | 0.00 | 0.67 | 0.02 | 93 | 1015.5 |
| 20260901013024 | 70 | 228 | 0.0 | 0.0 | 0.00 | 0.67 | 0.02 | 93 | 1015.5 |
| 20260901013022 | 70 | 228 | 0.0 | 0.0 | 0.00 | 0.67 | 0.02 | 93 | 1015.6 |
| 20260901012805 | 70 | 228 | 0.0 | 0.0 | 0.00 | 0.67 | 0.02 | 93 | 1015.5 |
| 20260901012739 | 70 | 228 | 0.0 | 0.0 | 0.00 | 0.67 | 0.02 | 93 | 1015.5 |
| 20260901012734 | 70 | 228 | 0.0 | 0.0 | 0.00 | 0.67 | 0.02 | 93 | 1015.5 |
| 20260901012730 | 70 | 228 | 0.0 | 0.0 | 0.00 | 0.67 | 0.02 | 93 | 1015.5 |
| 20260901012521 | 70 | 228 | 0.0 | 0.0 | 0.00 | 0.67 | 0.02 | 93 | 1015.6 |
| 20260901012411 | 70 | 228 | 0.0 | 0.0 | 0.00 | 0.67 | 0.02 | 93 | 1015.5 |
| 20260901012306 | 70 | 228 | 0.0 | 0.0 | 0.00 | 0.67 | 0.02 | 93 | 1015.5 |
| 20260901012222 | 70 | 228 | 0.0 | 0.0 | 0.00 | 0.67 | 0.02 | 93 | 1015.5 |
| 20260901012217 | 70 | 228 | 0.0 | 0.0 | 0.00 | 0.67 | 0.02 | 93 | 1015.5 |
| 20260901012022 | 70 | 228 | 0.0 | 0.0 | 0.00 | 0.67 | 0.02 | 93 | 1015.5 |
| 20260901012007 | 70 | 228 | 0.0 | 0.0 | 0.00 | 0.67 | 0.02 | 93 | 1015.4 |
| 20260901011906 | 70 | 228 | 0.0 | 0.0 | 0.00 | 0.67 | 0.02 | 93 | 1015.5 |
| 20260901011808 | 70 | 228 | 0.0 | 0.0 | 0.00 | 0.67 | 0.02 | 93 | 1015.5 |
| 20260901011708 | 70 | 228 | 0.0 | 0.0 | 0.00 | 0.67 | 0.02 | 92 | 1015.5 |
| 20260901011607 | 70 | 228 | 0.0 | 0.0 | 0.00 | 0.67 | 0.02 | 92 | 1015.6 |
| 20260901011522 | 70 | 228 | 0.0 | 0.0 | 0.00 | 0.67 | 0.02 | 92 | 1015.6 |
| 20260901011517 | 70 | 228 | 0.0 | 0.0 | 0.00 | 0.67 | 0.02 | 92 | 1015.5 |
| 20260901011339 | 70 | 228 | 0.0 | 0.0 | 0.00 | 0.67 | 0.02 | 92 | 1015.5 |
| 20260901011335 | 70 | 228 | 0.0 | 0.0 | 0.00 | 0.67 | 0.02 | 92 | 1015.5 |
| 20260901011326 | 70 | 228 | 0.0 | 0.0 | 0.00 | 0.67 | 0.02 | 92 | 1015.6 |
| 20260901011022 | 70 | 228 | 0.0 | 0.0 | 0.00 | 0.67 | 0.02 | 92 | 1015.7 |
| 20260901011006 | 70 | 228 | 0.0 | 0.0 | 0.00 | 0.67 | 0.02 | 92 | 1015.6 |
| 20260901010905 | 70 | 228 | 0.0 | 0.0 | 0.00 | 0.67 | 0.02 | 92 | 1015.5 |
| 20260901010805 | 70 | 228 | 0.0 | 0.0 | 0.00 | 0.67 | 0.02 | 92 | 1015.6 |
| 20260901010704 | 70 | 228 | 0.0 | 0.0 | 0.00 | 0.67 | 0.02 | 92 | 1015.6 |
| 20260901010604 | 70 | 228 | 0.0 | 0.0 | 0.00 | 0.67 | 0.02 | 92 | 1015.6 |
| 20260901010522 | 70 | 228 | 0.0 | 0.0 | 0.00 | 0.67 | 0.02 | 92 | 1015.7 |
| 20260901010504 | 70 | 228 | 0.0 | 0.0 | 0.00 | 0.67 | 0.02 | 92 | 1015.6 |
| 20260901010355 | 71 | 228 | 0.0 | 0.0 | 0.00 | 0.67 | 0.02 | 92 | 1015.6 |
| 20260901010351 | 71 | 228 | 0.0 | 0.0 | 0.00 | 0.67 | 0.02 | 92 | 1015.6 |
| 20260901010346 | 71 | 228 | 0.0 | 0.0 | 0.00 | 0.67 | 0.02 | 92 | 1015.6 |
| 20260901010340 | 71 | 228 | 0.0 | 0.0 | 0.00 | 0.67 | 0.02 | 92 | 1015.6 |
| 20260901010227 | 71 | 228 | 0.0 | 0.0 | 0.00 | 0.67 | 0.02 | 92 | 1015.6 |
| 20260901010022 | 71 | 228 | 0.0 | 0.0 | 0.00 | 0.67 | 0.02 | 92 | 1015.7 |
| 20260901005804 | 71 | 228 | 0.0 | 0.0 | 0.00 | 0.67 | 0.02 | 92 | 1015.5 |
| 20260901005758 | 71 | 228 | 0.0 | 0.0 | 0.00 | 0.67 | 0.02 | 92 | 1015.5 |
| 20260901005658 | 71 | 228 | 0.0 | 0.0 | 0.00 | 0.67 | 0.02 | 92 | 1015.5 |
| 20260901005558 | 71 | 228 | 0.0 | 0.0 | 0.00 | 0.67 | 0.02 | 92 | 1015.5 |
| 20260901005522 | 71 | 228 | 0.0 | 0.0 | 0.00 | 0.67 | 0.02 | 92 | 1015.5 |
| 20260901005456 | 71 | 228 | 0.0 | 0.0 | 0.00 | 0.67 | 0.02 | 92 | 1015.4 |
| 20260901005356 | 71 | 228 | 0.0 | 0.0 | 0.00 | 0.67 | 0.02 | 92 | 1015.5 |
| 20260901005314 | 71 | 228 | 0.0 | 0.0 | 0.00 | 0.67 | 0.02 | 91 | 1015.5 |
| 20260901005310 | 71 | 228 | 0.0 | 0.0 | 0.00 | 0.67 | 0.02 | 91 | 1015.4 |
| 20260901005306 | 71 | 228 | 0.0 | 0.0 | 0.00 | 0.67 | 0.02 | 91 | 1015.4 |
| 20260901005112 | 71 | 228 | 0.0 | 0.0 | 0.00 | 0.67 | 0.02 | 91 | 1015.5 |
| 20260901005107 | 71 | 228 | 0.0 | 0.0 | 0.00 | 0.67 | 0.02 | 91 | 1015.4 |
| 20260901005103 | 71 | 228 | 0.0 | 0.0 | 0.00 | 0.67 | 0.02 | 91 | 1015.5 |
| 20260901005022 | 71 | 228 | 0.0 | 0.0 | 0.00 | 0.67 | 0.02 | 91 | 1015.6 |
| 20260901004912 | 71 | 228 | 0.0 | 0.0 | 0.00 | 0.67 | 0.02 | 91 | 1015.5 |
| 20260901004753 | 71 | 228 | 0.0 | 0.0 | 0.00 | 0.67 | 0.02 | 91 | 1015.4 |
| 20260901004652 | 71 | 228 | 0.0 | 0.0 | 0.00 | 0.67 | 0.02 | 91 | 1015.4 |
| 20260901004619 | 71 | 228 | 0.0 | 0.0 | 0.00 | 0.67 | 0.02 | 91 | 1015.4 |
| 20260901004552 | 71 | 228 | 0.0 | 0.0 | 0.00 | 0.67 | 0.02 | 91 | 1015.4 |
| 20260901004537 | 71 | 228 | 0.0 | 0.0 | 0.00 | 0.67 | 0.02 | 91 | 1015.5 |
| 20260901004521 | 71 | 228 | 0.0 | 0.0 | 0.00 | 0.67 | 0.02 | 91 | 1015.4 |
| 20260901004516 | 71 | 228 | 0.0 | 0.0 | 0.00 | 0.67 | 0.02 | 91 | 1015.4 |
| 20260901004506 | 71 | 228 | 0.0 | 0.0 | 0.00 | 0.67 | 0.02 | 91 | 1015.4 |
| 20260901004150 | 71 | 228 | 0.0 | 0.0 | 0.00 | 0.67 | 0.02 | 91 | 1015.4 |
| 20260901004050 | 71 | 228 | 0.0 | 0.0 | 0.00 | 0.67 | 0.02 | 91 | 1015.4 |
| 20260901004022 | 72 | 228 | 0.0 | 0.0 | 0.00 | 0.67 | 0.02 | 91 | 1015.5 |
| 20260901004017 | 71 | 228 | 0.0 | 0.0 | 0.00 | 0.67 | 0.02 | 90 | 1015.4 |
| 20260901004012 | 71 | 228 | 0.0 | 0.0 | 0.00 | 0.67 | 0.02 | 91 | 1015.4 |
| 20260901003854 | 71 | 228 | 0.0 | 0.0 | 0.00 | 0.67 | 0.02 | 90 | 1015.4 |
| 20260901003648 | 72 | 228 | 0.0 | 0.0 | 0.00 | 0.67 | 0.02 | 90 | 1015.4 |
| 20260901003552 | 72 | 228 | 0.0 | 0.0 | 0.00 | 0.67 | 0.02 | 90 | 1015.5 |
| 20260901003545 | 72 | 228 | 0.0 | 0.0 | 0.00 | 0.67 | 0.02 | 90 | 1015.4 |
| 20260901003512 | 72 | 228 | 0.0 | 0.0 | 0.00 | 0.67 | 0.02 | 90 | 1015.4 |
| 20260901003358 | 72 | 228 | 0.0 | 0.0 | 0.00 | 0.67 | 0.02 | 90 | 1015.4 |
| 20260901003349 | 72 | 228 | 0.0 | 0.0 | 0.00 | 0.67 | 0.02 | 90 | 1015.3 |
| 20260901003143 | 72 | 228 | 0.0 | 0.0 | 0.00 | 0.67 | 0.02 | 90 | 1015.3 |
| 20260901003128 | 72 | 228 | 0.0 | 0.0 | 0.00 | 0.67 | 0.02 | 90 | 1015.3 |
| 20260901003036 | 72 | 228 | 0.0 | 0.0 | 0.00 | 0.67 | 0.02 | 90 | 1015.4 |
| 20260901002942 | 72 | 228 | 0.0 | 0.0 | 0.00 | 0.67 | 0.02 | 90 | 1015.3 |
| 20260901002903 | 72 | 228 | 0.0 | 0.0 | 0.00 | 0.67 | 0.02 | 90 | 1015.3 |
| 20260901002741 | 72 | 228 | 0.0 | 0.0 | 0.00 | 0.67 | 0.02 | 90 | 1015.3 |
| 20260901002640 | 72 | 228 | 0.0 | 0.0 | 0.00 | 0.67 | 0.02 | 90 | 1015.3 |
| 20260901002540 | 72 | 228 | 0.0 | 0.0 | 0.00 | 0.67 | 0.02 | 90 | 1015.3 |
| 20260901002522 | 72 | 228 | 0.0 | 0.0 | 0.00 | 0.67 | 0.02 | 89 | 1015.3 |
| 20260901002440 | 72 | 228 | 0.0 | 0.0 | 0.00 | 0.67 | 0.02 | 89 | 1015.2 |
| 20260901002340 | 72 | 228 | 0.0 | 0.0 | 0.00 | 0.67 | 0.02 | 89 | 1015.2 |
| 20260901002239 | 72 | 228 | 0.0 | 0.0 | 0.00 | 0.67 | 0.02 | 89 | 1015.3 |
| 20260901002139 | 72 | 228 | 0.0 | 0.0 | 0.00 | 0.67 | 0.02 | 89 | 1015.4 |
| 20260901002038 | 72 | 228 | 0.0 | 0.0 | 0.00 | 0.67 | 0.02 | 89 | 1015.4 |
| 20260901002022 | 72 | 228 | 0.0 | 0.0 | 0.00 | 0.67 | 0.02 | 89 | 1015.4 |
| 20260901001938 | 72 | 228 | 0.0 | 0.0 | 0.00 | 0.67 | 0.02 | 89 | 1015.4 |
| 20260901001837 | 73 | 228 | 0.0 | 0.0 | 0.00 | 0.67 | 0.02 | 89 | 1015.3 |
| 20260901001737 | 73 | 228 | 0.0 | 0.0 | 0.00 | 0.67 | 0.02 | 89 | 1015.4 |
| 20260901001636 | 73 | 228 | 0.0 | 0.0 | 0.00 | 0.67 | 0.02 | 89 | 1015.4 |
| 20260901001536 | 73 | 228 | 0.0 | 0.0 | 0.00 | 0.67 | 0.02 | 89 | 1015.4 |
| 20260901001521 | 73 | 228 | 0.0 | 0.0 | 0.00 | 0.67 | 0.02 | 89 | 1015.4 |
| 20260901001435 | 73 | 228 | 0.0 | 0.0 | 0.00 | 0.67 | 0.02 | 89 | 1015.4 |
| 20260901001349 | 73 | 228 | 0.0 | 0.0 | 0.00 | 0.67 | 0.02 | 89 | 1015.4 |
| 20260901001340 | 73 | 228 | 0.0 | 0.0 | 0.00 | 0.67 | 0.02 | 88 | 1015.4 |
| 20260901001134 | 73 | 228 | 0.0 | 0.0 | 0.00 | 0.67 | 0.02 | 88 | 1015.4 |
| 20260901001046 | 73 | 228 | 0.0 | 0.0 | 0.00 | 0.67 | 0.02 | 88 | 1015.4 |
| 20260901001042 | 73 | 228 | 0.0 | 0.0 | 0.00 | 0.67 | 0.02 | 88 | 1015.4 |
| 20260901001022 | 73 | 228 | 0.0 | 0.0 | 0.00 | 0.67 | 0.02 | 88 | 1015.4 |
| 20260901000833 | 73 | 228 | 0.0 | 0.0 | 0.00 | 0.67 | 0.02 | 88 | 1015.4 |
| 20260901000731 | 73 | 228 | 0.0 | 0.0 | 0.00 | 0.67 | 0.02 | 88 | 1015.4 |
| 20260901000631 | 73 | 228 | 0.0 | 0.0 | 0.00 | 0.67 | 0.02 | 88 | 1015.4 |
| 20260901000531 | 73 | 228 | 0.0 | 0.0 | 0.00 | 0.67 | 0.02 | 88 | 1015.3 |
| 20260901000522 | 73 | 228 | 0.0 | 0.0 | 0.00 | 0.67 | 0.02 | 88 | 1015.3 |
| 20260901000519 | 73 | 228 | 0.0 | 0.0 | 0.00 | 0.67 | 0.02 | 87 | 1015.2 |
| 20260901000514 | 73 | 228 | 0.0 | 0.0 | 0.00 | 0.67 | 0.02 | 88 | 1015.3 |
| 20260901000509 | 73 | 228 | 0.0 | 0.0 | 0.00 | 0.67 | 0.02 | 88 | 1015.3 |
| 20260901000230 | 73 | 228 | 0.0 | 0.0 | 0.00 | 0.67 | 0.02 | 87 | 1015.2 |
| 20260901000130 | 74 | 228 | 0.0 | 0.0 | 0.00 | 0.67 | 0.02 | 87 | 1015.2 |
| 20260901000029 | 74 | 228 | 0.0 | 0.0 | 0.00 | 0.67 | 0.02 | 87 | 1015.2 |
| 20260901000022 | 74 | 228 | 0.0 | 0.0 | 0.00 | 0.67 | 0.02 | 87 | 1015.2 |
| 20260831235929 | 74 | 228 | 0.0 | 0.0 | 0.00 | 0.67 | 0.02 | 87 | 1015.2 |
| 20260831235856 | 74 | 228 | 0.0 | 0.0 | 0.00 | 0.67 | 0.02 | 86 | 1015.2 |
| 20260831235851 | 74 | 228 | 0.0 | 0.0 | 0.00 | 0.67 | 0.02 | 87 | 1015.2 |
| 20260831235842 | 74 | 228 | 0.0 | 0.0 | 0.00 | 0.67 | 0.02 | 87 | 1015.2 |
| 20260831235527 | 74 | 228 | 0.0 | 0.0 | 0.00 | 0.67 | 0.02 | 86 | 1015.2 |
| 20260831235523 | 74 | 228 | 0.0 | 0.0 | 0.00 | 0.67 | 0.02 | 86 | 1015.2 |
| 20260831235510 | 74 | 228 | 0.0 | 0.0 | 0.00 | 0.67 | 0.02 | 86 | 1015.2 |
| 20260831235426 | 74 | 228 | 0.0 | 0.0 | 0.00 | 0.67 | 0.02 | 86 | 1015.2 |
| 20260831235358 | 74 | 228 | 0.0 | 0.0 | 0.00 | 0.67 | 0.02 | 86 | 1015.2 |
| 20260831235239 | 74 | 228 | 0.0 | 0.0 | 0.00 | 0.67 | 0.02 | 85 | 1015.2 |
| 20260831235234 | 74 | 228 | 0.0 | 0.0 | 0.00 | 0.67 | 0.02 | 86 | 1015.2 |
| 20260831235025 | 74 | 228 | 0.0 | 0.0 | 0.00 | 0.67 | 0.02 | 85 | 1015.2 |
| 20260831235022 | 74 | 228 | 0.0 | 0.0 | 0.00 | 0.67 | 0.02 | 85 | 1015.1 |
| 20260831234924 | 74 | 228 | 0.0 | 0.0 | 0.00 | 0.67 | 0.02 | 85 | 1015.1 |
| 20260831234838 | 74 | 228 | 0.0 | 0.0 | 0.00 | 0.67 | 0.02 | 85 | 1015.2 |
| 20260831234830 | 74 | 228 | 0.0 | 0.0 | 0.00 | 0.67 | 0.02 | 85 | 1015.1 |
| 20260831234622 | 74 | 228 | 0.0 | 0.0 | 0.00 | 0.67 | 0.02 | 85 | 1015.1 |
| 20260831234521 | 75 | 228 | 0.0 | 0.0 | 0.00 | 0.67 | 0.02 | 85 | 1015.2 |
| 20260831234421 | 75 | 228 | 0.0 | 0.0 | 0.00 | 0.67 | 0.02 | 85 | 1015.1 |
| 20260831234349 | 75 | 228 | 0.0 | 0.0 | 0.00 | 0.67 | 0.02 | 84 | 1015.1 |
| 20260831234344 | 75 | 228 | 0.0 | 0.0 | 0.00 | 0.67 | 0.02 | 84 | 1015.2 |
| 20260831234336 | 75 | 228 | 0.0 | 0.0 | 0.00 | 0.67 | 0.02 | 84 | 1015.1 |
| 20260831234022 | 75 | 228 | 0.0 | 0.0 | 0.00 | 0.67 | 0.02 | 83 | 1015.1 |
| 20260831234019 | 75 | 228 | 0.0 | 0.0 | 0.00 | 0.67 | 0.02 | 84 | 1015.1 |
| 20260831233919 | 75 | 228 | 0.0 | 0.0 | 0.00 | 0.67 | 0.02 | 83 | 1015.1 |
| 20260831233818 | 75 | 228 | 0.0 | 0.0 | 0.00 | 0.67 | 0.02 | 83 | 1015.1 |
| 20260831233744 | 75 | 228 | 0.0 | 0.0 | 0.00 | 0.67 | 0.02 | 83 | 1015.1 |
| 20260831233740 | 75 | 228 | 0.0 | 0.0 | 0.00 | 0.67 | 0.02 | 83 | 1015.1 |
| 20260831233734 | 75 | 228 | 0.0 | 0.0 | 0.00 | 0.67 | 0.02 | 83 | 1015.1 |
| 20260831233522 | 75 | 228 | 0.0 | 0.0 | 0.00 | 0.67 | 0.02 | 83 | 1015.1 |
| 20260831233416 | 75 | 228 | 0.0 | 0.0 | 0.00 | 0.67 | 0.02 | 83 | 1015.1 |
| 20260831233317 | 76 | 228 | 0.0 | 0.0 | 0.00 | 0.67 | 0.02 | 83 | 1015.1 |
| 20260831233216 | 76 | 228 | 0.0 | 0.0 | 0.00 | 0.67 | 0.02 | 83 | 1015.1 |
| 20260831233114 | 76 | 228 | 0.0 | 0.0 | 0.00 | 0.67 | 0.02 | 83 | 1015.2 |
| 20260831233022 | 76 | 228 | 0.0 | 0.0 | 0.00 | 0.67 | 0.02 | 83 | 1015.2 |
| 20260831233013 | 76 | 228 | 0.0 | 0.0 | 0.00 | 0.67 | 0.02 | 83 | 1015.2 |
| 20260831232954 | 76 | 228 | 0.0 | 0.0 | 0.00 | 0.67 | 0.02 | 82 | 1015.2 |
| 20260831232948 | 76 | 228 | 0.0 | 0.0 | 0.00 | 0.67 | 0.02 | 83 | 1015.2 |
| 20260831232835 | 76 | 228 | 0.0 | 0.0 | 0.00 | 0.67 | 0.02 | 82 | 1015.2 |
| 20260831232827 | 76 | 228 | 0.0 | 0.0 | 0.00 | 0.67 | 0.02 | 82 | 1015.2 |
| 20260831232522 | 76 | 228 | 0.0 | 0.0 | 0.00 | 0.67 | 0.02 | 82 | 1015.1 |
| 20260831232510 | 76 | 228 | 0.0 | 0.0 | 0.00 | 0.67 | 0.02 | 82 | 1015.1 |
| 20260831232408 | 76 | 228 | 0.0 | 0.0 | 0.00 | 0.67 | 0.02 | 82 | 1015.1 |
| 20260831232309 | 76 | 228 | 0.0 | 0.0 | 0.00 | 0.67 | 0.02 | 81 | 1015.1 |
| 20260831232243 | 76 | 228 | 0.0 | 0.0 | 0.00 | 0.67 | 0.02 | 81 | 1015.2 |
| 20260831232209 | 76 | 228 | 0.0 | 0.0 | 0.00 | 0.67 | 0.02 | 81 | 1015.2 |
| 20260831232108 | 76 | 228 | 0.0 | 0.0 | 0.00 | 0.67 | 0.02 | 81 | 1015.2 |
| 20260831232022 | 76 | 228 | 0.0 | 0.0 | 0.00 | 0.67 | 0.02 | 81 | 1015.3 |
| 20260831232008 | 76 | 228 | 0.0 | 0.0 | 0.00 | 0.67 | 0.02 | 81 | 1015.3 |
| 20260831231907 | 76 | 228 | 0.0 | 0.0 | 0.00 | 0.67 | 0.02 | 80 | 1015.3 |
| 20260831231807 | 76 | 228 | 0.0 | 0.0 | 0.00 | 0.67 | 0.02 | 80 | 1015.2 |
| 20260831231742 | 76 | 228 | 0.0 | 0.0 | 0.00 | 0.67 | 0.02 | 80 | 1015.2 |
| 20260831231706 | 76 | 228 | 0.0 | 0.0 | 0.00 | 0.67 | 0.02 | 80 | 1015.3 |
| 20260831231606 | 77 | 228 | 0.0 | 0.0 | 0.00 | 0.67 | 0.02 | 80 | 1015.3 |
| 20260831231522 | 77 | 228 | 0.0 | 0.0 | 0.00 | 0.67 | 0.02 | 80 | 1015.3 |
| 20260831231519 | 77 | 228 | 0.0 | 0.0 | 0.00 | 0.67 | 0.02 | 80 | 1015.3 |
| 20260831231514 | 77 | 228 | 0.0 | 0.0 | 0.00 | 0.67 | 0.02 | 80 | 1015.3 |
| 20260831231304 | 77 | 228 | 0.0 | 0.0 | 0.00 | 0.67 | 0.02 | 80 | 1015.3 |
| 20260831231242 | 77 | 228 | 0.0 | 0.0 | 0.00 | 0.67 | 0.02 | 81 | 1015.3 |
| 20260831231203 | 77 | 228 | 0.0 | 0.0 | 0.00 | 0.67 | 0.02 | 81 | 1015.3 |
| 20260831231104 | 77 | 228 | 0.0 | 0.0 | 0.00 | 0.67 | 0.02 | 81 | 1015.4 |
| 20260831231022 | 77 | 228 | 0.0 | 0.0 | 0.00 | 0.67 | 0.02 | 81 | 1015.4 |
| 20260831231004 | 77 | 228 | 0.0 | 0.0 | 0.00 | 0.67 | 0.02 | 81 | 1015.4 |
| 20260831230902 | 77 | 228 | 0.0 | 0.0 | 0.00 | 0.67 | 0.02 | 81 | 1015.4 |
| 20260831230740 | 77 | 228 | 0.0 | 0.0 | 0.00 | 0.67 | 0.02 | 80 | 1015.4 |
| 20260831230701 | 77 | 228 | 0.0 | 0.0 | 0.00 | 0.67 | 0.02 | 80 | 1015.4 |
| 20260831230627 | 77 | 228 | 0.0 | 0.0 | 0.00 | 0.67 | 0.02 | 79 | 1015.4 |
| 20260831230623 | 77 | 228 | 0.0 | 0.0 | 0.00 | 0.67 | 0.02 | 79 | 1015.4 |
| 20260831230618 | 77 | 228 | 0.0 | 0.0 | 0.00 | 0.67 | 0.02 | 79 | 1015.4 |
| 20260831230613 | 77 | 228 | 0.0 | 0.0 | 0.00 | 0.67 | 0.02 | 79 | 1015.4 |
| 20260831230604 | 77 | 228 | 0.0 | 0.0 | 0.00 | 0.67 | 0.02 | 79 | 1015.4 |
| 20260831230521 | 77 | 228 | 0.0 | 0.0 | 0.00 | 0.67 | 0.02 | 79 | 1015.4 |
| 20260831230200 | 77 | 228 | 0.0 | 0.0 | 0.00 | 0.67 | 0.02 | 78 | 1015.4 |
| 20260831230100 | 77 | 228 | 0.0 | 0.0 | 0.00 | 0.67 | 0.02 | 79 | 1015.4 |
| 20260831230039 | 77 | 228 | 0.0 | 0.0 | 0.00 | 0.67 | 0.02 | 79 | 1015.4 |
| 20260831230034 | 77 | 228 | 0.0 | 0.0 | 0.00 | 0.67 | 0.02 | 79 | 1015.4 |
| 20260831230022 | 77 | 228 | 0.0 | 0.0 | 0.00 | 0.67 | 0.02 | 79 | 1015.4 |
| 20260831225920 | 77 | 228 | 0.0 | 0.0 | 0.00 | 0.67 | 0.02 | 79 | 1015.4 |
| 20260831225803 | 77 | 228 | 0.0 | 0.0 | 0.00 | 0.67 | 0.02 | 79 | 1015.4 |
| 20260831225556 | 77 | 228 | 0.0 | 0.0 | 0.00 | 0.67 | 0.02 | 79 | 1015.4 |
| 20260831225522 | 77 | 228 | 0.0 | 0.0 | 0.00 | 0.67 | 0.02 | 79 | 1015.4 |
| 20260831225456 | 77 | 228 | 0.0 | 0.0 | 0.00 | 0.67 | 0.02 | 79 | 1015.4 |
| 20260831225422 | 77 | 228 | 0.0 | 0.0 | 0.00 | 0.67 | 0.02 | 79 | 1015.4 |
| 20260831225301 | 77 | 228 | 0.0 | 0.0 | 0.00 | 0.67 | 0.02 | 79 | 1015.4 |
| 20260831225054 | 77 | 228 | 0.0 | 0.0 | 0.00 | 0.67 | 0.02 | 78 | 1015.5 |
| 20260831225037 | 77 | 228 | 0.0 | 0.0 | 0.00 | 0.67 | 0.02 | 78 | 1015.5 |
| 20260831224954 | 77 | 228 | 0.0 | 0.0 | 0.00 | 0.67 | 0.02 | 78 | 1015.5 |
| 20260831224735 | 77 | 228 | 0.0 | 0.0 | 0.00 | 0.67 | 0.02 | 78 | 1015.5 |
| 20260831224653 | 77 | 228 | 0.0 | 0.0 | 0.00 | 0.67 | 0.02 | 78 | 1015.6 |
| 20260831224553 | 77 | 228 | 0.0 | 0.0 | 0.00 | 0.67 | 0.02 | 79 | 1015.6 |
| 20260831224522 | 77 | 228 | 0.0 | 0.0 | 0.00 | 0.67 | 0.02 | 79 | 1015.6 |
| 20260831224451 | 77 | 228 | 0.0 | 0.0 | 0.00 | 0.67 | 0.02 | 79 | 1015.6 |
| 20260831224351 | 77 | 228 | 0.0 | 0.0 | 0.00 | 0.67 | 0.02 | 79 | 1015.5 |
| 20260831224235 | 77 | 228 | 0.0 | 0.0 | 0.00 | 0.67 | 0.02 | 79 | 1015.6 |
| 20260831224150 | 77 | 228 | 0.0 | 0.0 | 0.00 | 0.67 | 0.02 | 79 | 1015.6 |
| 20260831224050 | 77 | 228 | 0.0 | 0.0 | 0.00 | 0.67 | 0.02 | 79 | 1015.6 |
| 20260831224022 | 77 | 228 | 0.0 | 0.0 | 0.00 | 0.67 | 0.02 | 79 | 1015.6 |
| 20260831223949 | 77 | 228 | 0.0 | 0.0 | 0.00 | 0.67 | 0.02 | 79 | 1015.6 |
| 20260831223849 | 77 | 228 | 0.0 | 0.0 | 0.00 | 0.67 | 0.02 | 79 | 1015.6 |
| 20260831223734 | 77 | 228 | 0.0 | 0.0 | 0.00 | 0.67 | 0.02 | 79 | 1015.6 |
| 20260831223648 | 77 | 228 | 0.0 | 0.0 | 0.00 | 0.67 | 0.02 | 79 | 1015.6 |
| 20260831223546 | 77 | 228 | 0.0 | 0.0 | 0.00 | 0.67 | 0.02 | 78 | 1015.6 |
| 20260831223522 | 77 | 228 | 0.0 | 0.0 | 0.00 | 0.67 | 0.02 | 78 | 1015.6 |
| 20260831223446 | 77 | 228 | 0.0 | 0.0 | 0.00 | 0.67 | 0.02 | 78 | 1015.6 |
| 20260831223357 | 77 | 228 | 0.0 | 0.0 | 0.00 | 0.67 | 0.02 | 78 | 1015.7 |
| 20260831223353 | 77 | 228 | 0.0 | 0.0 | 0.00 | 0.67 | 0.02 | 78 | 1015.6 |
| 20260831223233 | 77 | 228 | 0.0 | 0.0 | 0.00 | 0.67 | 0.02 | 78 | 1015.7 |
| 20260831223143 | 77 | 228 | 0.0 | 0.0 | 0.00 | 0.67 | 0.02 | 78 | 1015.6 |
| 20260831223043 | 77 | 228 | 0.0 | 0.0 | 0.00 | 0.67 | 0.02 | 78 | 1015.7 |
| 20260831223021 | 77 | 228 | 0.0 | 0.0 | 0.00 | 0.67 | 0.02 | 79 | 1015.6 |
| 20260831222942 | 77 | 228 | 0.0 | 0.0 | 0.00 | 0.67 | 0.02 | 79 | 1015.6 |